<?xml version="1.0" encoding="UTF-8" standalone="no" ?>
<gpx xmlns="http://www.topografix.com/GPX/1/1" xmlns:xsi="http://www.w3.org/2001/XMLSchema-instance" xsi:schemaLocation="http://www.topografix.com/GPX/1/1 http://www.topografix.com/GPX/1/1/gpx.xsd" version="1.1" creator="VisuGPX - https://www.visugpx.com">
  <metadata>
    <name>col de sanel</name>
    <desc><![CDATA[jardinage au début et par la suite grosses rincés avec loic]]></desc>
  </metadata>
  <trk>
    <name><![CDATA[(null)]]></name>
    <desc><![CDATA[(null)]]></desc>
    <trkseg>
      <trkpt lat="43.83521" lon="7.35391">
        <ele>349.8</ele>
        <time>2011-09-04T11:29:57Z</time>
      </trkpt>
      <trkpt lat="43.83521" lon="7.35391">
        <ele>349.8</ele>
        <time>2011-09-04T11:29:59Z</time>
      </trkpt>
      <trkpt lat="43.83512" lon="7.35387">
        <ele>350.2</ele>
        <time>2011-09-04T11:30:16Z</time>
      </trkpt>
      <trkpt lat="43.83514" lon="7.35419">
        <ele>348.1</ele>
        <time>2011-09-04T11:30:44Z</time>
      </trkpt>
      <trkpt lat="43.83516" lon="7.35391">
        <ele>349.9</ele>
        <time>2011-09-04T11:30:52Z</time>
      </trkpt>
      <trkpt lat="43.83562" lon="7.35432">
        <ele>339.2</ele>
        <time>2011-09-04T11:31:06Z</time>
      </trkpt>
      <trkpt lat="43.83503" lon="7.35377">
        <ele>352.7</ele>
        <time>2011-09-04T11:31:18Z</time>
      </trkpt>
      <trkpt lat="43.83512" lon="7.35374">
        <ele>352.1</ele>
        <time>2011-09-04T11:31:32Z</time>
      </trkpt>
      <trkpt lat="43.83506" lon="7.35375">
        <ele>352.8</ele>
        <time>2011-09-04T11:31:48Z</time>
      </trkpt>
      <trkpt lat="43.83538" lon="7.35401">
        <ele>346.7</ele>
        <time>2011-09-04T11:31:56Z</time>
      </trkpt>
      <trkpt lat="43.83553" lon="7.35403">
        <ele>343.4</ele>
        <time>2011-09-04T11:32:01Z</time>
      </trkpt>
      <trkpt lat="43.83556" lon="7.35304">
        <ele>357</ele>
        <time>2011-09-04T11:32:16Z</time>
      </trkpt>
      <trkpt lat="43.83564" lon="7.35386">
        <ele>346.4</ele>
        <time>2011-09-04T11:32:18Z</time>
      </trkpt>
      <trkpt lat="43.83556" lon="7.35304">
        <ele>357</ele>
        <time>2011-09-04T11:32:25Z</time>
      </trkpt>
      <trkpt lat="43.83623" lon="7.35263">
        <ele>351.2</ele>
        <time>2011-09-04T11:32:33Z</time>
      </trkpt>
      <trkpt lat="43.83718" lon="7.35314">
        <ele>351.9</ele>
        <time>2011-09-04T11:32:43Z</time>
      </trkpt>
      <trkpt lat="43.83682" lon="7.3525">
        <ele>347.5</ele>
        <time>2011-09-04T11:33:03Z</time>
      </trkpt>
      <trkpt lat="43.83706" lon="7.35282">
        <ele>343.6</ele>
        <time>2011-09-04T11:33:05Z</time>
      </trkpt>
      <trkpt lat="43.8371" lon="7.35331">
        <ele>354.3</ele>
        <time>2011-09-04T11:33:09Z</time>
      </trkpt>
      <trkpt lat="43.83705" lon="7.35334">
        <ele>353.7</ele>
        <time>2011-09-04T11:33:11Z</time>
      </trkpt>
      <trkpt lat="43.83683" lon="7.35289">
        <ele>343.7</ele>
        <time>2011-09-04T11:33:19Z</time>
      </trkpt>
      <trkpt lat="43.83712" lon="7.35297">
        <ele>346.4</ele>
        <time>2011-09-04T11:33:27Z</time>
      </trkpt>
      <trkpt lat="43.83699" lon="7.35379">
        <ele>362.9</ele>
        <time>2011-09-04T11:33:35Z</time>
      </trkpt>
      <trkpt lat="43.83758" lon="7.35203">
        <ele>346.1</ele>
        <time>2011-09-04T11:33:55Z</time>
      </trkpt>
      <trkpt lat="43.83859" lon="7.35163">
        <ele>371.7</ele>
        <time>2011-09-04T11:34:06Z</time>
      </trkpt>
      <trkpt lat="43.83878" lon="7.35164">
        <ele>374.9</ele>
        <time>2011-09-04T11:34:10Z</time>
      </trkpt>
      <trkpt lat="43.83955" lon="7.35159">
        <ele>386.5</ele>
        <time>2011-09-04T11:34:18Z</time>
      </trkpt>
      <trkpt lat="43.83976" lon="7.35129">
        <ele>384.5</ele>
        <time>2011-09-04T11:35:44Z</time>
      </trkpt>
      <trkpt lat="43.84088" lon="7.35081">
        <ele>373.2</ele>
        <time>2011-09-04T11:35:53Z</time>
      </trkpt>
      <trkpt lat="43.83955" lon="7.35159">
        <ele>386.5</ele>
        <time>2011-09-04T11:36:10Z</time>
      </trkpt>
      <trkpt lat="43.8418" lon="7.3492">
        <ele>370.4</ele>
        <time>2011-09-04T11:36:24Z</time>
      </trkpt>
      <trkpt lat="43.84171" lon="7.34793">
        <ele>375.9</ele>
        <time>2011-09-04T11:36:31Z</time>
      </trkpt>
      <trkpt lat="43.84174" lon="7.34835">
        <ele>373.3</ele>
        <time>2011-09-04T11:36:37Z</time>
      </trkpt>
      <trkpt lat="43.84151" lon="7.34929">
        <ele>366.6</ele>
        <time>2011-09-04T11:36:59Z</time>
      </trkpt>
      <trkpt lat="43.84126" lon="7.35091">
        <ele>376.8</ele>
        <time>2011-09-04T11:37:34Z</time>
      </trkpt>
      <trkpt lat="43.84163" lon="7.34728">
        <ele>368</ele>
        <time>2011-09-04T11:38:22Z</time>
      </trkpt>
      <trkpt lat="43.84163" lon="7.34728">
        <ele>368</ele>
        <time>2011-09-04T11:38:24Z</time>
      </trkpt>
      <trkpt lat="43.84227" lon="7.34613">
        <ele>380.7</ele>
        <time>2011-09-04T11:38:38Z</time>
      </trkpt>
      <trkpt lat="43.8411" lon="7.35274">
        <ele>398.1</ele>
        <time>2011-09-04T11:39:32Z</time>
      </trkpt>
      <trkpt lat="43.84227" lon="7.34613">
        <ele>380.7</ele>
        <time>2011-09-04T11:39:45Z</time>
      </trkpt>
      <trkpt lat="43.8411" lon="7.35274">
        <ele>398.1</ele>
        <time>2011-09-04T11:39:59Z</time>
      </trkpt>
      <trkpt lat="43.8411" lon="7.35274">
        <ele>398.1</ele>
        <time>2011-09-04T11:40:01Z</time>
      </trkpt>
      <trkpt lat="43.84341" lon="7.3349">
        <ele>66.446114</ele>
        <time>2011-09-04T11:44:45Z</time>
      </trkpt>
      <trkpt lat="43.84341" lon="7.3349">
        <ele>66.446114</ele>
        <time>2011-09-04T11:44:46Z</time>
      </trkpt>
      <trkpt lat="43.84245" lon="7.33451">
        <ele>188.445904</ele>
        <time>2011-09-04T11:45:19Z</time>
      </trkpt>
      <trkpt lat="43.84151" lon="7.33426">
        <ele>265.445724</ele>
        <time>2011-09-04T11:45:40Z</time>
      </trkpt>
      <trkpt lat="43.84031" lon="7.33571">
        <ele>284.445869</ele>
        <time>2011-09-04T11:46:09Z</time>
      </trkpt>
      <trkpt lat="43.83971" lon="7.33669">
        <ele>377.445992</ele>
        <time>2011-09-04T11:46:49Z</time>
      </trkpt>
      <trkpt lat="43.83963" lon="7.33678">
        <ele>384.445995</ele>
        <time>2011-09-04T11:46:53Z</time>
      </trkpt>
      <trkpt lat="43.83988" lon="7.33707">
        <ele>320.446095</ele>
        <time>2011-09-04T11:47:17Z</time>
      </trkpt>
      <trkpt lat="43.8402" lon="7.33699">
        <ele>278.446117</ele>
        <time>2011-09-04T11:47:23Z</time>
      </trkpt>
      <trkpt lat="43.84046" lon="7.33689">
        <ele>252.446133</ele>
        <time>2011-09-04T11:47:29Z</time>
      </trkpt>
      <trkpt lat="43.84076" lon="7.33691">
        <ele>244.446175</ele>
        <time>2011-09-04T11:47:45Z</time>
      </trkpt>
      <trkpt lat="43.84045" lon="7.33731">
        <ele>283.44622</ele>
        <time>2011-09-04T11:48:02Z</time>
      </trkpt>
      <trkpt lat="43.84034" lon="7.33737">
        <ele>288.44622</ele>
        <time>2011-09-04T11:48:04Z</time>
      </trkpt>
      <trkpt lat="43.84018" lon="7.33743">
        <ele>296.446213</ele>
        <time>2011-09-04T11:48:06Z</time>
      </trkpt>
      <trkpt lat="43.83993" lon="7.33749">
        <ele>310.44619</ele>
        <time>2011-09-04T11:48:11Z</time>
      </trkpt>
      <trkpt lat="43.83977" lon="7.33753">
        <ele>328.446178</ele>
        <time>2011-09-04T11:48:17Z</time>
      </trkpt>
      <trkpt lat="43.83966" lon="7.33757">
        <ele>336.446167</ele>
        <time>2011-09-04T11:48:21Z</time>
      </trkpt>
      <trkpt lat="43.83938" lon="7.33771">
        <ele>355.446159</ele>
        <time>2011-09-04T11:48:30Z</time>
      </trkpt>
      <trkpt lat="43.83928" lon="7.33776">
        <ele>359.446159</ele>
        <time>2011-09-04T11:48:33Z</time>
      </trkpt>
      <trkpt lat="43.83901" lon="7.33781">
        <ele>362.446133</ele>
        <time>2011-09-04T11:48:46Z</time>
      </trkpt>
      <trkpt lat="43.83883" lon="7.33753">
        <ele>368.446053</ele>
        <time>2011-09-04T11:49:05Z</time>
      </trkpt>
      <trkpt lat="43.83856" lon="7.33748">
        <ele>379.446007</ele>
        <time>2011-09-04T11:49:26Z</time>
      </trkpt>
      <trkpt lat="43.83834" lon="7.33771">
        <ele>385.446022</ele>
        <time>2011-09-04T11:49:44Z</time>
      </trkpt>
      <trkpt lat="43.83824" lon="7.33793">
        <ele>388.446053</ele>
        <time>2011-09-04T11:49:54Z</time>
      </trkpt>
      <trkpt lat="43.83815" lon="7.3381">
        <ele>394.446079</ele>
        <time>2011-09-04T11:50:01Z</time>
      </trkpt>
      <trkpt lat="43.838" lon="7.33829">
        <ele>405.446098</ele>
        <time>2011-09-04T11:50:22Z</time>
      </trkpt>
      <trkpt lat="43.83785" lon="7.3384">
        <ele>417.446098</ele>
        <time>2011-09-04T11:50:32Z</time>
      </trkpt>
      <trkpt lat="43.83774" lon="7.33837">
        <ele>424.446079</ele>
        <time>2011-09-04T11:50:49Z</time>
      </trkpt>
      <trkpt lat="43.83771" lon="7.33827">
        <ele>426.446056</ele>
        <time>2011-09-04T11:50:54Z</time>
      </trkpt>
      <trkpt lat="43.83766" lon="7.33812">
        <ele>435.446018</ele>
        <time>2011-09-04T11:51:18Z</time>
      </trkpt>
      <trkpt lat="43.83757" lon="7.33815">
        <ele>445.446007</ele>
        <time>2011-09-04T11:51:46Z</time>
      </trkpt>
      <trkpt lat="43.83748" lon="7.33821">
        <ele>449.446011</ele>
        <time>2011-09-04T11:52:49Z</time>
      </trkpt>
      <trkpt lat="43.8374" lon="7.33827">
        <ele>457.446011</ele>
        <time>2011-09-04T11:53:28Z</time>
      </trkpt>
      <trkpt lat="43.8373" lon="7.33833">
        <ele>462.446014</ele>
        <time>2011-09-04T11:54:33Z</time>
      </trkpt>
      <trkpt lat="43.83727" lon="7.33845">
        <ele>463.446033</ele>
        <time>2011-09-04T11:54:41Z</time>
      </trkpt>
      <trkpt lat="43.83726" lon="7.33861">
        <ele>463.446068</ele>
        <time>2011-09-04T11:54:44Z</time>
      </trkpt>
      <trkpt lat="43.8373" lon="7.33877">
        <ele>463.446106</ele>
        <time>2011-09-04T11:54:47Z</time>
      </trkpt>
      <trkpt lat="43.83737" lon="7.3389">
        <ele>464.44614</ele>
        <time>2011-09-04T11:54:50Z</time>
      </trkpt>
      <trkpt lat="43.83743" lon="7.33902">
        <ele>464.446175</ele>
        <time>2011-09-04T11:54:53Z</time>
      </trkpt>
      <trkpt lat="43.8375" lon="7.33916">
        <ele>462.446213</ele>
        <time>2011-09-04T11:54:56Z</time>
      </trkpt>
      <trkpt lat="43.83753" lon="7.3393">
        <ele>462.446243</ele>
        <time>2011-09-04T11:54:58Z</time>
      </trkpt>
      <trkpt lat="43.83751" lon="7.33944">
        <ele>461.446274</ele>
        <time>2011-09-04T11:55:00Z</time>
      </trkpt>
      <trkpt lat="43.83748" lon="7.33957">
        <ele>461.446297</ele>
        <time>2011-09-04T11:55:02Z</time>
      </trkpt>
      <trkpt lat="43.83742" lon="7.33972">
        <ele>461.44632</ele>
        <time>2011-09-04T11:55:05Z</time>
      </trkpt>
      <trkpt lat="43.83717" lon="7.33946">
        <ele>466.446228</ele>
        <time>2011-09-04T11:55:22Z</time>
      </trkpt>
      <trkpt lat="43.83704" lon="7.33941">
        <ele>465.446201</ele>
        <time>2011-09-04T11:55:24Z</time>
      </trkpt>
      <trkpt lat="43.83692" lon="7.33938">
        <ele>464.446182</ele>
        <time>2011-09-04T11:55:26Z</time>
      </trkpt>
      <trkpt lat="43.8368" lon="7.33937">
        <ele>465.446159</ele>
        <time>2011-09-04T11:55:28Z</time>
      </trkpt>
      <trkpt lat="43.83669" lon="7.33934">
        <ele>464.446144</ele>
        <time>2011-09-04T11:55:30Z</time>
      </trkpt>
      <trkpt lat="43.83656" lon="7.33932">
        <ele>464.446125</ele>
        <time>2011-09-04T11:55:32Z</time>
      </trkpt>
      <trkpt lat="43.83643" lon="7.33927">
        <ele>463.446095</ele>
        <time>2011-09-04T11:55:34Z</time>
      </trkpt>
      <trkpt lat="43.83629" lon="7.3392">
        <ele>462.44606</ele>
        <time>2011-09-04T11:55:36Z</time>
      </trkpt>
      <trkpt lat="43.83616" lon="7.33909">
        <ele>462.446022</ele>
        <time>2011-09-04T11:55:38Z</time>
      </trkpt>
      <trkpt lat="43.83604" lon="7.33901">
        <ele>461.445984</ele>
        <time>2011-09-04T11:55:40Z</time>
      </trkpt>
      <trkpt lat="43.83593" lon="7.33894">
        <ele>461.445961</ele>
        <time>2011-09-04T11:55:42Z</time>
      </trkpt>
      <trkpt lat="43.83582" lon="7.33888">
        <ele>460.44593</ele>
        <time>2011-09-04T11:55:44Z</time>
      </trkpt>
      <trkpt lat="43.83571" lon="7.33883">
        <ele>459.445908</ele>
        <time>2011-09-04T11:55:46Z</time>
      </trkpt>
      <trkpt lat="43.83564" lon="7.33875">
        <ele>458.445881</ele>
        <time>2011-09-04T11:55:48Z</time>
      </trkpt>
      <trkpt lat="43.83555" lon="7.33865">
        <ele>458.445847</ele>
        <time>2011-09-04T11:55:51Z</time>
      </trkpt>
      <trkpt lat="43.83548" lon="7.33855">
        <ele>457.445816</ele>
        <time>2011-09-04T11:55:56Z</time>
      </trkpt>
      <trkpt lat="43.83538" lon="7.3385">
        <ele>454.445793</ele>
        <time>2011-09-04T11:56:00Z</time>
      </trkpt>
      <trkpt lat="43.83529" lon="7.33847">
        <ele>453.445774</ele>
        <time>2011-09-04T11:56:04Z</time>
      </trkpt>
      <trkpt lat="43.83521" lon="7.33841">
        <ele>454.445755</ele>
        <time>2011-09-04T11:56:07Z</time>
      </trkpt>
      <trkpt lat="43.83513" lon="7.33832">
        <ele>454.445724</ele>
        <time>2011-09-04T11:56:10Z</time>
      </trkpt>
      <trkpt lat="43.83506" lon="7.33821">
        <ele>454.445694</ele>
        <time>2011-09-04T11:56:13Z</time>
      </trkpt>
      <trkpt lat="43.83497" lon="7.33811">
        <ele>455.445656</ele>
        <time>2011-09-04T11:56:16Z</time>
      </trkpt>
      <trkpt lat="43.83489" lon="7.33801">
        <ele>456.445625</ele>
        <time>2011-09-04T11:56:19Z</time>
      </trkpt>
      <trkpt lat="43.83478" lon="7.33794">
        <ele>456.445595</ele>
        <time>2011-09-04T11:56:22Z</time>
      </trkpt>
      <trkpt lat="43.83466" lon="7.33786">
        <ele>455.445564</ele>
        <time>2011-09-04T11:56:25Z</time>
      </trkpt>
      <trkpt lat="43.83457" lon="7.3378">
        <ele>455.445541</ele>
        <time>2011-09-04T11:56:28Z</time>
      </trkpt>
      <trkpt lat="43.83447" lon="7.33774">
        <ele>454.445518</ele>
        <time>2011-09-04T11:56:31Z</time>
      </trkpt>
      <trkpt lat="43.83436" lon="7.33769">
        <ele>453.445488</ele>
        <time>2011-09-04T11:56:35Z</time>
      </trkpt>
      <trkpt lat="43.83427" lon="7.33765">
        <ele>452.445465</ele>
        <time>2011-09-04T11:56:39Z</time>
      </trkpt>
      <trkpt lat="43.83415" lon="7.33761">
        <ele>453.445442</ele>
        <time>2011-09-04T11:56:43Z</time>
      </trkpt>
      <trkpt lat="43.83407" lon="7.33756">
        <ele>453.445419</ele>
        <time>2011-09-04T11:56:46Z</time>
      </trkpt>
      <trkpt lat="43.8338" lon="7.3373">
        <ele>455.445335</ele>
        <time>2011-09-04T11:57:04Z</time>
      </trkpt>
      <trkpt lat="43.83364" lon="7.3376">
        <ele>466.445374</ele>
        <time>2011-09-04T11:57:48Z</time>
      </trkpt>
      <trkpt lat="43.83361" lon="7.33799">
        <ele>468.44545</ele>
        <time>2011-09-04T11:58:04Z</time>
      </trkpt>
      <trkpt lat="43.83367" lon="7.33829">
        <ele>469.445518</ele>
        <time>2011-09-04T11:58:18Z</time>
      </trkpt>
      <trkpt lat="43.83369" lon="7.33877">
        <ele>472.445625</ele>
        <time>2011-09-04T11:58:55Z</time>
      </trkpt>
      <trkpt lat="43.83366" lon="7.33894">
        <ele>475.445656</ele>
        <time>2011-09-04T11:59:04Z</time>
      </trkpt>
      <trkpt lat="43.83366" lon="7.33908">
        <ele>475.445686</ele>
        <time>2011-09-04T11:59:09Z</time>
      </trkpt>
      <trkpt lat="43.83364" lon="7.33945">
        <ele>481.445763</ele>
        <time>2011-09-04T11:59:30Z</time>
      </trkpt>
      <trkpt lat="43.83357" lon="7.33955">
        <ele>482.44577</ele>
        <time>2011-09-04T11:59:41Z</time>
      </trkpt>
      <trkpt lat="43.83351" lon="7.3398">
        <ele>483.445816</ele>
        <time>2011-09-04T11:59:47Z</time>
      </trkpt>
      <trkpt lat="43.8335" lon="7.34014">
        <ele>484.445885</ele>
        <time>2011-09-04T11:59:54Z</time>
      </trkpt>
      <trkpt lat="43.83354" lon="7.34037">
        <ele>485.445938</ele>
        <time>2011-09-04T12:00:00Z</time>
      </trkpt>
      <trkpt lat="43.83362" lon="7.34046">
        <ele>487.445969</ele>
        <time>2011-09-04T12:00:04Z</time>
      </trkpt>
      <trkpt lat="43.83371" lon="7.34048">
        <ele>487.445984</ele>
        <time>2011-09-04T12:00:07Z</time>
      </trkpt>
      <trkpt lat="43.83381" lon="7.34051">
        <ele>486.445999</ele>
        <time>2011-09-04T12:00:10Z</time>
      </trkpt>
      <trkpt lat="43.83388" lon="7.34053">
        <ele>486.446014</ele>
        <time>2011-09-04T12:00:12Z</time>
      </trkpt>
      <trkpt lat="43.834" lon="7.34056">
        <ele>488.446037</ele>
        <time>2011-09-04T12:00:15Z</time>
      </trkpt>
      <trkpt lat="43.83408" lon="7.3406">
        <ele>489.44606</ele>
        <time>2011-09-04T12:00:18Z</time>
      </trkpt>
      <trkpt lat="43.83416" lon="7.34067">
        <ele>489.446083</ele>
        <time>2011-09-04T12:00:21Z</time>
      </trkpt>
      <trkpt lat="43.83422" lon="7.34078">
        <ele>489.446114</ele>
        <time>2011-09-04T12:00:25Z</time>
      </trkpt>
      <trkpt lat="43.83423" lon="7.34092">
        <ele>487.446144</ele>
        <time>2011-09-04T12:00:30Z</time>
      </trkpt>
      <trkpt lat="43.83422" lon="7.34097">
        <ele>487.446152</ele>
        <time>2011-09-04T12:00:31Z</time>
      </trkpt>
      <trkpt lat="43.83414" lon="7.34144">
        <ele>488.446243</ele>
        <time>2011-09-04T12:00:50Z</time>
      </trkpt>
      <trkpt lat="43.83412" lon="7.34159">
        <ele>489.44627</ele>
        <time>2011-09-04T12:00:53Z</time>
      </trkpt>
      <trkpt lat="43.83408" lon="7.34177">
        <ele>489.446304</ele>
        <time>2011-09-04T12:00:56Z</time>
      </trkpt>
      <trkpt lat="43.83404" lon="7.34195">
        <ele>489.446335</ele>
        <time>2011-09-04T12:00:59Z</time>
      </trkpt>
      <trkpt lat="43.834" lon="7.34211">
        <ele>489.446358</ele>
        <time>2011-09-04T12:01:02Z</time>
      </trkpt>
      <trkpt lat="43.83396" lon="7.34223">
        <ele>489.446381</ele>
        <time>2011-09-04T12:01:05Z</time>
      </trkpt>
      <trkpt lat="43.8339" lon="7.34237">
        <ele>490.446404</ele>
        <time>2011-09-04T12:01:08Z</time>
      </trkpt>
      <trkpt lat="43.83388" lon="7.34251">
        <ele>489.44643</ele>
        <time>2011-09-04T12:01:11Z</time>
      </trkpt>
      <trkpt lat="43.83391" lon="7.34265">
        <ele>490.446465</ele>
        <time>2011-09-04T12:01:14Z</time>
      </trkpt>
      <trkpt lat="43.83396" lon="7.34278">
        <ele>494.446495</ele>
        <time>2011-09-04T12:01:23Z</time>
      </trkpt>
      <trkpt lat="43.83422" lon="7.34297">
        <ele>497.446568</ele>
        <time>2011-09-04T12:01:43Z</time>
      </trkpt>
      <trkpt lat="43.83422" lon="7.34312">
        <ele>494.446602</ele>
        <time>2011-09-04T12:01:48Z</time>
      </trkpt>
      <trkpt lat="43.83419" lon="7.34326">
        <ele>493.446629</ele>
        <time>2011-09-04T12:01:54Z</time>
      </trkpt>
      <trkpt lat="43.83416" lon="7.34338">
        <ele>492.446648</ele>
        <time>2011-09-04T12:01:59Z</time>
      </trkpt>
      <trkpt lat="43.83394" lon="7.3437">
        <ele>491.446682</ele>
        <time>2011-09-04T12:02:13Z</time>
      </trkpt>
      <trkpt lat="43.83383" lon="7.34379">
        <ele>494.446686</ele>
        <time>2011-09-04T12:02:19Z</time>
      </trkpt>
      <trkpt lat="43.83373" lon="7.34386">
        <ele>493.446693</ele>
        <time>2011-09-04T12:02:22Z</time>
      </trkpt>
      <trkpt lat="43.83363" lon="7.34395">
        <ele>495.446697</ele>
        <time>2011-09-04T12:02:25Z</time>
      </trkpt>
      <trkpt lat="43.83359" lon="7.34399">
        <ele>495.446693</ele>
        <time>2011-09-04T12:02:26Z</time>
      </trkpt>
      <trkpt lat="43.83351" lon="7.34405">
        <ele>495.446701</ele>
        <time>2011-09-04T12:02:28Z</time>
      </trkpt>
      <trkpt lat="43.8334" lon="7.34413">
        <ele>496.446701</ele>
        <time>2011-09-04T12:02:31Z</time>
      </trkpt>
      <trkpt lat="43.83332" lon="7.34419">
        <ele>496.446705</ele>
        <time>2011-09-04T12:02:34Z</time>
      </trkpt>
      <trkpt lat="43.83324" lon="7.34427">
        <ele>494.446709</ele>
        <time>2011-09-04T12:02:46Z</time>
      </trkpt>
      <trkpt lat="43.8333" lon="7.34437">
        <ele>491.446743</ele>
        <time>2011-09-04T12:03:14Z</time>
      </trkpt>
      <trkpt lat="43.83327" lon="7.34446">
        <ele>479.446754</ele>
        <time>2011-09-04T12:03:29Z</time>
      </trkpt>
      <trkpt lat="43.8332" lon="7.34457">
        <ele>472.44677</ele>
        <time>2011-09-04T12:04:00Z</time>
      </trkpt>
      <trkpt lat="43.83329" lon="7.34457">
        <ele>463.446777</ele>
        <time>2011-09-04T12:05:42Z</time>
      </trkpt>
      <trkpt lat="43.83329" lon="7.34457">
        <ele>463.446777</ele>
        <time>2011-09-04T12:05:46Z</time>
      </trkpt>
      <trkpt lat="43.83323" lon="7.34466">
        <ele>480.446793</ele>
        <time>2011-09-04T12:07:24Z</time>
      </trkpt>
      <trkpt lat="43.83321" lon="7.34454">
        <ele>474.446762</ele>
        <time>2011-09-04T12:08:07Z</time>
      </trkpt>
      <trkpt lat="43.83312" lon="7.3446">
        <ele>470.446762</ele>
        <time>2011-09-04T12:08:42Z</time>
      </trkpt>
      <trkpt lat="43.83304" lon="7.34465">
        <ele>471.446762</ele>
        <time>2011-09-04T12:08:47Z</time>
      </trkpt>
      <trkpt lat="43.83294" lon="7.3447">
        <ele>470.446762</ele>
        <time>2011-09-04T12:08:52Z</time>
      </trkpt>
      <trkpt lat="43.83284" lon="7.34476">
        <ele>471.446762</ele>
        <time>2011-09-04T12:08:58Z</time>
      </trkpt>
      <trkpt lat="43.83269" lon="7.34488">
        <ele>469.446762</ele>
        <time>2011-09-04T12:09:07Z</time>
      </trkpt>
      <trkpt lat="43.83262" lon="7.34495">
        <ele>470.44677</ele>
        <time>2011-09-04T12:09:11Z</time>
      </trkpt>
      <trkpt lat="43.8326" lon="7.34497">
        <ele>470.44677</ele>
        <time>2011-09-04T12:09:12Z</time>
      </trkpt>
      <trkpt lat="43.83252" lon="7.34504">
        <ele>471.446777</ele>
        <time>2011-09-04T12:09:16Z</time>
      </trkpt>
      <trkpt lat="43.83244" lon="7.34514">
        <ele>473.446785</ele>
        <time>2011-09-04T12:09:21Z</time>
      </trkpt>
      <trkpt lat="43.83235" lon="7.34528">
        <ele>479.4468</ele>
        <time>2011-09-04T12:09:29Z</time>
      </trkpt>
      <trkpt lat="43.83228" lon="7.3454">
        <ele>485.446819</ele>
        <time>2011-09-04T12:09:35Z</time>
      </trkpt>
      <trkpt lat="43.8322" lon="7.34549">
        <ele>487.446827</ele>
        <time>2011-09-04T12:09:41Z</time>
      </trkpt>
      <trkpt lat="43.83207" lon="7.34558">
        <ele>489.446831</ele>
        <time>2011-09-04T12:09:46Z</time>
      </trkpt>
      <trkpt lat="43.83195" lon="7.34564">
        <ele>490.446823</ele>
        <time>2011-09-04T12:09:49Z</time>
      </trkpt>
      <trkpt lat="43.83182" lon="7.34566">
        <ele>490.446808</ele>
        <time>2011-09-04T12:09:51Z</time>
      </trkpt>
      <trkpt lat="43.83166" lon="7.34569">
        <ele>491.446796</ele>
        <time>2011-09-04T12:09:53Z</time>
      </trkpt>
      <trkpt lat="43.83153" lon="7.34572">
        <ele>491.446785</ele>
        <time>2011-09-04T12:09:55Z</time>
      </trkpt>
      <trkpt lat="43.83141" lon="7.34575">
        <ele>491.446777</ele>
        <time>2011-09-04T12:09:57Z</time>
      </trkpt>
      <trkpt lat="43.83128" lon="7.34572">
        <ele>491.446751</ele>
        <time>2011-09-04T12:09:59Z</time>
      </trkpt>
      <trkpt lat="43.83116" lon="7.34562">
        <ele>491.446716</ele>
        <time>2011-09-04T12:10:01Z</time>
      </trkpt>
      <trkpt lat="43.83106" lon="7.34555">
        <ele>491.446686</ele>
        <time>2011-09-04T12:10:03Z</time>
      </trkpt>
      <trkpt lat="43.83096" lon="7.34554">
        <ele>491.446674</ele>
        <time>2011-09-04T12:10:05Z</time>
      </trkpt>
      <trkpt lat="43.83086" lon="7.34554">
        <ele>490.446663</ele>
        <time>2011-09-04T12:10:07Z</time>
      </trkpt>
      <trkpt lat="43.83081" lon="7.34554">
        <ele>490.446651</ele>
        <time>2011-09-04T12:10:08Z</time>
      </trkpt>
      <trkpt lat="43.83071" lon="7.34556">
        <ele>490.446644</ele>
        <time>2011-09-04T12:10:10Z</time>
      </trkpt>
      <trkpt lat="43.83059" lon="7.34558">
        <ele>490.446632</ele>
        <time>2011-09-04T12:10:12Z</time>
      </trkpt>
      <trkpt lat="43.83054" lon="7.34557">
        <ele>490.446625</ele>
        <time>2011-09-04T12:10:13Z</time>
      </trkpt>
      <trkpt lat="43.83043" lon="7.34556">
        <ele>490.446609</ele>
        <time>2011-09-04T12:10:15Z</time>
      </trkpt>
      <trkpt lat="43.83033" lon="7.34551">
        <ele>490.446579</ele>
        <time>2011-09-04T12:10:17Z</time>
      </trkpt>
      <trkpt lat="43.83023" lon="7.34544">
        <ele>490.446556</ele>
        <time>2011-09-04T12:10:19Z</time>
      </trkpt>
      <trkpt lat="43.83016" lon="7.34532">
        <ele>489.446518</ele>
        <time>2011-09-04T12:10:21Z</time>
      </trkpt>
      <trkpt lat="43.83014" lon="7.34526">
        <ele>489.446503</ele>
        <time>2011-09-04T12:10:22Z</time>
      </trkpt>
      <trkpt lat="43.83009" lon="7.3451">
        <ele>487.446465</ele>
        <time>2011-09-04T12:10:25Z</time>
      </trkpt>
      <trkpt lat="43.83012" lon="7.34495">
        <ele>484.446438</ele>
        <time>2011-09-04T12:10:28Z</time>
      </trkpt>
      <trkpt lat="43.83016" lon="7.34483">
        <ele>481.446419</ele>
        <time>2011-09-04T12:10:30Z</time>
      </trkpt>
      <trkpt lat="43.83019" lon="7.34478">
        <ele>480.446411</ele>
        <time>2011-09-04T12:10:31Z</time>
      </trkpt>
      <trkpt lat="43.8302" lon="7.34464">
        <ele>477.446388</ele>
        <time>2011-09-04T12:10:34Z</time>
      </trkpt>
      <trkpt lat="43.83011" lon="7.34462">
        <ele>476.446369</ele>
        <time>2011-09-04T12:10:36Z</time>
      </trkpt>
      <trkpt lat="43.83" lon="7.34458">
        <ele>473.446346</ele>
        <time>2011-09-04T12:10:38Z</time>
      </trkpt>
      <trkpt lat="43.82993" lon="7.34447">
        <ele>471.446312</ele>
        <time>2011-09-04T12:10:41Z</time>
      </trkpt>
      <trkpt lat="43.82994" lon="7.34434">
        <ele>470.446289</ele>
        <time>2011-09-04T12:10:43Z</time>
      </trkpt>
      <trkpt lat="43.82997" lon="7.34419">
        <ele>469.446259</ele>
        <time>2011-09-04T12:10:45Z</time>
      </trkpt>
      <trkpt lat="43.82999" lon="7.34405">
        <ele>468.446228</ele>
        <time>2011-09-04T12:10:47Z</time>
      </trkpt>
      <trkpt lat="43.83003" lon="7.34389">
        <ele>467.446205</ele>
        <time>2011-09-04T12:10:49Z</time>
      </trkpt>
      <trkpt lat="43.83007" lon="7.34373">
        <ele>466.446175</ele>
        <time>2011-09-04T12:10:51Z</time>
      </trkpt>
      <trkpt lat="43.82999" lon="7.3436">
        <ele>465.446136</ele>
        <time>2011-09-04T12:10:54Z</time>
      </trkpt>
      <trkpt lat="43.82991" lon="7.34362">
        <ele>464.446133</ele>
        <time>2011-09-04T12:10:56Z</time>
      </trkpt>
      <trkpt lat="43.82982" lon="7.34363">
        <ele>464.446125</ele>
        <time>2011-09-04T12:10:58Z</time>
      </trkpt>
      <trkpt lat="43.82973" lon="7.34371">
        <ele>465.446129</ele>
        <time>2011-09-04T12:11:00Z</time>
      </trkpt>
      <trkpt lat="43.82964" lon="7.34383">
        <ele>465.44614</ele>
        <time>2011-09-04T12:11:02Z</time>
      </trkpt>
      <trkpt lat="43.82957" lon="7.34395">
        <ele>466.446152</ele>
        <time>2011-09-04T12:11:04Z</time>
      </trkpt>
      <trkpt lat="43.8295" lon="7.34407">
        <ele>466.446175</ele>
        <time>2011-09-04T12:11:06Z</time>
      </trkpt>
      <trkpt lat="43.82942" lon="7.34418">
        <ele>466.446186</ele>
        <time>2011-09-04T12:11:08Z</time>
      </trkpt>
      <trkpt lat="43.82933" lon="7.34426">
        <ele>465.44619</ele>
        <time>2011-09-04T12:11:10Z</time>
      </trkpt>
      <trkpt lat="43.82923" lon="7.34426">
        <ele>465.446175</ele>
        <time>2011-09-04T12:11:12Z</time>
      </trkpt>
      <trkpt lat="43.82914" lon="7.34425">
        <ele>465.446159</ele>
        <time>2011-09-04T12:11:14Z</time>
      </trkpt>
      <trkpt lat="43.82905" lon="7.34418">
        <ele>466.446133</ele>
        <time>2011-09-04T12:11:16Z</time>
      </trkpt>
      <trkpt lat="43.82901" lon="7.344">
        <ele>466.446095</ele>
        <time>2011-09-04T12:11:18Z</time>
      </trkpt>
      <trkpt lat="43.829" lon="7.34384">
        <ele>466.44606</ele>
        <time>2011-09-04T12:11:20Z</time>
      </trkpt>
      <trkpt lat="43.82896" lon="7.34372">
        <ele>466.446022</ele>
        <time>2011-09-04T12:11:22Z</time>
      </trkpt>
      <trkpt lat="43.82885" lon="7.34361">
        <ele>466.445992</ele>
        <time>2011-09-04T12:11:25Z</time>
      </trkpt>
      <trkpt lat="43.82876" lon="7.34351">
        <ele>466.445961</ele>
        <time>2011-09-04T12:11:27Z</time>
      </trkpt>
      <trkpt lat="43.82867" lon="7.34341">
        <ele>464.445923</ele>
        <time>2011-09-04T12:11:29Z</time>
      </trkpt>
      <trkpt lat="43.82857" lon="7.34329">
        <ele>463.445889</ele>
        <time>2011-09-04T12:11:31Z</time>
      </trkpt>
      <trkpt lat="43.82845" lon="7.34317">
        <ele>463.445847</ele>
        <time>2011-09-04T12:11:33Z</time>
      </trkpt>
      <trkpt lat="43.82836" lon="7.34305">
        <ele>464.445808</ele>
        <time>2011-09-04T12:11:35Z</time>
      </trkpt>
      <trkpt lat="43.82827" lon="7.34297">
        <ele>465.445778</ele>
        <time>2011-09-04T12:11:37Z</time>
      </trkpt>
      <trkpt lat="43.82818" lon="7.34292">
        <ele>465.445759</ele>
        <time>2011-09-04T12:11:39Z</time>
      </trkpt>
      <trkpt lat="43.82808" lon="7.34289">
        <ele>466.445736</ele>
        <time>2011-09-04T12:11:41Z</time>
      </trkpt>
      <trkpt lat="43.82796" lon="7.3429">
        <ele>465.445721</ele>
        <time>2011-09-04T12:11:44Z</time>
      </trkpt>
      <trkpt lat="43.82783" lon="7.34295">
        <ele>464.445717</ele>
        <time>2011-09-04T12:11:47Z</time>
      </trkpt>
      <trkpt lat="43.82776" lon="7.34308">
        <ele>462.445732</ele>
        <time>2011-09-04T12:11:51Z</time>
      </trkpt>
      <trkpt lat="43.82769" lon="7.34321">
        <ele>462.445755</ele>
        <time>2011-09-04T12:11:53Z</time>
      </trkpt>
      <trkpt lat="43.82763" lon="7.34336">
        <ele>462.445774</ele>
        <time>2011-09-04T12:11:55Z</time>
      </trkpt>
      <trkpt lat="43.82758" lon="7.34352">
        <ele>461.445801</ele>
        <time>2011-09-04T12:11:57Z</time>
      </trkpt>
      <trkpt lat="43.82754" lon="7.34364">
        <ele>460.445824</ele>
        <time>2011-09-04T12:11:59Z</time>
      </trkpt>
      <trkpt lat="43.82754" lon="7.3438">
        <ele>459.445854</ele>
        <time>2011-09-04T12:12:02Z</time>
      </trkpt>
      <trkpt lat="43.82786" lon="7.34387">
        <ele>459.445911</ele>
        <time>2011-09-04T12:12:13Z</time>
      </trkpt>
      <trkpt lat="43.82812" lon="7.3437">
        <ele>461.445911</ele>
        <time>2011-09-04T12:12:31Z</time>
      </trkpt>
      <trkpt lat="43.82834" lon="7.34348">
        <ele>461.445896</ele>
        <time>2011-09-04T12:12:43Z</time>
      </trkpt>
      <trkpt lat="43.82807" lon="7.34351">
        <ele>463.445869</ele>
        <time>2011-09-04T12:13:22Z</time>
      </trkpt>
      <trkpt lat="43.82782" lon="7.34338">
        <ele>469.445805</ele>
        <time>2011-09-04T12:14:08Z</time>
      </trkpt>
      <trkpt lat="43.82778" lon="7.34324">
        <ele>474.44577</ele>
        <time>2011-09-04T12:15:59Z</time>
      </trkpt>
      <trkpt lat="43.8278" lon="7.34311">
        <ele>475.445747</ele>
        <time>2011-09-04T12:16:04Z</time>
      </trkpt>
      <trkpt lat="43.82768" lon="7.34308">
        <ele>473.445724</ele>
        <time>2011-09-04T12:16:21Z</time>
      </trkpt>
      <trkpt lat="43.82763" lon="7.34273">
        <ele>478.445641</ele>
        <time>2011-09-04T12:16:53Z</time>
      </trkpt>
      <trkpt lat="43.82761" lon="7.3423">
        <ele>481.445549</ele>
        <time>2011-09-04T12:17:09Z</time>
      </trkpt>
      <trkpt lat="43.82759" lon="7.34213">
        <ele>482.445511</ele>
        <time>2011-09-04T12:17:13Z</time>
      </trkpt>
      <trkpt lat="43.82751" lon="7.34176">
        <ele>487.445423</ele>
        <time>2011-09-04T12:17:29Z</time>
      </trkpt>
      <trkpt lat="43.82734" lon="7.34143">
        <ele>490.445335</ele>
        <time>2011-09-04T12:17:40Z</time>
      </trkpt>
      <trkpt lat="43.82707" lon="7.34149">
        <ele>489.445309</ele>
        <time>2011-09-04T12:17:53Z</time>
      </trkpt>
      <trkpt lat="43.82699" lon="7.34162">
        <ele>488.445328</ele>
        <time>2011-09-04T12:18:01Z</time>
      </trkpt>
      <trkpt lat="43.8269" lon="7.34209">
        <ele>491.445412</ele>
        <time>2011-09-04T12:18:17Z</time>
      </trkpt>
      <trkpt lat="43.82687" lon="7.34248">
        <ele>494.445488</ele>
        <time>2011-09-04T12:18:36Z</time>
      </trkpt>
      <trkpt lat="43.82687" lon="7.34272">
        <ele>495.445541</ele>
        <time>2011-09-04T12:18:47Z</time>
      </trkpt>
      <trkpt lat="43.827" lon="7.34258">
        <ele>497.445534</ele>
        <time>2011-09-04T12:19:12Z</time>
      </trkpt>
      <trkpt lat="43.82701" lon="7.34217">
        <ele>499.445442</ele>
        <time>2011-09-04T12:19:32Z</time>
      </trkpt>
      <trkpt lat="43.82695" lon="7.34177">
        <ele>502.445354</ele>
        <time>2011-09-04T12:19:41Z</time>
      </trkpt>
      <trkpt lat="43.82683" lon="7.34142">
        <ele>504.445267</ele>
        <time>2011-09-04T12:19:55Z</time>
      </trkpt>
      <trkpt lat="43.82677" lon="7.34104">
        <ele>504.445179</ele>
        <time>2011-09-04T12:20:12Z</time>
      </trkpt>
      <trkpt lat="43.82673" lon="7.34066">
        <ele>504.445091</ele>
        <time>2011-09-04T12:20:23Z</time>
      </trkpt>
      <trkpt lat="43.82647" lon="7.34082">
        <ele>514.445091</ele>
        <time>2011-09-04T12:20:52Z</time>
      </trkpt>
      <trkpt lat="43.82633" lon="7.34116">
        <ele>519.445145</ele>
        <time>2011-09-04T12:21:12Z</time>
      </trkpt>
      <trkpt lat="43.82629" lon="7.34156">
        <ele>520.445221</ele>
        <time>2011-09-04T12:21:25Z</time>
      </trkpt>
      <trkpt lat="43.82627" lon="7.34198">
        <ele>523.445305</ele>
        <time>2011-09-04T12:21:33Z</time>
      </trkpt>
      <trkpt lat="43.82629" lon="7.34238">
        <ele>522.445393</ele>
        <time>2011-09-04T12:21:43Z</time>
      </trkpt>
      <trkpt lat="43.82635" lon="7.34276">
        <ele>521.44548</ele>
        <time>2011-09-04T12:21:56Z</time>
      </trkpt>
      <trkpt lat="43.82645" lon="7.34276">
        <ele>522.445492</ele>
        <time>2011-09-04T12:22:13Z</time>
      </trkpt>
      <trkpt lat="43.82648" lon="7.34237">
        <ele>523.445415</ele>
        <time>2011-09-04T12:22:35Z</time>
      </trkpt>
      <trkpt lat="43.82643" lon="7.34197">
        <ele>525.445328</ele>
        <time>2011-09-04T12:22:51Z</time>
      </trkpt>
      <trkpt lat="43.82631" lon="7.34134">
        <ele>528.445179</ele>
        <time>2011-09-04T12:23:11Z</time>
      </trkpt>
      <trkpt lat="43.82631" lon="7.34134">
        <ele>528.445179</ele>
        <time>2011-09-04T12:23:13Z</time>
      </trkpt>
      <trkpt lat="43.82618" lon="7.341">
        <ele>531.445091</ele>
        <time>2011-09-04T12:23:26Z</time>
      </trkpt>
      <trkpt lat="43.82604" lon="7.34066">
        <ele>533.445</ele>
        <time>2011-09-04T12:23:40Z</time>
      </trkpt>
      <trkpt lat="43.82584" lon="7.34036">
        <ele>535.444908</ele>
        <time>2011-09-04T12:23:47Z</time>
      </trkpt>
      <trkpt lat="43.82565" lon="7.34008">
        <ele>537.444832</ele>
        <time>2011-09-04T12:23:57Z</time>
      </trkpt>
      <trkpt lat="43.82554" lon="7.33973">
        <ele>541.44474</ele>
        <time>2011-09-04T12:24:14Z</time>
      </trkpt>
      <trkpt lat="43.82548" lon="7.33935">
        <ele>544.444656</ele>
        <time>2011-09-04T12:24:31Z</time>
      </trkpt>
      <trkpt lat="43.82546" lon="7.33897">
        <ele>546.444569</ele>
        <time>2011-09-04T12:24:46Z</time>
      </trkpt>
      <trkpt lat="43.82542" lon="7.33857">
        <ele>549.444481</ele>
        <time>2011-09-04T12:25:03Z</time>
      </trkpt>
      <trkpt lat="43.8254" lon="7.33818">
        <ele>550.444397</ele>
        <time>2011-09-04T12:25:12Z</time>
      </trkpt>
      <trkpt lat="43.82546" lon="7.33777">
        <ele>551.444324</ele>
        <time>2011-09-04T12:25:20Z</time>
      </trkpt>
      <trkpt lat="43.82567" lon="7.33746">
        <ele>554.444283</ele>
        <time>2011-09-04T12:25:29Z</time>
      </trkpt>
      <trkpt lat="43.8259" lon="7.33719">
        <ele>555.444256</ele>
        <time>2011-09-04T12:25:34Z</time>
      </trkpt>
      <trkpt lat="43.82602" lon="7.33703">
        <ele>555.444241</ele>
        <time>2011-09-04T12:25:37Z</time>
      </trkpt>
      <trkpt lat="43.82609" lon="7.33691">
        <ele>555.444221</ele>
        <time>2011-09-04T12:25:39Z</time>
      </trkpt>
      <trkpt lat="43.82616" lon="7.33681">
        <ele>555.444214</ele>
        <time>2011-09-04T12:25:41Z</time>
      </trkpt>
      <trkpt lat="43.82626" lon="7.3367">
        <ele>555.444202</ele>
        <time>2011-09-04T12:25:43Z</time>
      </trkpt>
      <trkpt lat="43.82634" lon="7.33659">
        <ele>555.444191</ele>
        <time>2011-09-04T12:25:46Z</time>
      </trkpt>
      <trkpt lat="43.82642" lon="7.33646">
        <ele>555.444176</ele>
        <time>2011-09-04T12:25:48Z</time>
      </trkpt>
      <trkpt lat="43.8265" lon="7.33634">
        <ele>555.44416</ele>
        <time>2011-09-04T12:25:51Z</time>
      </trkpt>
      <trkpt lat="43.82656" lon="7.33625">
        <ele>554.444153</ele>
        <time>2011-09-04T12:25:55Z</time>
      </trkpt>
      <trkpt lat="43.82665" lon="7.33609">
        <ele>552.44413</ele>
        <time>2011-09-04T12:25:58Z</time>
      </trkpt>
      <trkpt lat="43.8267" lon="7.33592">
        <ele>551.444099</ele>
        <time>2011-09-04T12:26:00Z</time>
      </trkpt>
      <trkpt lat="43.82676" lon="7.3357">
        <ele>550.444061</ele>
        <time>2011-09-04T12:26:02Z</time>
      </trkpt>
      <trkpt lat="43.82682" lon="7.33547">
        <ele>550.444023</ele>
        <time>2011-09-04T12:26:04Z</time>
      </trkpt>
      <trkpt lat="43.82686" lon="7.33527">
        <ele>550.443985</ele>
        <time>2011-09-04T12:26:06Z</time>
      </trkpt>
      <trkpt lat="43.82691" lon="7.33503">
        <ele>549.443943</ele>
        <time>2011-09-04T12:26:08Z</time>
      </trkpt>
      <trkpt lat="43.82695" lon="7.3348">
        <ele>549.443901</ele>
        <time>2011-09-04T12:26:10Z</time>
      </trkpt>
      <trkpt lat="43.82699" lon="7.33457">
        <ele>549.443855</ele>
        <time>2011-09-04T12:26:12Z</time>
      </trkpt>
      <trkpt lat="43.82702" lon="7.33436">
        <ele>549.443817</ele>
        <time>2011-09-04T12:26:14Z</time>
      </trkpt>
      <trkpt lat="43.82705" lon="7.33418">
        <ele>548.443779</ele>
        <time>2011-09-04T12:26:16Z</time>
      </trkpt>
      <trkpt lat="43.82706" lon="7.334">
        <ele>548.443748</ele>
        <time>2011-09-04T12:26:19Z</time>
      </trkpt>
      <trkpt lat="43.82709" lon="7.33383">
        <ele>549.443714</ele>
        <time>2011-09-04T12:26:22Z</time>
      </trkpt>
      <trkpt lat="43.82705" lon="7.33371">
        <ele>550.443687</ele>
        <time>2011-09-04T12:26:24Z</time>
      </trkpt>
      <trkpt lat="43.827" lon="7.33354">
        <ele>550.443645</ele>
        <time>2011-09-04T12:26:27Z</time>
      </trkpt>
      <trkpt lat="43.82695" lon="7.33337">
        <ele>549.4436</ele>
        <time>2011-09-04T12:26:30Z</time>
      </trkpt>
      <trkpt lat="43.82688" lon="7.33327">
        <ele>549.443569</ele>
        <time>2011-09-04T12:26:32Z</time>
      </trkpt>
      <trkpt lat="43.82681" lon="7.33319">
        <ele>548.443542</ele>
        <time>2011-09-04T12:26:34Z</time>
      </trkpt>
      <trkpt lat="43.82673" lon="7.33312">
        <ele>548.44352</ele>
        <time>2011-09-04T12:26:37Z</time>
      </trkpt>
      <trkpt lat="43.82664" lon="7.33307">
        <ele>548.443497</ele>
        <time>2011-09-04T12:26:40Z</time>
      </trkpt>
      <trkpt lat="43.82654" lon="7.33302">
        <ele>548.44347</ele>
        <time>2011-09-04T12:26:43Z</time>
      </trkpt>
      <trkpt lat="43.82626" lon="7.33288">
        <ele>547.443405</ele>
        <time>2011-09-04T12:27:05Z</time>
      </trkpt>
      <trkpt lat="43.82606" lon="7.33259">
        <ele>544.443321</ele>
        <time>2011-09-04T12:27:29Z</time>
      </trkpt>
      <trkpt lat="43.82606" lon="7.33259">
        <ele>544.443321</ele>
        <time>2011-09-04T12:27:30Z</time>
      </trkpt>
      <trkpt lat="43.82605" lon="7.33241">
        <ele>543.443283</ele>
        <time>2011-09-04T12:27:32Z</time>
      </trkpt>
      <trkpt lat="43.82604" lon="7.33223">
        <ele>543.443241</ele>
        <time>2011-09-04T12:27:34Z</time>
      </trkpt>
      <trkpt lat="43.82603" lon="7.33209">
        <ele>544.443211</ele>
        <time>2011-09-04T12:27:36Z</time>
      </trkpt>
      <trkpt lat="43.82598" lon="7.33194">
        <ele>543.443176</ele>
        <time>2011-09-04T12:27:44Z</time>
      </trkpt>
      <trkpt lat="43.82596" lon="7.33181">
        <ele>544.443146</ele>
        <time>2011-09-04T12:27:49Z</time>
      </trkpt>
      <trkpt lat="43.82591" lon="7.33138">
        <ele>547.443047</ele>
        <time>2011-09-04T12:28:06Z</time>
      </trkpt>
      <trkpt lat="43.82569" lon="7.33093">
        <ele>547.442924</ele>
        <time>2011-09-04T12:28:17Z</time>
      </trkpt>
      <trkpt lat="43.82544" lon="7.33074">
        <ele>547.442852</ele>
        <time>2011-09-04T12:28:20Z</time>
      </trkpt>
      <trkpt lat="43.8251" lon="7.33055">
        <ele>547.442764</ele>
        <time>2011-09-04T12:28:25Z</time>
      </trkpt>
      <trkpt lat="43.82495" lon="7.33045">
        <ele>546.442726</ele>
        <time>2011-09-04T12:28:27Z</time>
      </trkpt>
      <trkpt lat="43.82486" lon="7.3304">
        <ele>545.442703</ele>
        <time>2011-09-04T12:28:29Z</time>
      </trkpt>
      <trkpt lat="43.82478" lon="7.3303">
        <ele>545.442673</ele>
        <time>2011-09-04T12:28:30Z</time>
      </trkpt>
      <trkpt lat="43.82467" lon="7.33016">
        <ele>545.442627</ele>
        <time>2011-09-04T12:28:32Z</time>
      </trkpt>
      <trkpt lat="43.82455" lon="7.33008">
        <ele>544.442589</ele>
        <time>2011-09-04T12:28:34Z</time>
      </trkpt>
      <trkpt lat="43.82444" lon="7.32999">
        <ele>544.442558</ele>
        <time>2011-09-04T12:28:36Z</time>
      </trkpt>
      <trkpt lat="43.82435" lon="7.32991">
        <ele>543.442528</ele>
        <time>2011-09-04T12:28:38Z</time>
      </trkpt>
      <trkpt lat="43.82427" lon="7.32968">
        <ele>541.442471</ele>
        <time>2011-09-04T12:28:51Z</time>
      </trkpt>
      <trkpt lat="43.82453" lon="7.32952">
        <ele>548.442474</ele>
        <time>2011-09-04T12:29:36Z</time>
      </trkpt>
      <trkpt lat="43.82469" lon="7.32919">
        <ele>552.442429</ele>
        <time>2011-09-04T12:29:51Z</time>
      </trkpt>
      <trkpt lat="43.82487" lon="7.32895">
        <ele>555.442402</ele>
        <time>2011-09-04T12:30:07Z</time>
      </trkpt>
      <trkpt lat="43.82485" lon="7.32881">
        <ele>552.442371</ele>
        <time>2011-09-04T12:33:17Z</time>
      </trkpt>
      <trkpt lat="43.82483" lon="7.32854">
        <ele>549.44231</ele>
        <time>2011-09-04T12:34:30Z</time>
      </trkpt>
      <trkpt lat="43.82488" lon="7.32828">
        <ele>549.442261</ele>
        <time>2011-09-04T12:34:40Z</time>
      </trkpt>
      <trkpt lat="43.82488" lon="7.32814">
        <ele>548.442238</ele>
        <time>2011-09-04T12:34:43Z</time>
      </trkpt>
      <trkpt lat="43.82492" lon="7.32802">
        <ele>547.442215</ele>
        <time>2011-09-04T12:34:48Z</time>
      </trkpt>
      <trkpt lat="43.82499" lon="7.3281">
        <ele>546.442238</ele>
        <time>2011-09-04T12:34:52Z</time>
      </trkpt>
      <trkpt lat="43.82502" lon="7.32824">
        <ele>545.442276</ele>
        <time>2011-09-04T12:34:56Z</time>
      </trkpt>
      <trkpt lat="43.82503" lon="7.3283">
        <ele>544.442287</ele>
        <time>2011-09-04T12:34:58Z</time>
      </trkpt>
      <trkpt lat="43.82504" lon="7.32843">
        <ele>544.442314</ele>
        <time>2011-09-04T12:35:02Z</time>
      </trkpt>
      <trkpt lat="43.82504" lon="7.32857">
        <ele>544.442345</ele>
        <time>2011-09-04T12:35:06Z</time>
      </trkpt>
      <trkpt lat="43.82504" lon="7.3287">
        <ele>545.442371</ele>
        <time>2011-09-04T12:35:10Z</time>
      </trkpt>
      <trkpt lat="43.82505" lon="7.32883">
        <ele>545.442398</ele>
        <time>2011-09-04T12:35:14Z</time>
      </trkpt>
      <trkpt lat="43.82506" lon="7.32898">
        <ele>546.442436</ele>
        <time>2011-09-04T12:35:19Z</time>
      </trkpt>
      <trkpt lat="43.82508" lon="7.32913">
        <ele>548.442467</ele>
        <time>2011-09-04T12:35:24Z</time>
      </trkpt>
      <trkpt lat="43.82516" lon="7.32925">
        <ele>549.442505</ele>
        <time>2011-09-04T12:35:40Z</time>
      </trkpt>
      <trkpt lat="43.82514" lon="7.32939">
        <ele>552.442528</ele>
        <time>2011-09-04T12:35:50Z</time>
      </trkpt>
      <trkpt lat="43.82513" lon="7.32954">
        <ele>552.442558</ele>
        <time>2011-09-04T12:35:55Z</time>
      </trkpt>
      <trkpt lat="43.82512" lon="7.32969">
        <ele>553.442589</ele>
        <time>2011-09-04T12:36:00Z</time>
      </trkpt>
      <trkpt lat="43.82514" lon="7.32989">
        <ele>556.442635</ele>
        <time>2011-09-04T12:36:09Z</time>
      </trkpt>
      <trkpt lat="43.82519" lon="7.33">
        <ele>557.442665</ele>
        <time>2011-09-04T12:36:14Z</time>
      </trkpt>
      <trkpt lat="43.82521" lon="7.33006">
        <ele>558.442677</ele>
        <time>2011-09-04T12:36:19Z</time>
      </trkpt>
      <trkpt lat="43.82528" lon="7.33017">
        <ele>559.442711</ele>
        <time>2011-09-04T12:36:21Z</time>
      </trkpt>
      <trkpt lat="43.82531" lon="7.33022">
        <ele>559.442726</ele>
        <time>2011-09-04T12:36:23Z</time>
      </trkpt>
      <trkpt lat="43.82538" lon="7.3303">
        <ele>559.442749</ele>
        <time>2011-09-04T12:36:27Z</time>
      </trkpt>
      <trkpt lat="43.8254" lon="7.33032">
        <ele>559.442757</ele>
        <time>2011-09-04T12:36:28Z</time>
      </trkpt>
      <trkpt lat="43.8255" lon="7.33039">
        <ele>559.442787</ele>
        <time>2011-09-04T12:36:33Z</time>
      </trkpt>
      <trkpt lat="43.82554" lon="7.33042">
        <ele>559.442795</ele>
        <time>2011-09-04T12:36:35Z</time>
      </trkpt>
      <trkpt lat="43.82562" lon="7.33047">
        <ele>559.442818</ele>
        <time>2011-09-04T12:36:39Z</time>
      </trkpt>
      <trkpt lat="43.82569" lon="7.33051">
        <ele>559.442837</ele>
        <time>2011-09-04T12:36:42Z</time>
      </trkpt>
      <trkpt lat="43.82577" lon="7.33057">
        <ele>561.442856</ele>
        <time>2011-09-04T12:36:46Z</time>
      </trkpt>
      <trkpt lat="43.82584" lon="7.33065">
        <ele>561.442886</ele>
        <time>2011-09-04T12:36:50Z</time>
      </trkpt>
      <trkpt lat="43.82586" lon="7.33067">
        <ele>561.44289</ele>
        <time>2011-09-04T12:36:51Z</time>
      </trkpt>
      <trkpt lat="43.82592" lon="7.33077">
        <ele>562.442924</ele>
        <time>2011-09-04T12:36:55Z</time>
      </trkpt>
      <trkpt lat="43.82597" lon="7.33089">
        <ele>562.442955</ele>
        <time>2011-09-04T12:36:59Z</time>
      </trkpt>
      <trkpt lat="43.82603" lon="7.331">
        <ele>561.442986</ele>
        <time>2011-09-04T12:37:03Z</time>
      </trkpt>
      <trkpt lat="43.8261" lon="7.33112">
        <ele>561.443016</ele>
        <time>2011-09-04T12:37:08Z</time>
      </trkpt>
      <trkpt lat="43.82618" lon="7.3312">
        <ele>560.443047</ele>
        <time>2011-09-04T12:37:12Z</time>
      </trkpt>
      <trkpt lat="43.82624" lon="7.33129">
        <ele>560.443069</ele>
        <time>2011-09-04T12:37:20Z</time>
      </trkpt>
      <trkpt lat="43.8263" lon="7.33139">
        <ele>559.4431</ele>
        <time>2011-09-04T12:37:25Z</time>
      </trkpt>
      <trkpt lat="43.82635" lon="7.33151">
        <ele>559.44313</ele>
        <time>2011-09-04T12:37:29Z</time>
      </trkpt>
      <trkpt lat="43.8264" lon="7.33167">
        <ele>561.443176</ele>
        <time>2011-09-04T12:37:34Z</time>
      </trkpt>
      <trkpt lat="43.82642" lon="7.3318">
        <ele>562.443207</ele>
        <time>2011-09-04T12:37:38Z</time>
      </trkpt>
      <trkpt lat="43.82643" lon="7.33194">
        <ele>563.443237</ele>
        <time>2011-09-04T12:37:42Z</time>
      </trkpt>
      <trkpt lat="43.82646" lon="7.33208">
        <ele>566.443268</ele>
        <time>2011-09-04T12:37:47Z</time>
      </trkpt>
      <trkpt lat="43.82653" lon="7.33219">
        <ele>568.443298</ele>
        <time>2011-09-04T12:37:52Z</time>
      </trkpt>
      <trkpt lat="43.82663" lon="7.33225">
        <ele>568.443325</ele>
        <time>2011-09-04T12:37:57Z</time>
      </trkpt>
      <trkpt lat="43.82673" lon="7.33229">
        <ele>568.443344</ele>
        <time>2011-09-04T12:38:02Z</time>
      </trkpt>
      <trkpt lat="43.82684" lon="7.33231">
        <ele>569.443367</ele>
        <time>2011-09-04T12:38:07Z</time>
      </trkpt>
      <trkpt lat="43.82694" lon="7.33233">
        <ele>569.443382</ele>
        <time>2011-09-04T12:38:11Z</time>
      </trkpt>
      <trkpt lat="43.82704" lon="7.33235">
        <ele>569.443398</ele>
        <time>2011-09-04T12:38:15Z</time>
      </trkpt>
      <trkpt lat="43.82713" lon="7.33239">
        <ele>570.44342</ele>
        <time>2011-09-04T12:38:19Z</time>
      </trkpt>
      <trkpt lat="43.82721" lon="7.33245">
        <ele>570.443439</ele>
        <time>2011-09-04T12:38:23Z</time>
      </trkpt>
      <trkpt lat="43.82728" lon="7.33253">
        <ele>570.44347</ele>
        <time>2011-09-04T12:38:27Z</time>
      </trkpt>
      <trkpt lat="43.82734" lon="7.33263">
        <ele>570.443497</ele>
        <time>2011-09-04T12:38:31Z</time>
      </trkpt>
      <trkpt lat="43.82741" lon="7.33275">
        <ele>570.443535</ele>
        <time>2011-09-04T12:38:36Z</time>
      </trkpt>
      <trkpt lat="43.82742" lon="7.33278">
        <ele>570.443542</ele>
        <time>2011-09-04T12:38:37Z</time>
      </trkpt>
      <trkpt lat="43.82747" lon="7.33291">
        <ele>571.443573</ele>
        <time>2011-09-04T12:38:42Z</time>
      </trkpt>
      <trkpt lat="43.82753" lon="7.33303">
        <ele>572.443607</ele>
        <time>2011-09-04T12:38:47Z</time>
      </trkpt>
      <trkpt lat="43.82758" lon="7.33316">
        <ele>574.443642</ele>
        <time>2011-09-04T12:38:52Z</time>
      </trkpt>
      <trkpt lat="43.82762" lon="7.33328">
        <ele>576.443672</ele>
        <time>2011-09-04T12:38:56Z</time>
      </trkpt>
      <trkpt lat="43.82766" lon="7.33341">
        <ele>578.443703</ele>
        <time>2011-09-04T12:39:00Z</time>
      </trkpt>
      <trkpt lat="43.82769" lon="7.33353">
        <ele>579.443733</ele>
        <time>2011-09-04T12:39:04Z</time>
      </trkpt>
      <trkpt lat="43.82774" lon="7.33365">
        <ele>581.443764</ele>
        <time>2011-09-04T12:39:08Z</time>
      </trkpt>
      <trkpt lat="43.8278" lon="7.33375">
        <ele>582.443794</ele>
        <time>2011-09-04T12:39:12Z</time>
      </trkpt>
      <trkpt lat="43.82781" lon="7.33378">
        <ele>582.443802</ele>
        <time>2011-09-04T12:39:13Z</time>
      </trkpt>
      <trkpt lat="43.82788" lon="7.33389">
        <ele>582.443832</ele>
        <time>2011-09-04T12:39:17Z</time>
      </trkpt>
      <trkpt lat="43.82792" lon="7.33402">
        <ele>582.443867</ele>
        <time>2011-09-04T12:39:21Z</time>
      </trkpt>
      <trkpt lat="43.82794" lon="7.33417">
        <ele>583.443897</ele>
        <time>2011-09-04T12:39:25Z</time>
      </trkpt>
      <trkpt lat="43.82795" lon="7.3343">
        <ele>584.443932</ele>
        <time>2011-09-04T12:39:29Z</time>
      </trkpt>
      <trkpt lat="43.82794" lon="7.33444">
        <ele>585.443954</ele>
        <time>2011-09-04T12:39:33Z</time>
      </trkpt>
      <trkpt lat="43.82793" lon="7.33459">
        <ele>586.443985</ele>
        <time>2011-09-04T12:39:38Z</time>
      </trkpt>
      <trkpt lat="43.82791" lon="7.33472">
        <ele>588.444008</ele>
        <time>2011-09-04T12:39:42Z</time>
      </trkpt>
      <trkpt lat="43.8279" lon="7.33485">
        <ele>590.444038</ele>
        <time>2011-09-04T12:39:46Z</time>
      </trkpt>
      <trkpt lat="43.82792" lon="7.33498">
        <ele>591.444065</ele>
        <time>2011-09-04T12:39:50Z</time>
      </trkpt>
      <trkpt lat="43.82794" lon="7.33512">
        <ele>593.444099</ele>
        <time>2011-09-04T12:39:54Z</time>
      </trkpt>
      <trkpt lat="43.82797" lon="7.33525">
        <ele>592.44413</ele>
        <time>2011-09-04T12:39:58Z</time>
      </trkpt>
      <trkpt lat="43.82799" lon="7.33538">
        <ele>592.44416</ele>
        <time>2011-09-04T12:40:02Z</time>
      </trkpt>
      <trkpt lat="43.82798" lon="7.3355">
        <ele>593.444183</ele>
        <time>2011-09-04T12:40:10Z</time>
      </trkpt>
      <trkpt lat="43.82798" lon="7.3355">
        <ele>593.444183</ele>
        <time>2011-09-04T12:40:12Z</time>
      </trkpt>
      <trkpt lat="43.82796" lon="7.33565">
        <ele>597.444206</ele>
        <time>2011-09-04T12:40:15Z</time>
      </trkpt>
      <trkpt lat="43.82794" lon="7.33579">
        <ele>598.444237</ele>
        <time>2011-09-04T12:40:19Z</time>
      </trkpt>
      <trkpt lat="43.8279" lon="7.33599">
        <ele>601.444275</ele>
        <time>2011-09-04T12:40:25Z</time>
      </trkpt>
      <trkpt lat="43.82787" lon="7.33613">
        <ele>602.444298</ele>
        <time>2011-09-04T12:40:29Z</time>
      </trkpt>
      <trkpt lat="43.82785" lon="7.3362">
        <ele>604.444313</ele>
        <time>2011-09-04T12:40:31Z</time>
      </trkpt>
      <trkpt lat="43.82783" lon="7.33635">
        <ele>606.44434</ele>
        <time>2011-09-04T12:40:35Z</time>
      </trkpt>
      <trkpt lat="43.82785" lon="7.3365">
        <ele>608.444374</ele>
        <time>2011-09-04T12:40:39Z</time>
      </trkpt>
      <trkpt lat="43.8279" lon="7.33663">
        <ele>608.444408</ele>
        <time>2011-09-04T12:40:43Z</time>
      </trkpt>
      <trkpt lat="43.82797" lon="7.33674">
        <ele>607.444435</ele>
        <time>2011-09-04T12:40:47Z</time>
      </trkpt>
      <trkpt lat="43.82805" lon="7.33683">
        <ele>607.444469</ele>
        <time>2011-09-04T12:40:51Z</time>
      </trkpt>
      <trkpt lat="43.82809" lon="7.33686">
        <ele>606.444481</ele>
        <time>2011-09-04T12:40:53Z</time>
      </trkpt>
      <trkpt lat="43.82817" lon="7.33694">
        <ele>606.444511</ele>
        <time>2011-09-04T12:40:57Z</time>
      </trkpt>
      <trkpt lat="43.82821" lon="7.33698">
        <ele>606.444519</ele>
        <time>2011-09-04T12:40:59Z</time>
      </trkpt>
      <trkpt lat="43.82828" lon="7.33705">
        <ele>608.44455</ele>
        <time>2011-09-04T12:41:03Z</time>
      </trkpt>
      <trkpt lat="43.82836" lon="7.33713">
        <ele>610.444572</ele>
        <time>2011-09-04T12:41:07Z</time>
      </trkpt>
      <trkpt lat="43.82843" lon="7.3372">
        <ele>610.444595</ele>
        <time>2011-09-04T12:41:11Z</time>
      </trkpt>
      <trkpt lat="43.82847" lon="7.33723">
        <ele>612.444607</ele>
        <time>2011-09-04T12:41:14Z</time>
      </trkpt>
      <trkpt lat="43.82858" lon="7.3372">
        <ele>616.444618</ele>
        <time>2011-09-04T12:41:20Z</time>
      </trkpt>
      <trkpt lat="43.82869" lon="7.33716">
        <ele>616.444618</ele>
        <time>2011-09-04T12:41:25Z</time>
      </trkpt>
      <trkpt lat="43.82873" lon="7.33714">
        <ele>615.444622</ele>
        <time>2011-09-04T12:41:27Z</time>
      </trkpt>
      <trkpt lat="43.82883" lon="7.33707">
        <ele>615.444626</ele>
        <time>2011-09-04T12:41:31Z</time>
      </trkpt>
      <trkpt lat="43.82891" lon="7.33697">
        <ele>615.444611</ele>
        <time>2011-09-04T12:41:35Z</time>
      </trkpt>
      <trkpt lat="43.82899" lon="7.33684">
        <ele>615.444595</ele>
        <time>2011-09-04T12:41:39Z</time>
      </trkpt>
      <trkpt lat="43.82905" lon="7.33671">
        <ele>615.44458</ele>
        <time>2011-09-04T12:41:43Z</time>
      </trkpt>
      <trkpt lat="43.82909" lon="7.33657">
        <ele>615.444557</ele>
        <time>2011-09-04T12:41:47Z</time>
      </trkpt>
      <trkpt lat="43.82912" lon="7.33644">
        <ele>614.44453</ele>
        <time>2011-09-04T12:41:51Z</time>
      </trkpt>
      <trkpt lat="43.82914" lon="7.33631">
        <ele>614.444508</ele>
        <time>2011-09-04T12:41:55Z</time>
      </trkpt>
      <trkpt lat="43.82915" lon="7.33616">
        <ele>613.444477</ele>
        <time>2011-09-04T12:42:00Z</time>
      </trkpt>
      <trkpt lat="43.82912" lon="7.33603">
        <ele>613.444443</ele>
        <time>2011-09-04T12:42:05Z</time>
      </trkpt>
      <trkpt lat="43.82906" lon="7.33585">
        <ele>614.444397</ele>
        <time>2011-09-04T12:42:18Z</time>
      </trkpt>
      <trkpt lat="43.82904" lon="7.33567">
        <ele>614.444363</ele>
        <time>2011-09-04T12:42:25Z</time>
      </trkpt>
      <trkpt lat="43.82903" lon="7.33561">
        <ele>615.444344</ele>
        <time>2011-09-04T12:42:27Z</time>
      </trkpt>
      <trkpt lat="43.82901" lon="7.33546">
        <ele>617.444309</ele>
        <time>2011-09-04T12:42:31Z</time>
      </trkpt>
      <trkpt lat="43.82899" lon="7.33527">
        <ele>618.444267</ele>
        <time>2011-09-04T12:42:36Z</time>
      </trkpt>
      <trkpt lat="43.82897" lon="7.33513">
        <ele>618.444237</ele>
        <time>2011-09-04T12:42:39Z</time>
      </trkpt>
      <trkpt lat="43.82896" lon="7.335">
        <ele>618.444206</ele>
        <time>2011-09-04T12:42:42Z</time>
      </trkpt>
      <trkpt lat="43.82894" lon="7.33485">
        <ele>619.444172</ele>
        <time>2011-09-04T12:42:46Z</time>
      </trkpt>
      <trkpt lat="43.82892" lon="7.33465">
        <ele>618.44413</ele>
        <time>2011-09-04T12:42:51Z</time>
      </trkpt>
      <trkpt lat="43.82893" lon="7.33451">
        <ele>618.444099</ele>
        <time>2011-09-04T12:42:55Z</time>
      </trkpt>
      <trkpt lat="43.82895" lon="7.33436">
        <ele>618.444077</ele>
        <time>2011-09-04T12:42:59Z</time>
      </trkpt>
      <trkpt lat="43.82897" lon="7.33424">
        <ele>618.44405</ele>
        <time>2011-09-04T12:43:03Z</time>
      </trkpt>
      <trkpt lat="43.82901" lon="7.3341">
        <ele>619.444027</ele>
        <time>2011-09-04T12:43:08Z</time>
      </trkpt>
      <trkpt lat="43.82905" lon="7.33398">
        <ele>618.444008</ele>
        <time>2011-09-04T12:43:13Z</time>
      </trkpt>
      <trkpt lat="43.82909" lon="7.33387">
        <ele>619.443993</ele>
        <time>2011-09-04T12:43:18Z</time>
      </trkpt>
      <trkpt lat="43.82915" lon="7.33377">
        <ele>620.443977</ele>
        <time>2011-09-04T12:43:23Z</time>
      </trkpt>
      <trkpt lat="43.82923" lon="7.3337">
        <ele>621.443974</ele>
        <time>2011-09-04T12:43:28Z</time>
      </trkpt>
      <trkpt lat="43.82932" lon="7.33365">
        <ele>622.443974</ele>
        <time>2011-09-04T12:43:33Z</time>
      </trkpt>
      <trkpt lat="43.82941" lon="7.33361">
        <ele>624.443977</ele>
        <time>2011-09-04T12:43:38Z</time>
      </trkpt>
      <trkpt lat="43.82949" lon="7.33356">
        <ele>625.443977</ele>
        <time>2011-09-04T12:43:43Z</time>
      </trkpt>
      <trkpt lat="43.82957" lon="7.33346">
        <ele>625.44397</ele>
        <time>2011-09-04T12:43:48Z</time>
      </trkpt>
      <trkpt lat="43.82962" lon="7.33333">
        <ele>626.443951</ele>
        <time>2011-09-04T12:43:53Z</time>
      </trkpt>
      <trkpt lat="43.82967" lon="7.33317">
        <ele>628.44392</ele>
        <time>2011-09-04T12:44:04Z</time>
      </trkpt>
      <trkpt lat="43.82969" lon="7.33302">
        <ele>628.44389</ele>
        <time>2011-09-04T12:44:11Z</time>
      </trkpt>
      <trkpt lat="43.82971" lon="7.33265">
        <ele>634.443817</ele>
        <time>2011-09-04T12:44:28Z</time>
      </trkpt>
      <trkpt lat="43.82972" lon="7.33294">
        <ele>637.443878</ele>
        <time>2011-09-04T12:44:41Z</time>
      </trkpt>
      <trkpt lat="43.8297" lon="7.33307">
        <ele>638.443909</ele>
        <time>2011-09-04T12:44:46Z</time>
      </trkpt>
      <trkpt lat="43.82966" lon="7.33318">
        <ele>640.443924</ele>
        <time>2011-09-04T12:44:57Z</time>
      </trkpt>
      <trkpt lat="43.82971" lon="7.33305">
        <ele>642.443901</ele>
        <time>2011-09-04T12:45:05Z</time>
      </trkpt>
      <trkpt lat="43.82973" lon="7.33292">
        <ele>642.443878</ele>
        <time>2011-09-04T12:45:09Z</time>
      </trkpt>
      <trkpt lat="43.82971" lon="7.33279">
        <ele>641.443851</ele>
        <time>2011-09-04T12:45:14Z</time>
      </trkpt>
      <trkpt lat="43.82969" lon="7.3326">
        <ele>645.443802</ele>
        <time>2011-09-04T12:45:23Z</time>
      </trkpt>
      <trkpt lat="43.82967" lon="7.33246">
        <ele>646.443771</ele>
        <time>2011-09-04T12:45:28Z</time>
      </trkpt>
      <trkpt lat="43.82965" lon="7.33227">
        <ele>649.443733</ele>
        <time>2011-09-04T12:45:34Z</time>
      </trkpt>
      <trkpt lat="43.82962" lon="7.33193">
        <ele>652.443657</ele>
        <time>2011-09-04T12:45:44Z</time>
      </trkpt>
      <trkpt lat="43.82964" lon="7.33179">
        <ele>653.443634</ele>
        <time>2011-09-04T12:45:48Z</time>
      </trkpt>
      <trkpt lat="43.82969" lon="7.33166">
        <ele>653.443611</ele>
        <time>2011-09-04T12:45:52Z</time>
      </trkpt>
      <trkpt lat="43.82974" lon="7.33155">
        <ele>653.443592</ele>
        <time>2011-09-04T12:45:56Z</time>
      </trkpt>
      <trkpt lat="43.82979" lon="7.33143">
        <ele>654.443573</ele>
        <time>2011-09-04T12:46:00Z</time>
      </trkpt>
      <trkpt lat="43.8298" lon="7.3314">
        <ele>654.443573</ele>
        <time>2011-09-04T12:46:01Z</time>
      </trkpt>
      <trkpt lat="43.82985" lon="7.33128">
        <ele>655.44355</ele>
        <time>2011-09-04T12:46:05Z</time>
      </trkpt>
      <trkpt lat="43.82989" lon="7.33116">
        <ele>655.443531</ele>
        <time>2011-09-04T12:46:09Z</time>
      </trkpt>
      <trkpt lat="43.82994" lon="7.33102">
        <ele>656.443512</ele>
        <time>2011-09-04T12:46:14Z</time>
      </trkpt>
      <trkpt lat="43.82998" lon="7.33086">
        <ele>655.443481</ele>
        <time>2011-09-04T12:46:22Z</time>
      </trkpt>
      <trkpt lat="43.83001" lon="7.33072">
        <ele>656.443459</ele>
        <time>2011-09-04T12:46:28Z</time>
      </trkpt>
      <trkpt lat="43.83004" lon="7.33058">
        <ele>657.443436</ele>
        <time>2011-09-04T12:46:32Z</time>
      </trkpt>
      <trkpt lat="43.83008" lon="7.33044">
        <ele>656.443405</ele>
        <time>2011-09-04T12:46:36Z</time>
      </trkpt>
      <trkpt lat="43.83012" lon="7.33028">
        <ele>656.443378</ele>
        <time>2011-09-04T12:46:40Z</time>
      </trkpt>
      <trkpt lat="43.83016" lon="7.33016">
        <ele>656.443359</ele>
        <time>2011-09-04T12:46:43Z</time>
      </trkpt>
      <trkpt lat="43.83017" lon="7.33013">
        <ele>655.443356</ele>
        <time>2011-09-04T12:46:44Z</time>
      </trkpt>
      <trkpt lat="43.83022" lon="7.32995">
        <ele>654.443325</ele>
        <time>2011-09-04T12:46:49Z</time>
      </trkpt>
      <trkpt lat="43.83023" lon="7.32983">
        <ele>653.443298</ele>
        <time>2011-09-04T12:46:54Z</time>
      </trkpt>
      <trkpt lat="43.83019" lon="7.32963">
        <ele>652.443249</ele>
        <time>2011-09-04T12:47:02Z</time>
      </trkpt>
      <trkpt lat="43.83014" lon="7.32951">
        <ele>651.443222</ele>
        <time>2011-09-04T12:47:07Z</time>
      </trkpt>
      <trkpt lat="43.83009" lon="7.32935">
        <ele>653.443184</ele>
        <time>2011-09-04T12:47:13Z</time>
      </trkpt>
      <trkpt lat="43.83008" lon="7.32921">
        <ele>653.443153</ele>
        <time>2011-09-04T12:47:19Z</time>
      </trkpt>
      <trkpt lat="43.83008" lon="7.32921">
        <ele>653.443153</ele>
        <time>2011-09-04T12:47:20Z</time>
      </trkpt>
      <trkpt lat="43.83009" lon="7.32906">
        <ele>653.443123</ele>
        <time>2011-09-04T12:47:24Z</time>
      </trkpt>
      <trkpt lat="43.83011" lon="7.32893">
        <ele>654.443092</ele>
        <time>2011-09-04T12:47:28Z</time>
      </trkpt>
      <trkpt lat="43.83013" lon="7.32879">
        <ele>654.443069</ele>
        <time>2011-09-04T12:47:32Z</time>
      </trkpt>
      <trkpt lat="43.83016" lon="7.32864">
        <ele>654.443043</ele>
        <time>2011-09-04T12:47:36Z</time>
      </trkpt>
      <trkpt lat="43.83019" lon="7.32844">
        <ele>655.443001</ele>
        <time>2011-09-04T12:47:42Z</time>
      </trkpt>
      <trkpt lat="43.8302" lon="7.32831">
        <ele>655.442978</ele>
        <time>2011-09-04T12:47:46Z</time>
      </trkpt>
      <trkpt lat="43.8302" lon="7.32818">
        <ele>656.442955</ele>
        <time>2011-09-04T12:47:50Z</time>
      </trkpt>
      <trkpt lat="43.83019" lon="7.32805">
        <ele>656.442924</ele>
        <time>2011-09-04T12:47:56Z</time>
      </trkpt>
      <trkpt lat="43.83016" lon="7.32793">
        <ele>656.442894</ele>
        <time>2011-09-04T12:48:00Z</time>
      </trkpt>
      <trkpt lat="43.83012" lon="7.32781">
        <ele>657.442863</ele>
        <time>2011-09-04T12:48:04Z</time>
      </trkpt>
      <trkpt lat="43.8301" lon="7.32759">
        <ele>657.44281</ele>
        <time>2011-09-04T12:48:14Z</time>
      </trkpt>
      <trkpt lat="43.83014" lon="7.32746">
        <ele>657.442795</ele>
        <time>2011-09-04T12:48:18Z</time>
      </trkpt>
      <trkpt lat="43.83018" lon="7.32735">
        <ele>657.442776</ele>
        <time>2011-09-04T12:48:22Z</time>
      </trkpt>
      <trkpt lat="43.83022" lon="7.32722">
        <ele>659.442753</ele>
        <time>2011-09-04T12:48:26Z</time>
      </trkpt>
      <trkpt lat="43.83027" lon="7.32707">
        <ele>659.442734</ele>
        <time>2011-09-04T12:48:31Z</time>
      </trkpt>
      <trkpt lat="43.83034" lon="7.32694">
        <ele>662.442711</ele>
        <time>2011-09-04T12:48:39Z</time>
      </trkpt>
      <trkpt lat="43.83042" lon="7.32685">
        <ele>663.442703</ele>
        <time>2011-09-04T12:48:44Z</time>
      </trkpt>
      <trkpt lat="43.83058" lon="7.32669">
        <ele>665.442688</ele>
        <time>2011-09-04T12:49:01Z</time>
      </trkpt>
      <trkpt lat="43.83062" lon="7.32653">
        <ele>665.442661</ele>
        <time>2011-09-04T12:49:05Z</time>
      </trkpt>
      <trkpt lat="43.83066" lon="7.32639">
        <ele>666.442642</ele>
        <time>2011-09-04T12:49:08Z</time>
      </trkpt>
      <trkpt lat="43.83072" lon="7.32621">
        <ele>667.442608</ele>
        <time>2011-09-04T12:49:12Z</time>
      </trkpt>
      <trkpt lat="43.83081" lon="7.32599">
        <ele>667.442581</ele>
        <time>2011-09-04T12:49:17Z</time>
      </trkpt>
      <trkpt lat="43.83087" lon="7.32588">
        <ele>668.442562</ele>
        <time>2011-09-04T12:49:20Z</time>
      </trkpt>
      <trkpt lat="43.83096" lon="7.3258">
        <ele>671.442558</ele>
        <time>2011-09-04T12:49:30Z</time>
      </trkpt>
      <trkpt lat="43.83096" lon="7.32599">
        <ele>676.442596</ele>
        <time>2011-09-04T12:49:38Z</time>
      </trkpt>
      <trkpt lat="43.83095" lon="7.32612">
        <ele>677.442619</ele>
        <time>2011-09-04T12:49:41Z</time>
      </trkpt>
      <trkpt lat="43.83095" lon="7.32628">
        <ele>679.442654</ele>
        <time>2011-09-04T12:49:45Z</time>
      </trkpt>
      <trkpt lat="43.83097" lon="7.32651">
        <ele>680.442703</ele>
        <time>2011-09-04T12:49:51Z</time>
      </trkpt>
      <trkpt lat="43.83099" lon="7.32666">
        <ele>680.442741</ele>
        <time>2011-09-04T12:49:55Z</time>
      </trkpt>
      <trkpt lat="43.83101" lon="7.32679">
        <ele>679.442772</ele>
        <time>2011-09-04T12:49:59Z</time>
      </trkpt>
      <trkpt lat="43.83102" lon="7.32707">
        <ele>680.442833</ele>
        <time>2011-09-04T12:50:08Z</time>
      </trkpt>
      <trkpt lat="43.83102" lon="7.32714">
        <ele>681.442844</ele>
        <time>2011-09-04T12:50:10Z</time>
      </trkpt>
      <trkpt lat="43.83104" lon="7.32727">
        <ele>681.442875</ele>
        <time>2011-09-04T12:50:14Z</time>
      </trkpt>
      <trkpt lat="43.8311" lon="7.32748">
        <ele>683.442924</ele>
        <time>2011-09-04T12:50:26Z</time>
      </trkpt>
      <trkpt lat="43.83113" lon="7.32762">
        <ele>687.442959</ele>
        <time>2011-09-04T12:50:31Z</time>
      </trkpt>
      <trkpt lat="43.83114" lon="7.32788">
        <ele>689.443016</ele>
        <time>2011-09-04T12:51:01Z</time>
      </trkpt>
      <trkpt lat="43.83115" lon="7.32763">
        <ele>694.442966</ele>
        <time>2011-09-04T12:52:44Z</time>
      </trkpt>
      <trkpt lat="43.83115" lon="7.32759">
        <ele>694.442959</ele>
        <time>2011-09-04T12:52:45Z</time>
      </trkpt>
      <trkpt lat="43.83116" lon="7.32746">
        <ele>694.442932</ele>
        <time>2011-09-04T12:52:49Z</time>
      </trkpt>
      <trkpt lat="43.83118" lon="7.32724">
        <ele>694.442886</ele>
        <time>2011-09-04T12:52:55Z</time>
      </trkpt>
      <trkpt lat="43.83119" lon="7.32708">
        <ele>694.442856</ele>
        <time>2011-09-04T12:52:59Z</time>
      </trkpt>
      <trkpt lat="43.83121" lon="7.32694">
        <ele>694.442825</ele>
        <time>2011-09-04T12:53:02Z</time>
      </trkpt>
      <trkpt lat="43.83123" lon="7.32678">
        <ele>695.442795</ele>
        <time>2011-09-04T12:53:06Z</time>
      </trkpt>
      <trkpt lat="43.83126" lon="7.32662">
        <ele>696.442772</ele>
        <time>2011-09-04T12:53:10Z</time>
      </trkpt>
      <trkpt lat="43.83126" lon="7.32658">
        <ele>696.44276</ele>
        <time>2011-09-04T12:53:11Z</time>
      </trkpt>
      <trkpt lat="43.83129" lon="7.32645">
        <ele>696.442734</ele>
        <time>2011-09-04T12:53:14Z</time>
      </trkpt>
      <trkpt lat="43.83131" lon="7.32632">
        <ele>697.442711</ele>
        <time>2011-09-04T12:53:17Z</time>
      </trkpt>
      <trkpt lat="43.83134" lon="7.3261">
        <ele>701.442669</ele>
        <time>2011-09-04T12:53:25Z</time>
      </trkpt>
      <trkpt lat="43.83134" lon="7.32607">
        <ele>701.442665</ele>
        <time>2011-09-04T12:53:27Z</time>
      </trkpt>
      <trkpt lat="43.83136" lon="7.32594">
        <ele>702.442638</ele>
        <time>2011-09-04T12:53:32Z</time>
      </trkpt>
      <trkpt lat="43.83136" lon="7.3258">
        <ele>703.442612</ele>
        <time>2011-09-04T12:53:37Z</time>
      </trkpt>
      <trkpt lat="43.83136" lon="7.32566">
        <ele>703.442581</ele>
        <time>2011-09-04T12:53:41Z</time>
      </trkpt>
      <trkpt lat="43.83135" lon="7.32551">
        <ele>703.442551</ele>
        <time>2011-09-04T12:53:47Z</time>
      </trkpt>
      <trkpt lat="43.83133" lon="7.32535">
        <ele>704.442513</ele>
        <time>2011-09-04T12:53:50Z</time>
      </trkpt>
      <trkpt lat="43.83132" lon="7.3252">
        <ele>705.442478</ele>
        <time>2011-09-04T12:53:53Z</time>
      </trkpt>
      <trkpt lat="43.8313" lon="7.32504">
        <ele>704.442444</ele>
        <time>2011-09-04T12:53:56Z</time>
      </trkpt>
      <trkpt lat="43.8313" lon="7.32499">
        <ele>704.442436</ele>
        <time>2011-09-04T12:53:57Z</time>
      </trkpt>
      <trkpt lat="43.83128" lon="7.32483">
        <ele>704.442398</ele>
        <time>2011-09-04T12:54:00Z</time>
      </trkpt>
      <trkpt lat="43.83126" lon="7.32464">
        <ele>703.442356</ele>
        <time>2011-09-04T12:54:04Z</time>
      </trkpt>
      <trkpt lat="43.83124" lon="7.32444">
        <ele>704.44231</ele>
        <time>2011-09-04T12:54:09Z</time>
      </trkpt>
      <trkpt lat="43.83126" lon="7.32427">
        <ele>704.442276</ele>
        <time>2011-09-04T12:54:13Z</time>
      </trkpt>
      <trkpt lat="43.83131" lon="7.32408">
        <ele>704.442245</ele>
        <time>2011-09-04T12:54:16Z</time>
      </trkpt>
      <trkpt lat="43.83136" lon="7.32394">
        <ele>704.442223</ele>
        <time>2011-09-04T12:54:18Z</time>
      </trkpt>
      <trkpt lat="43.83142" lon="7.32382">
        <ele>703.442204</ele>
        <time>2011-09-04T12:54:20Z</time>
      </trkpt>
      <trkpt lat="43.83147" lon="7.3237">
        <ele>703.442188</ele>
        <time>2011-09-04T12:54:22Z</time>
      </trkpt>
      <trkpt lat="43.83154" lon="7.32357">
        <ele>703.442169</ele>
        <time>2011-09-04T12:54:24Z</time>
      </trkpt>
      <trkpt lat="43.8316" lon="7.32345">
        <ele>702.442154</ele>
        <time>2011-09-04T12:54:26Z</time>
      </trkpt>
      <trkpt lat="43.83167" lon="7.32336">
        <ele>702.442146</ele>
        <time>2011-09-04T12:54:28Z</time>
      </trkpt>
      <trkpt lat="43.83175" lon="7.32327">
        <ele>702.442131</ele>
        <time>2011-09-04T12:54:30Z</time>
      </trkpt>
      <trkpt lat="43.83182" lon="7.32319">
        <ele>702.442127</ele>
        <time>2011-09-04T12:54:32Z</time>
      </trkpt>
      <trkpt lat="43.83189" lon="7.32311">
        <ele>702.442123</ele>
        <time>2011-09-04T12:54:34Z</time>
      </trkpt>
      <trkpt lat="43.83196" lon="7.32303">
        <ele>701.442116</ele>
        <time>2011-09-04T12:54:36Z</time>
      </trkpt>
      <trkpt lat="43.83207" lon="7.32295">
        <ele>701.442108</ele>
        <time>2011-09-04T12:54:39Z</time>
      </trkpt>
      <trkpt lat="43.83218" lon="7.32287">
        <ele>701.442108</ele>
        <time>2011-09-04T12:54:42Z</time>
      </trkpt>
      <trkpt lat="43.83229" lon="7.32277">
        <ele>701.442101</ele>
        <time>2011-09-04T12:54:45Z</time>
      </trkpt>
      <trkpt lat="43.83241" lon="7.32268">
        <ele>702.442101</ele>
        <time>2011-09-04T12:54:48Z</time>
      </trkpt>
      <trkpt lat="43.83248" lon="7.32261">
        <ele>703.442097</ele>
        <time>2011-09-04T12:54:50Z</time>
      </trkpt>
      <trkpt lat="43.83256" lon="7.32253">
        <ele>703.442085</ele>
        <time>2011-09-04T12:54:52Z</time>
      </trkpt>
      <trkpt lat="43.83264" lon="7.32247">
        <ele>703.442085</ele>
        <time>2011-09-04T12:54:54Z</time>
      </trkpt>
      <trkpt lat="43.83276" lon="7.32239">
        <ele>704.442085</ele>
        <time>2011-09-04T12:54:57Z</time>
      </trkpt>
      <trkpt lat="43.83283" lon="7.32232">
        <ele>704.442081</ele>
        <time>2011-09-04T12:54:59Z</time>
      </trkpt>
      <trkpt lat="43.83294" lon="7.32221">
        <ele>704.442074</ele>
        <time>2011-09-04T12:55:02Z</time>
      </trkpt>
      <trkpt lat="43.83304" lon="7.32211">
        <ele>705.442062</ele>
        <time>2011-09-04T12:55:05Z</time>
      </trkpt>
      <trkpt lat="43.83313" lon="7.32202">
        <ele>705.442062</ele>
        <time>2011-09-04T12:55:08Z</time>
      </trkpt>
      <trkpt lat="43.83322" lon="7.32196">
        <ele>705.442062</ele>
        <time>2011-09-04T12:55:11Z</time>
      </trkpt>
      <trkpt lat="43.83324" lon="7.32194">
        <ele>705.442062</ele>
        <time>2011-09-04T12:55:12Z</time>
      </trkpt>
      <trkpt lat="43.83332" lon="7.32187">
        <ele>705.442055</ele>
        <time>2011-09-04T12:55:15Z</time>
      </trkpt>
      <trkpt lat="43.83339" lon="7.32179">
        <ele>705.442047</ele>
        <time>2011-09-04T12:55:18Z</time>
      </trkpt>
      <trkpt lat="43.83347" lon="7.3217">
        <ele>706.442039</ele>
        <time>2011-09-04T12:55:21Z</time>
      </trkpt>
      <trkpt lat="43.83352" lon="7.32164">
        <ele>706.442032</ele>
        <time>2011-09-04T12:55:23Z</time>
      </trkpt>
      <trkpt lat="43.83361" lon="7.32156">
        <ele>706.442032</ele>
        <time>2011-09-04T12:55:26Z</time>
      </trkpt>
      <trkpt lat="43.8337" lon="7.32149">
        <ele>707.442028</ele>
        <time>2011-09-04T12:55:29Z</time>
      </trkpt>
      <trkpt lat="43.8338" lon="7.32143">
        <ele>707.442024</ele>
        <time>2011-09-04T12:55:32Z</time>
      </trkpt>
      <trkpt lat="43.83389" lon="7.32135">
        <ele>708.442024</ele>
        <time>2011-09-04T12:55:35Z</time>
      </trkpt>
      <trkpt lat="43.83392" lon="7.32132">
        <ele>708.44202</ele>
        <time>2011-09-04T12:55:36Z</time>
      </trkpt>
      <trkpt lat="43.83402" lon="7.32124">
        <ele>708.442017</ele>
        <time>2011-09-04T12:55:39Z</time>
      </trkpt>
      <trkpt lat="43.83406" lon="7.32121">
        <ele>708.442017</ele>
        <time>2011-09-04T12:55:40Z</time>
      </trkpt>
      <trkpt lat="43.83416" lon="7.32114">
        <ele>709.442017</ele>
        <time>2011-09-04T12:55:43Z</time>
      </trkpt>
      <trkpt lat="43.83427" lon="7.32108">
        <ele>710.442013</ele>
        <time>2011-09-04T12:55:46Z</time>
      </trkpt>
      <trkpt lat="43.83438" lon="7.32102">
        <ele>710.442017</ele>
        <time>2011-09-04T12:55:49Z</time>
      </trkpt>
      <trkpt lat="43.83448" lon="7.32095">
        <ele>711.44202</ele>
        <time>2011-09-04T12:55:52Z</time>
      </trkpt>
      <trkpt lat="43.83459" lon="7.3209">
        <ele>712.442024</ele>
        <time>2011-09-04T12:55:55Z</time>
      </trkpt>
      <trkpt lat="43.8347" lon="7.32085">
        <ele>712.442024</ele>
        <time>2011-09-04T12:55:58Z</time>
      </trkpt>
      <trkpt lat="43.8348" lon="7.32079">
        <ele>713.442024</ele>
        <time>2011-09-04T12:56:01Z</time>
      </trkpt>
      <trkpt lat="43.83491" lon="7.32072">
        <ele>712.442024</ele>
        <time>2011-09-04T12:56:04Z</time>
      </trkpt>
      <trkpt lat="43.83501" lon="7.32066">
        <ele>712.442024</ele>
        <time>2011-09-04T12:56:07Z</time>
      </trkpt>
      <trkpt lat="43.83511" lon="7.32059">
        <ele>712.442028</ele>
        <time>2011-09-04T12:56:10Z</time>
      </trkpt>
      <trkpt lat="43.8352" lon="7.32052">
        <ele>712.442024</ele>
        <time>2011-09-04T12:56:13Z</time>
      </trkpt>
      <trkpt lat="43.83528" lon="7.32046">
        <ele>712.442024</ele>
        <time>2011-09-04T12:56:16Z</time>
      </trkpt>
      <trkpt lat="43.83536" lon="7.32039">
        <ele>712.442017</ele>
        <time>2011-09-04T12:56:19Z</time>
      </trkpt>
      <trkpt lat="43.83543" lon="7.32031">
        <ele>713.442013</ele>
        <time>2011-09-04T12:56:22Z</time>
      </trkpt>
      <trkpt lat="43.83551" lon="7.32023">
        <ele>713.442009</ele>
        <time>2011-09-04T12:56:25Z</time>
      </trkpt>
      <trkpt lat="43.83558" lon="7.32015">
        <ele>713.441994</ele>
        <time>2011-09-04T12:56:28Z</time>
      </trkpt>
      <trkpt lat="43.83566" lon="7.32007">
        <ele>713.44199</ele>
        <time>2011-09-04T12:56:31Z</time>
      </trkpt>
      <trkpt lat="43.83574" lon="7.31999">
        <ele>713.441986</ele>
        <time>2011-09-04T12:56:34Z</time>
      </trkpt>
      <trkpt lat="43.83584" lon="7.31992">
        <ele>714.441986</ele>
        <time>2011-09-04T12:56:37Z</time>
      </trkpt>
      <trkpt lat="43.83594" lon="7.31986">
        <ele>714.441986</ele>
        <time>2011-09-04T12:56:40Z</time>
      </trkpt>
      <trkpt lat="43.83605" lon="7.31982">
        <ele>715.441994</ele>
        <time>2011-09-04T12:56:43Z</time>
      </trkpt>
      <trkpt lat="43.83617" lon="7.31978">
        <ele>715.442001</ele>
        <time>2011-09-04T12:56:46Z</time>
      </trkpt>
      <trkpt lat="43.83628" lon="7.31975">
        <ele>715.442005</ele>
        <time>2011-09-04T12:56:49Z</time>
      </trkpt>
      <trkpt lat="43.83638" lon="7.31971">
        <ele>716.442017</ele>
        <time>2011-09-04T12:56:52Z</time>
      </trkpt>
      <trkpt lat="43.83647" lon="7.31971">
        <ele>716.442032</ele>
        <time>2011-09-04T12:56:55Z</time>
      </trkpt>
      <trkpt lat="43.83659" lon="7.31971">
        <ele>717.442039</ele>
        <time>2011-09-04T12:56:59Z</time>
      </trkpt>
      <trkpt lat="43.8367" lon="7.31969">
        <ele>718.442055</ele>
        <time>2011-09-04T12:57:03Z</time>
      </trkpt>
      <trkpt lat="43.83681" lon="7.31969">
        <ele>719.442066</ele>
        <time>2011-09-04T12:57:07Z</time>
      </trkpt>
      <trkpt lat="43.83693" lon="7.31968">
        <ele>720.442078</ele>
        <time>2011-09-04T12:57:11Z</time>
      </trkpt>
      <trkpt lat="43.83704" lon="7.31966">
        <ele>721.442093</ele>
        <time>2011-09-04T12:57:15Z</time>
      </trkpt>
      <trkpt lat="43.83715" lon="7.31964">
        <ele>722.442104</ele>
        <time>2011-09-04T12:57:19Z</time>
      </trkpt>
      <trkpt lat="43.83726" lon="7.31961">
        <ele>722.442108</ele>
        <time>2011-09-04T12:57:23Z</time>
      </trkpt>
      <trkpt lat="43.83738" lon="7.31954">
        <ele>723.442116</ele>
        <time>2011-09-04T12:57:27Z</time>
      </trkpt>
      <trkpt lat="43.83741" lon="7.31952">
        <ele>723.442112</ele>
        <time>2011-09-04T12:57:28Z</time>
      </trkpt>
      <trkpt lat="43.8375" lon="7.31949">
        <ele>723.44212</ele>
        <time>2011-09-04T12:57:31Z</time>
      </trkpt>
      <trkpt lat="43.83762" lon="7.31945">
        <ele>724.442127</ele>
        <time>2011-09-04T12:57:34Z</time>
      </trkpt>
      <trkpt lat="43.83773" lon="7.31943">
        <ele>726.442139</ele>
        <time>2011-09-04T12:57:37Z</time>
      </trkpt>
      <trkpt lat="43.83784" lon="7.31943">
        <ele>727.44215</ele>
        <time>2011-09-04T12:57:41Z</time>
      </trkpt>
      <trkpt lat="43.83795" lon="7.31941">
        <ele>726.442162</ele>
        <time>2011-09-04T12:57:44Z</time>
      </trkpt>
      <trkpt lat="43.83808" lon="7.3194">
        <ele>727.442177</ele>
        <time>2011-09-04T12:57:47Z</time>
      </trkpt>
      <trkpt lat="43.83821" lon="7.31938">
        <ele>727.442192</ele>
        <time>2011-09-04T12:57:50Z</time>
      </trkpt>
      <trkpt lat="43.83833" lon="7.31937">
        <ele>727.442207</ele>
        <time>2011-09-04T12:57:53Z</time>
      </trkpt>
      <trkpt lat="43.83846" lon="7.31935">
        <ele>727.442215</ele>
        <time>2011-09-04T12:57:56Z</time>
      </trkpt>
      <trkpt lat="43.83859" lon="7.31932">
        <ele>728.44223</ele>
        <time>2011-09-04T12:57:59Z</time>
      </trkpt>
      <trkpt lat="43.83871" lon="7.31929">
        <ele>729.442242</ele>
        <time>2011-09-04T12:58:02Z</time>
      </trkpt>
      <trkpt lat="43.83882" lon="7.31927">
        <ele>728.442253</ele>
        <time>2011-09-04T12:58:05Z</time>
      </trkpt>
      <trkpt lat="43.83893" lon="7.31925">
        <ele>728.442261</ele>
        <time>2011-09-04T12:58:08Z</time>
      </trkpt>
      <trkpt lat="43.83904" lon="7.31922">
        <ele>729.442268</ele>
        <time>2011-09-04T12:58:11Z</time>
      </trkpt>
      <trkpt lat="43.83915" lon="7.31917">
        <ele>730.442276</ele>
        <time>2011-09-04T12:58:14Z</time>
      </trkpt>
      <trkpt lat="43.83928" lon="7.31911">
        <ele>731.442276</ele>
        <time>2011-09-04T12:58:17Z</time>
      </trkpt>
      <trkpt lat="43.8394" lon="7.31905">
        <ele>731.442284</ele>
        <time>2011-09-04T12:58:20Z</time>
      </trkpt>
      <trkpt lat="43.83952" lon="7.31898">
        <ele>731.442284</ele>
        <time>2011-09-04T12:58:23Z</time>
      </trkpt>
      <trkpt lat="43.83964" lon="7.31891">
        <ele>731.442284</ele>
        <time>2011-09-04T12:58:26Z</time>
      </trkpt>
      <trkpt lat="43.83967" lon="7.31889">
        <ele>731.442284</ele>
        <time>2011-09-04T12:58:27Z</time>
      </trkpt>
      <trkpt lat="43.83978" lon="7.31884">
        <ele>731.442287</ele>
        <time>2011-09-04T12:58:30Z</time>
      </trkpt>
      <trkpt lat="43.83989" lon="7.31879">
        <ele>733.442291</ele>
        <time>2011-09-04T12:58:33Z</time>
      </trkpt>
      <trkpt lat="43.83999" lon="7.31875">
        <ele>733.442299</ele>
        <time>2011-09-04T12:58:36Z</time>
      </trkpt>
      <trkpt lat="43.8401" lon="7.3187">
        <ele>734.442303</ele>
        <time>2011-09-04T12:58:39Z</time>
      </trkpt>
      <trkpt lat="43.8402" lon="7.31859">
        <ele>734.442295</ele>
        <time>2011-09-04T12:58:42Z</time>
      </trkpt>
      <trkpt lat="43.84029" lon="7.3185">
        <ele>735.442284</ele>
        <time>2011-09-04T12:58:45Z</time>
      </trkpt>
      <trkpt lat="43.84039" lon="7.31842">
        <ele>736.442284</ele>
        <time>2011-09-04T12:58:48Z</time>
      </trkpt>
      <trkpt lat="43.84049" lon="7.31836">
        <ele>736.442284</ele>
        <time>2011-09-04T12:58:51Z</time>
      </trkpt>
      <trkpt lat="43.84058" lon="7.31831">
        <ele>736.442284</ele>
        <time>2011-09-04T12:58:54Z</time>
      </trkpt>
      <trkpt lat="43.84067" lon="7.31827">
        <ele>737.442291</ele>
        <time>2011-09-04T12:58:57Z</time>
      </trkpt>
      <trkpt lat="43.84078" lon="7.31822">
        <ele>739.442291</ele>
        <time>2011-09-04T12:59:01Z</time>
      </trkpt>
      <trkpt lat="43.84088" lon="7.31815">
        <ele>739.442291</ele>
        <time>2011-09-04T12:59:05Z</time>
      </trkpt>
      <trkpt lat="43.84097" lon="7.31807">
        <ele>739.442284</ele>
        <time>2011-09-04T12:59:09Z</time>
      </trkpt>
      <trkpt lat="43.84107" lon="7.318">
        <ele>739.442287</ele>
        <time>2011-09-04T12:59:13Z</time>
      </trkpt>
      <trkpt lat="43.84118" lon="7.31796">
        <ele>739.442291</ele>
        <time>2011-09-04T12:59:17Z</time>
      </trkpt>
      <trkpt lat="43.84128" lon="7.31792">
        <ele>739.442299</ele>
        <time>2011-09-04T12:59:21Z</time>
      </trkpt>
      <trkpt lat="43.84138" lon="7.31792">
        <ele>740.442314</ele>
        <time>2011-09-04T12:59:25Z</time>
      </trkpt>
      <trkpt lat="43.84148" lon="7.31792">
        <ele>740.442329</ele>
        <time>2011-09-04T12:59:29Z</time>
      </trkpt>
      <trkpt lat="43.84158" lon="7.31794">
        <ele>741.442345</ele>
        <time>2011-09-04T12:59:33Z</time>
      </trkpt>
      <trkpt lat="43.84171" lon="7.31796">
        <ele>743.442368</ele>
        <time>2011-09-04T12:59:40Z</time>
      </trkpt>
      <trkpt lat="43.84182" lon="7.31795">
        <ele>744.442383</ele>
        <time>2011-09-04T12:59:45Z</time>
      </trkpt>
      <trkpt lat="43.84184" lon="7.31795">
        <ele>744.442383</ele>
        <time>2011-09-04T12:59:46Z</time>
      </trkpt>
      <trkpt lat="43.84193" lon="7.31795">
        <ele>745.44239</ele>
        <time>2011-09-04T12:59:50Z</time>
      </trkpt>
      <trkpt lat="43.84196" lon="7.31795">
        <ele>745.44239</ele>
        <time>2011-09-04T12:59:51Z</time>
      </trkpt>
      <trkpt lat="43.84205" lon="7.31794">
        <ele>745.442406</ele>
        <time>2011-09-04T12:59:55Z</time>
      </trkpt>
      <trkpt lat="43.84215" lon="7.31793">
        <ele>745.442421</ele>
        <time>2011-09-04T12:59:59Z</time>
      </trkpt>
      <trkpt lat="43.8422" lon="7.31792">
        <ele>745.442421</ele>
        <time>2011-09-04T13:00:01Z</time>
      </trkpt>
      <trkpt lat="43.84229" lon="7.31789">
        <ele>745.442429</ele>
        <time>2011-09-04T13:00:05Z</time>
      </trkpt>
      <trkpt lat="43.8424" lon="7.31785">
        <ele>745.442432</ele>
        <time>2011-09-04T13:00:09Z</time>
      </trkpt>
      <trkpt lat="43.84251" lon="7.31781">
        <ele>746.442444</ele>
        <time>2011-09-04T13:00:13Z</time>
      </trkpt>
      <trkpt lat="43.84254" lon="7.3178">
        <ele>746.442444</ele>
        <time>2011-09-04T13:00:14Z</time>
      </trkpt>
      <trkpt lat="43.84267" lon="7.31774">
        <ele>748.442448</ele>
        <time>2011-09-04T13:00:20Z</time>
      </trkpt>
      <trkpt lat="43.84276" lon="7.31766">
        <ele>749.442444</ele>
        <time>2011-09-04T13:00:24Z</time>
      </trkpt>
      <trkpt lat="43.84285" lon="7.3176">
        <ele>748.442444</ele>
        <time>2011-09-04T13:00:27Z</time>
      </trkpt>
      <trkpt lat="43.84294" lon="7.31756">
        <ele>748.442448</ele>
        <time>2011-09-04T13:00:30Z</time>
      </trkpt>
      <trkpt lat="43.84297" lon="7.31755">
        <ele>748.442451</ele>
        <time>2011-09-04T13:00:31Z</time>
      </trkpt>
      <trkpt lat="43.84307" lon="7.31753">
        <ele>748.442459</ele>
        <time>2011-09-04T13:00:34Z</time>
      </trkpt>
      <trkpt lat="43.84313" lon="7.31751">
        <ele>749.442459</ele>
        <time>2011-09-04T13:00:36Z</time>
      </trkpt>
      <trkpt lat="43.84322" lon="7.31749">
        <ele>750.442471</ele>
        <time>2011-09-04T13:00:39Z</time>
      </trkpt>
      <trkpt lat="43.84333" lon="7.31745">
        <ele>750.442474</ele>
        <time>2011-09-04T13:00:43Z</time>
      </trkpt>
      <trkpt lat="43.84333" lon="7.31745">
        <ele>750.442474</ele>
        <time>2011-09-04T13:00:46Z</time>
      </trkpt>
      <trkpt lat="43.84343" lon="7.31742">
        <ele>751.442486</ele>
        <time>2011-09-04T13:00:52Z</time>
      </trkpt>
      <trkpt lat="43.84368" lon="7.31737">
        <ele>753.442505</ele>
        <time>2011-09-04T13:01:04Z</time>
      </trkpt>
      <trkpt lat="43.8439" lon="7.31734">
        <ele>754.442528</ele>
        <time>2011-09-04T13:01:14Z</time>
      </trkpt>
      <trkpt lat="43.844" lon="7.31728">
        <ele>753.442528</ele>
        <time>2011-09-04T13:01:18Z</time>
      </trkpt>
      <trkpt lat="43.84421" lon="7.31711">
        <ele>754.44252</ele>
        <time>2011-09-04T13:01:29Z</time>
      </trkpt>
      <trkpt lat="43.84424" lon="7.3171">
        <ele>754.442528</ele>
        <time>2011-09-04T13:01:30Z</time>
      </trkpt>
      <trkpt lat="43.84433" lon="7.31709">
        <ele>754.442535</ele>
        <time>2011-09-04T13:01:32Z</time>
      </trkpt>
      <trkpt lat="43.84446" lon="7.31709">
        <ele>756.442551</ele>
        <time>2011-09-04T13:01:36Z</time>
      </trkpt>
      <trkpt lat="43.84461" lon="7.31707">
        <ele>758.442566</ele>
        <time>2011-09-04T13:01:38Z</time>
      </trkpt>
      <trkpt lat="43.84472" lon="7.31706">
        <ele>759.442581</ele>
        <time>2011-09-04T13:01:40Z</time>
      </trkpt>
      <trkpt lat="43.84482" lon="7.31703">
        <ele>761.442589</ele>
        <time>2011-09-04T13:01:43Z</time>
      </trkpt>
      <trkpt lat="43.84496" lon="7.31693">
        <ele>763.442589</ele>
        <time>2011-09-04T13:01:50Z</time>
      </trkpt>
      <trkpt lat="43.84504" lon="7.31685">
        <ele>766.442581</ele>
        <time>2011-09-04T13:01:55Z</time>
      </trkpt>
      <trkpt lat="43.84513" lon="7.31674">
        <ele>766.442574</ele>
        <time>2011-09-04T13:01:59Z</time>
      </trkpt>
      <trkpt lat="43.84522" lon="7.31665">
        <ele>767.442566</ele>
        <time>2011-09-04T13:02:02Z</time>
      </trkpt>
      <trkpt lat="43.84536" lon="7.31651">
        <ele>767.442551</ele>
        <time>2011-09-04T13:02:06Z</time>
      </trkpt>
      <trkpt lat="43.84544" lon="7.31644">
        <ele>768.442551</ele>
        <time>2011-09-04T13:02:08Z</time>
      </trkpt>
      <trkpt lat="43.84551" lon="7.31637">
        <ele>768.442543</ele>
        <time>2011-09-04T13:02:10Z</time>
      </trkpt>
      <trkpt lat="43.84562" lon="7.31626">
        <ele>768.442535</ele>
        <time>2011-09-04T13:02:13Z</time>
      </trkpt>
      <trkpt lat="43.84573" lon="7.31617">
        <ele>769.442528</ele>
        <time>2011-09-04T13:02:16Z</time>
      </trkpt>
      <trkpt lat="43.84583" lon="7.31608">
        <ele>769.442524</ele>
        <time>2011-09-04T13:02:19Z</time>
      </trkpt>
      <trkpt lat="43.84593" lon="7.31599">
        <ele>769.442524</ele>
        <time>2011-09-04T13:02:22Z</time>
      </trkpt>
      <trkpt lat="43.84602" lon="7.31589">
        <ele>769.442513</ele>
        <time>2011-09-04T13:02:25Z</time>
      </trkpt>
      <trkpt lat="43.84612" lon="7.3158">
        <ele>769.442509</ele>
        <time>2011-09-04T13:02:28Z</time>
      </trkpt>
      <trkpt lat="43.84621" lon="7.31572">
        <ele>769.442501</ele>
        <time>2011-09-04T13:02:31Z</time>
      </trkpt>
      <trkpt lat="43.8463" lon="7.31565">
        <ele>769.442501</ele>
        <time>2011-09-04T13:02:34Z</time>
      </trkpt>
      <trkpt lat="43.84639" lon="7.3156">
        <ele>770.442505</ele>
        <time>2011-09-04T13:02:37Z</time>
      </trkpt>
      <trkpt lat="43.84658" lon="7.31557">
        <ele>773.44252</ele>
        <time>2011-09-04T13:02:46Z</time>
      </trkpt>
      <trkpt lat="43.84673" lon="7.31567">
        <ele>776.442566</ele>
        <time>2011-09-04T13:02:57Z</time>
      </trkpt>
      <trkpt lat="43.8468" lon="7.31577">
        <ele>795.442589</ele>
        <time>2011-09-04T13:06:05Z</time>
      </trkpt>
      <trkpt lat="43.84692" lon="7.3159">
        <ele>795.442638</ele>
        <time>2011-09-04T13:06:12Z</time>
      </trkpt>
      <trkpt lat="43.84702" lon="7.31606">
        <ele>793.44268</ele>
        <time>2011-09-04T13:06:20Z</time>
      </trkpt>
      <trkpt lat="43.84704" lon="7.3161">
        <ele>792.442692</ele>
        <time>2011-09-04T13:06:26Z</time>
      </trkpt>
      <trkpt lat="43.84715" lon="7.31618">
        <ele>792.442722</ele>
        <time>2011-09-04T13:06:27Z</time>
      </trkpt>
      <trkpt lat="43.84718" lon="7.31619">
        <ele>792.442734</ele>
        <time>2011-09-04T13:06:28Z</time>
      </trkpt>
      <trkpt lat="43.84727" lon="7.31622">
        <ele>792.442749</ele>
        <time>2011-09-04T13:06:31Z</time>
      </trkpt>
      <trkpt lat="43.8473" lon="7.31622">
        <ele>792.442757</ele>
        <time>2011-09-04T13:06:32Z</time>
      </trkpt>
      <trkpt lat="43.84741" lon="7.31624">
        <ele>792.442772</ele>
        <time>2011-09-04T13:06:35Z</time>
      </trkpt>
      <trkpt lat="43.84754" lon="7.31623">
        <ele>792.442787</ele>
        <time>2011-09-04T13:06:38Z</time>
      </trkpt>
      <trkpt lat="43.84764" lon="7.31623">
        <ele>791.442802</ele>
        <time>2011-09-04T13:06:40Z</time>
      </trkpt>
      <trkpt lat="43.84774" lon="7.31625">
        <ele>790.442818</ele>
        <time>2011-09-04T13:06:42Z</time>
      </trkpt>
      <trkpt lat="43.84784" lon="7.31628">
        <ele>787.442841</ele>
        <time>2011-09-04T13:06:44Z</time>
      </trkpt>
      <trkpt lat="43.84793" lon="7.31631">
        <ele>785.442856</ele>
        <time>2011-09-04T13:06:46Z</time>
      </trkpt>
      <trkpt lat="43.84802" lon="7.31632">
        <ele>783.442871</ele>
        <time>2011-09-04T13:06:48Z</time>
      </trkpt>
      <trkpt lat="43.84811" lon="7.31634">
        <ele>783.442886</ele>
        <time>2011-09-04T13:06:50Z</time>
      </trkpt>
      <trkpt lat="43.84823" lon="7.31633">
        <ele>782.442902</ele>
        <time>2011-09-04T13:06:53Z</time>
      </trkpt>
      <trkpt lat="43.84833" lon="7.31632">
        <ele>780.442917</ele>
        <time>2011-09-04T13:06:56Z</time>
      </trkpt>
      <trkpt lat="43.84843" lon="7.31631">
        <ele>779.442921</ele>
        <time>2011-09-04T13:06:59Z</time>
      </trkpt>
      <trkpt lat="43.84852" lon="7.31631">
        <ele>777.442932</ele>
        <time>2011-09-04T13:07:02Z</time>
      </trkpt>
      <trkpt lat="43.84864" lon="7.31633">
        <ele>775.442955</ele>
        <time>2011-09-04T13:07:06Z</time>
      </trkpt>
      <trkpt lat="43.84875" lon="7.31634">
        <ele>775.442974</ele>
        <time>2011-09-04T13:07:10Z</time>
      </trkpt>
      <trkpt lat="43.84887" lon="7.31632">
        <ele>774.442986</ele>
        <time>2011-09-04T13:07:14Z</time>
      </trkpt>
      <trkpt lat="43.84896" lon="7.31627">
        <ele>774.442986</ele>
        <time>2011-09-04T13:07:17Z</time>
      </trkpt>
      <trkpt lat="43.84905" lon="7.31621">
        <ele>774.442986</ele>
        <time>2011-09-04T13:07:21Z</time>
      </trkpt>
      <trkpt lat="43.84915" lon="7.31618">
        <ele>773.442993</ele>
        <time>2011-09-04T13:07:25Z</time>
      </trkpt>
      <trkpt lat="43.84924" lon="7.31615">
        <ele>773.443001</ele>
        <time>2011-09-04T13:07:28Z</time>
      </trkpt>
      <trkpt lat="43.84935" lon="7.31612">
        <ele>773.443008</ele>
        <time>2011-09-04T13:07:31Z</time>
      </trkpt>
      <trkpt lat="43.84945" lon="7.31609">
        <ele>772.443016</ele>
        <time>2011-09-04T13:07:34Z</time>
      </trkpt>
      <trkpt lat="43.84956" lon="7.31603">
        <ele>771.44302</ele>
        <time>2011-09-04T13:07:37Z</time>
      </trkpt>
      <trkpt lat="43.8496" lon="7.31601">
        <ele>771.443016</ele>
        <time>2011-09-04T13:07:38Z</time>
      </trkpt>
      <trkpt lat="43.84969" lon="7.31595">
        <ele>769.44302</ele>
        <time>2011-09-04T13:07:40Z</time>
      </trkpt>
      <trkpt lat="43.84977" lon="7.3159">
        <ele>769.443016</ele>
        <time>2011-09-04T13:07:42Z</time>
      </trkpt>
      <trkpt lat="43.84988" lon="7.31586">
        <ele>768.443024</ele>
        <time>2011-09-04T13:07:45Z</time>
      </trkpt>
      <trkpt lat="43.84997" lon="7.31585">
        <ele>767.443031</ele>
        <time>2011-09-04T13:07:48Z</time>
      </trkpt>
      <trkpt lat="43.85006" lon="7.31579">
        <ele>768.443031</ele>
        <time>2011-09-04T13:07:52Z</time>
      </trkpt>
      <trkpt lat="43.85014" lon="7.31573">
        <ele>766.443031</ele>
        <time>2011-09-04T13:07:56Z</time>
      </trkpt>
      <trkpt lat="43.85024" lon="7.31573">
        <ele>765.443047</ele>
        <time>2011-09-04T13:08:00Z</time>
      </trkpt>
      <trkpt lat="43.85035" lon="7.31579">
        <ele>764.443073</ele>
        <time>2011-09-04T13:08:03Z</time>
      </trkpt>
      <trkpt lat="43.85044" lon="7.31587">
        <ele>764.4431</ele>
        <time>2011-09-04T13:08:05Z</time>
      </trkpt>
      <trkpt lat="43.85053" lon="7.31596">
        <ele>764.44313</ele>
        <time>2011-09-04T13:08:07Z</time>
      </trkpt>
      <trkpt lat="43.8506" lon="7.31605">
        <ele>764.443157</ele>
        <time>2011-09-04T13:08:09Z</time>
      </trkpt>
      <trkpt lat="43.85067" lon="7.31613">
        <ele>765.443188</ele>
        <time>2011-09-04T13:08:12Z</time>
      </trkpt>
      <trkpt lat="43.85078" lon="7.31632">
        <ele>768.443241</ele>
        <time>2011-09-04T13:08:20Z</time>
      </trkpt>
      <trkpt lat="43.85079" lon="7.31636">
        <ele>769.443253</ele>
        <time>2011-09-04T13:08:21Z</time>
      </trkpt>
      <trkpt lat="43.85084" lon="7.31654">
        <ele>771.443295</ele>
        <time>2011-09-04T13:08:24Z</time>
      </trkpt>
      <trkpt lat="43.8509" lon="7.31667">
        <ele>771.443329</ele>
        <time>2011-09-04T13:08:26Z</time>
      </trkpt>
      <trkpt lat="43.85099" lon="7.31676">
        <ele>773.443359</ele>
        <time>2011-09-04T13:08:28Z</time>
      </trkpt>
      <trkpt lat="43.85109" lon="7.31682">
        <ele>773.443386</ele>
        <time>2011-09-04T13:08:30Z</time>
      </trkpt>
      <trkpt lat="43.85119" lon="7.31685">
        <ele>772.443405</ele>
        <time>2011-09-04T13:08:32Z</time>
      </trkpt>
      <trkpt lat="43.85129" lon="7.31684">
        <ele>772.443417</ele>
        <time>2011-09-04T13:08:34Z</time>
      </trkpt>
      <trkpt lat="43.85139" lon="7.31682">
        <ele>771.443428</ele>
        <time>2011-09-04T13:08:36Z</time>
      </trkpt>
      <trkpt lat="43.85151" lon="7.31677">
        <ele>768.443428</ele>
        <time>2011-09-04T13:08:39Z</time>
      </trkpt>
      <trkpt lat="43.8516" lon="7.31676">
        <ele>766.443443</ele>
        <time>2011-09-04T13:08:43Z</time>
      </trkpt>
      <trkpt lat="43.85169" lon="7.31682">
        <ele>763.443466</ele>
        <time>2011-09-04T13:08:59Z</time>
      </trkpt>
      <trkpt lat="43.85176" lon="7.31695">
        <ele>763.443504</ele>
        <time>2011-09-04T13:09:48Z</time>
      </trkpt>
      <trkpt lat="43.85179" lon="7.31699">
        <ele>763.443516</ele>
        <time>2011-09-04T13:09:49Z</time>
      </trkpt>
      <trkpt lat="43.85187" lon="7.31713">
        <ele>762.443554</ele>
        <time>2011-09-04T13:09:52Z</time>
      </trkpt>
      <trkpt lat="43.85191" lon="7.31727">
        <ele>761.443592</ele>
        <time>2011-09-04T13:09:54Z</time>
      </trkpt>
      <trkpt lat="43.85195" lon="7.3174">
        <ele>761.443626</ele>
        <time>2011-09-04T13:09:56Z</time>
      </trkpt>
      <trkpt lat="43.85197" lon="7.31749">
        <ele>761.443642</ele>
        <time>2011-09-04T13:10:00Z</time>
      </trkpt>
      <trkpt lat="43.85198" lon="7.31762">
        <ele>759.443672</ele>
        <time>2011-09-04T13:10:03Z</time>
      </trkpt>
      <trkpt lat="43.85204" lon="7.31775">
        <ele>757.443707</ele>
        <time>2011-09-04T13:10:08Z</time>
      </trkpt>
      <trkpt lat="43.85214" lon="7.31778">
        <ele>756.443726</ele>
        <time>2011-09-04T13:10:11Z</time>
      </trkpt>
      <trkpt lat="43.85227" lon="7.31777">
        <ele>754.443741</ele>
        <time>2011-09-04T13:10:14Z</time>
      </trkpt>
      <trkpt lat="43.85236" lon="7.31775">
        <ele>753.443748</ele>
        <time>2011-09-04T13:10:16Z</time>
      </trkpt>
      <trkpt lat="43.85248" lon="7.31772">
        <ele>751.443756</ele>
        <time>2011-09-04T13:10:19Z</time>
      </trkpt>
      <trkpt lat="43.85258" lon="7.3177">
        <ele>750.443768</ele>
        <time>2011-09-04T13:10:22Z</time>
      </trkpt>
      <trkpt lat="43.85267" lon="7.3177">
        <ele>747.443779</ele>
        <time>2011-09-04T13:10:26Z</time>
      </trkpt>
      <trkpt lat="43.85276" lon="7.31773">
        <ele>746.443798</ele>
        <time>2011-09-04T13:10:30Z</time>
      </trkpt>
      <trkpt lat="43.85284" lon="7.31779">
        <ele>745.443821</ele>
        <time>2011-09-04T13:10:33Z</time>
      </trkpt>
      <trkpt lat="43.85293" lon="7.31786">
        <ele>745.443848</ele>
        <time>2011-09-04T13:10:36Z</time>
      </trkpt>
      <trkpt lat="43.85304" lon="7.31794">
        <ele>743.443878</ele>
        <time>2011-09-04T13:10:39Z</time>
      </trkpt>
      <trkpt lat="43.85316" lon="7.31803">
        <ele>743.443909</ele>
        <time>2011-09-04T13:10:42Z</time>
      </trkpt>
      <trkpt lat="43.85323" lon="7.31811">
        <ele>743.443939</ele>
        <time>2011-09-04T13:10:44Z</time>
      </trkpt>
      <trkpt lat="43.85331" lon="7.31821">
        <ele>744.44397</ele>
        <time>2011-09-04T13:10:46Z</time>
      </trkpt>
      <trkpt lat="43.85338" lon="7.31829">
        <ele>744.444</ele>
        <time>2011-09-04T13:10:48Z</time>
      </trkpt>
      <trkpt lat="43.8535" lon="7.31836">
        <ele>745.444031</ele>
        <time>2011-09-04T13:10:51Z</time>
      </trkpt>
      <trkpt lat="43.85363" lon="7.31839">
        <ele>744.44405</ele>
        <time>2011-09-04T13:10:54Z</time>
      </trkpt>
      <trkpt lat="43.85372" lon="7.31842">
        <ele>744.444069</ele>
        <time>2011-09-04T13:10:56Z</time>
      </trkpt>
      <trkpt lat="43.85381" lon="7.31844">
        <ele>744.444088</ele>
        <time>2011-09-04T13:10:58Z</time>
      </trkpt>
      <trkpt lat="43.8539" lon="7.3185">
        <ele>744.444107</ele>
        <time>2011-09-04T13:11:00Z</time>
      </trkpt>
      <trkpt lat="43.85398" lon="7.31857">
        <ele>744.444138</ele>
        <time>2011-09-04T13:11:02Z</time>
      </trkpt>
      <trkpt lat="43.85408" lon="7.31862">
        <ele>743.44416</ele>
        <time>2011-09-04T13:11:04Z</time>
      </trkpt>
      <trkpt lat="43.85419" lon="7.31868">
        <ele>741.444183</ele>
        <time>2011-09-04T13:11:07Z</time>
      </trkpt>
      <trkpt lat="43.85422" lon="7.3187">
        <ele>741.444191</ele>
        <time>2011-09-04T13:11:08Z</time>
      </trkpt>
      <trkpt lat="43.85428" lon="7.3188">
        <ele>740.444221</ele>
        <time>2011-09-04T13:11:12Z</time>
      </trkpt>
      <trkpt lat="43.85433" lon="7.3189">
        <ele>740.444252</ele>
        <time>2011-09-04T13:11:16Z</time>
      </trkpt>
      <trkpt lat="43.85443" lon="7.31899">
        <ele>740.444283</ele>
        <time>2011-09-04T13:11:20Z</time>
      </trkpt>
      <trkpt lat="43.85451" lon="7.31905">
        <ele>740.444305</ele>
        <time>2011-09-04T13:11:23Z</time>
      </trkpt>
      <trkpt lat="43.85461" lon="7.31914">
        <ele>739.44434</ele>
        <time>2011-09-04T13:11:27Z</time>
      </trkpt>
      <trkpt lat="43.85471" lon="7.31921">
        <ele>739.444366</ele>
        <time>2011-09-04T13:11:31Z</time>
      </trkpt>
      <trkpt lat="43.85482" lon="7.31924">
        <ele>738.444389</ele>
        <time>2011-09-04T13:11:35Z</time>
      </trkpt>
      <trkpt lat="43.85488" lon="7.31926">
        <ele>737.444405</ele>
        <time>2011-09-04T13:11:38Z</time>
      </trkpt>
      <trkpt lat="43.85501" lon="7.31924">
        <ele>721.444412</ele>
        <time>2011-09-04T13:13:13Z</time>
      </trkpt>
      <trkpt lat="43.8551" lon="7.31921">
        <ele>721.444424</ele>
        <time>2011-09-04T13:13:31Z</time>
      </trkpt>
      <trkpt lat="43.85522" lon="7.31925">
        <ele>728.444443</ele>
        <time>2011-09-04T13:14:10Z</time>
      </trkpt>
      <trkpt lat="43.85523" lon="7.31924">
        <ele>728.444443</ele>
        <time>2011-09-04T13:14:13Z</time>
      </trkpt>
      <trkpt lat="43.85532" lon="7.31914">
        <ele>729.444435</ele>
        <time>2011-09-04T13:14:16Z</time>
      </trkpt>
      <trkpt lat="43.85545" lon="7.31898">
        <ele>727.44442</ele>
        <time>2011-09-04T13:14:22Z</time>
      </trkpt>
      <trkpt lat="43.85554" lon="7.31891">
        <ele>726.44442</ele>
        <time>2011-09-04T13:14:25Z</time>
      </trkpt>
      <trkpt lat="43.85564" lon="7.31885">
        <ele>726.44442</ele>
        <time>2011-09-04T13:14:28Z</time>
      </trkpt>
      <trkpt lat="43.85575" lon="7.3188">
        <ele>726.44442</ele>
        <time>2011-09-04T13:14:31Z</time>
      </trkpt>
      <trkpt lat="43.85585" lon="7.31875">
        <ele>727.444427</ele>
        <time>2011-09-04T13:14:34Z</time>
      </trkpt>
      <trkpt lat="43.85596" lon="7.31873">
        <ele>728.444435</ele>
        <time>2011-09-04T13:14:37Z</time>
      </trkpt>
      <trkpt lat="43.85607" lon="7.3187">
        <ele>729.444443</ele>
        <time>2011-09-04T13:14:40Z</time>
      </trkpt>
      <trkpt lat="43.85616" lon="7.31867">
        <ele>729.44445</ele>
        <time>2011-09-04T13:14:43Z</time>
      </trkpt>
      <trkpt lat="43.85618" lon="7.31867">
        <ele>729.444454</ele>
        <time>2011-09-04T13:14:44Z</time>
      </trkpt>
      <trkpt lat="43.85631" lon="7.31868">
        <ele>728.444473</ele>
        <time>2011-09-04T13:14:50Z</time>
      </trkpt>
      <trkpt lat="43.85645" lon="7.3187">
        <ele>728.444496</ele>
        <time>2011-09-04T13:14:53Z</time>
      </trkpt>
      <trkpt lat="43.85655" lon="7.31874">
        <ele>727.444519</ele>
        <time>2011-09-04T13:14:55Z</time>
      </trkpt>
      <trkpt lat="43.8566" lon="7.31876">
        <ele>727.444527</ele>
        <time>2011-09-04T13:14:56Z</time>
      </trkpt>
      <trkpt lat="43.85669" lon="7.31882">
        <ele>727.444553</ele>
        <time>2011-09-04T13:14:58Z</time>
      </trkpt>
      <trkpt lat="43.85678" lon="7.31893">
        <ele>727.444588</ele>
        <time>2011-09-04T13:15:01Z</time>
      </trkpt>
      <trkpt lat="43.85684" lon="7.31905">
        <ele>727.444618</ele>
        <time>2011-09-04T13:15:04Z</time>
      </trkpt>
      <trkpt lat="43.85684" lon="7.31918">
        <ele>727.444649</ele>
        <time>2011-09-04T13:15:07Z</time>
      </trkpt>
      <trkpt lat="43.85682" lon="7.31923">
        <ele>727.444656</ele>
        <time>2011-09-04T13:15:08Z</time>
      </trkpt>
      <trkpt lat="43.85679" lon="7.31939">
        <ele>728.444687</ele>
        <time>2011-09-04T13:15:11Z</time>
      </trkpt>
      <trkpt lat="43.85679" lon="7.31943">
        <ele>728.444695</ele>
        <time>2011-09-04T13:15:12Z</time>
      </trkpt>
      <trkpt lat="43.85675" lon="7.3196">
        <ele>729.444725</ele>
        <time>2011-09-04T13:15:18Z</time>
      </trkpt>
      <trkpt lat="43.85676" lon="7.3196">
        <ele>731.444725</ele>
        <time>2011-09-04T13:15:21Z</time>
      </trkpt>
      <trkpt lat="43.85679" lon="7.31976">
        <ele>730.444759</ele>
        <time>2011-09-04T13:15:40Z</time>
      </trkpt>
      <trkpt lat="43.85681" lon="7.31977">
        <ele>729.444767</ele>
        <time>2011-09-04T13:15:47Z</time>
      </trkpt>
      <trkpt lat="43.85682" lon="7.31996">
        <ele>727.444809</ele>
        <time>2011-09-04T13:16:21Z</time>
      </trkpt>
      <trkpt lat="43.85683" lon="7.31999">
        <ele>727.444809</ele>
        <time>2011-09-04T13:16:25Z</time>
      </trkpt>
      <trkpt lat="43.85691" lon="7.32007">
        <ele>723.444839</ele>
        <time>2011-09-04T13:16:31Z</time>
      </trkpt>
      <trkpt lat="43.85701" lon="7.32013">
        <ele>718.444862</ele>
        <time>2011-09-04T13:16:43Z</time>
      </trkpt>
      <trkpt lat="43.85711" lon="7.32014">
        <ele>711.444881</ele>
        <time>2011-09-04T13:16:58Z</time>
      </trkpt>
      <trkpt lat="43.85711" lon="7.32014">
        <ele>709.444885</ele>
        <time>2011-09-04T13:17:00Z</time>
      </trkpt>
      <trkpt lat="43.85721" lon="7.32018">
        <ele>698.444901</ele>
        <time>2011-09-04T13:17:44Z</time>
      </trkpt>
      <trkpt lat="43.85732" lon="7.32021">
        <ele>697.444923</ele>
        <time>2011-09-04T13:17:47Z</time>
      </trkpt>
      <trkpt lat="43.8574" lon="7.32021">
        <ele>696.444939</ele>
        <time>2011-09-04T13:17:49Z</time>
      </trkpt>
      <trkpt lat="43.85751" lon="7.32018">
        <ele>695.444942</ele>
        <time>2011-09-04T13:17:52Z</time>
      </trkpt>
      <trkpt lat="43.85761" lon="7.32015">
        <ele>694.444954</ele>
        <time>2011-09-04T13:17:55Z</time>
      </trkpt>
      <trkpt lat="43.85771" lon="7.32016">
        <ele>693.444962</ele>
        <time>2011-09-04T13:17:58Z</time>
      </trkpt>
      <trkpt lat="43.85779" lon="7.32022">
        <ele>695.444988</ele>
        <time>2011-09-04T13:18:05Z</time>
      </trkpt>
      <trkpt lat="43.85784" lon="7.32031">
        <ele>695.445015</ele>
        <time>2011-09-04T13:18:11Z</time>
      </trkpt>
      <trkpt lat="43.85791" lon="7.32045">
        <ele>694.445053</ele>
        <time>2011-09-04T13:18:15Z</time>
      </trkpt>
      <trkpt lat="43.85795" lon="7.32057">
        <ele>694.445084</ele>
        <time>2011-09-04T13:18:18Z</time>
      </trkpt>
      <trkpt lat="43.858" lon="7.32069">
        <ele>696.445114</ele>
        <time>2011-09-04T13:18:21Z</time>
      </trkpt>
      <trkpt lat="43.85807" lon="7.32077">
        <ele>697.445137</ele>
        <time>2011-09-04T13:18:24Z</time>
      </trkpt>
      <trkpt lat="43.85818" lon="7.32078">
        <ele>698.44516</ele>
        <time>2011-09-04T13:18:27Z</time>
      </trkpt>
      <trkpt lat="43.85829" lon="7.32074">
        <ele>699.445168</ele>
        <time>2011-09-04T13:18:30Z</time>
      </trkpt>
      <trkpt lat="43.85842" lon="7.32073">
        <ele>700.445179</ele>
        <time>2011-09-04T13:18:33Z</time>
      </trkpt>
      <trkpt lat="43.85852" lon="7.32073">
        <ele>700.44519</ele>
        <time>2011-09-04T13:18:35Z</time>
      </trkpt>
      <trkpt lat="43.85864" lon="7.32075">
        <ele>700.445213</ele>
        <time>2011-09-04T13:18:37Z</time>
      </trkpt>
      <trkpt lat="43.85874" lon="7.32076">
        <ele>699.445232</ele>
        <time>2011-09-04T13:18:39Z</time>
      </trkpt>
      <trkpt lat="43.85883" lon="7.32075">
        <ele>698.445236</ele>
        <time>2011-09-04T13:18:41Z</time>
      </trkpt>
      <trkpt lat="43.85895" lon="7.32072">
        <ele>697.445251</ele>
        <time>2011-09-04T13:18:44Z</time>
      </trkpt>
      <trkpt lat="43.85905" lon="7.3207">
        <ele>697.445259</ele>
        <time>2011-09-04T13:18:47Z</time>
      </trkpt>
      <trkpt lat="43.85916" lon="7.3207">
        <ele>695.445271</ele>
        <time>2011-09-04T13:18:54Z</time>
      </trkpt>
      <trkpt lat="43.85917" lon="7.32071">
        <ele>695.445274</ele>
        <time>2011-09-04T13:18:55Z</time>
      </trkpt>
      <trkpt lat="43.85927" lon="7.32075">
        <ele>695.445297</ele>
        <time>2011-09-04T13:19:02Z</time>
      </trkpt>
      <trkpt lat="43.85931" lon="7.32076">
        <ele>694.445305</ele>
        <time>2011-09-04T13:19:03Z</time>
      </trkpt>
      <trkpt lat="43.85942" lon="7.32074">
        <ele>693.445316</ele>
        <time>2011-09-04T13:19:06Z</time>
      </trkpt>
      <trkpt lat="43.85952" lon="7.32069">
        <ele>691.44532</ele>
        <time>2011-09-04T13:19:10Z</time>
      </trkpt>
      <trkpt lat="43.85959" lon="7.32067">
        <ele>690.445324</ele>
        <time>2011-09-04T13:19:13Z</time>
      </trkpt>
      <trkpt lat="43.85969" lon="7.32066">
        <ele>689.445335</ele>
        <time>2011-09-04T13:19:21Z</time>
      </trkpt>
      <trkpt lat="43.85979" lon="7.32062">
        <ele>688.445339</ele>
        <time>2011-09-04T13:19:26Z</time>
      </trkpt>
      <trkpt lat="43.85992" lon="7.32061">
        <ele>686.445358</ele>
        <time>2011-09-04T13:19:30Z</time>
      </trkpt>
      <trkpt lat="43.86001" lon="7.32067">
        <ele>686.445381</ele>
        <time>2011-09-04T13:19:32Z</time>
      </trkpt>
      <trkpt lat="43.86009" lon="7.32073">
        <ele>685.4454</ele>
        <time>2011-09-04T13:19:35Z</time>
      </trkpt>
      <trkpt lat="43.86012" lon="7.32074">
        <ele>685.445412</ele>
        <time>2011-09-04T13:19:37Z</time>
      </trkpt>
      <trkpt lat="43.86017" lon="7.32087">
        <ele>682.445442</ele>
        <time>2011-09-04T13:19:55Z</time>
      </trkpt>
      <trkpt lat="43.86017" lon="7.32098">
        <ele>683.445465</ele>
        <time>2011-09-04T13:20:04Z</time>
      </trkpt>
      <trkpt lat="43.86022" lon="7.3211">
        <ele>684.445496</ele>
        <time>2011-09-04T13:20:06Z</time>
      </trkpt>
      <trkpt lat="43.86026" lon="7.32121">
        <ele>688.445526</ele>
        <time>2011-09-04T13:20:13Z</time>
      </trkpt>
      <trkpt lat="43.86029" lon="7.32136">
        <ele>690.44556</ele>
        <time>2011-09-04T13:20:18Z</time>
      </trkpt>
      <trkpt lat="43.86025" lon="7.3215">
        <ele>692.44558</ele>
        <time>2011-09-04T13:20:22Z</time>
      </trkpt>
      <trkpt lat="43.86022" lon="7.32163">
        <ele>691.445606</ele>
        <time>2011-09-04T13:20:26Z</time>
      </trkpt>
      <trkpt lat="43.86019" lon="7.32176">
        <ele>689.445629</ele>
        <time>2011-09-04T13:20:30Z</time>
      </trkpt>
      <trkpt lat="43.86018" lon="7.32189">
        <ele>689.445656</ele>
        <time>2011-09-04T13:20:34Z</time>
      </trkpt>
      <trkpt lat="43.86021" lon="7.32202">
        <ele>689.445683</ele>
        <time>2011-09-04T13:20:38Z</time>
      </trkpt>
      <trkpt lat="43.86026" lon="7.32213">
        <ele>689.445713</ele>
        <time>2011-09-04T13:20:42Z</time>
      </trkpt>
      <trkpt lat="43.86033" lon="7.32225">
        <ele>689.445747</ele>
        <time>2011-09-04T13:20:46Z</time>
      </trkpt>
      <trkpt lat="43.86038" lon="7.32241">
        <ele>689.445793</ele>
        <time>2011-09-04T13:20:51Z</time>
      </trkpt>
      <trkpt lat="43.86039" lon="7.32244">
        <ele>688.445797</ele>
        <time>2011-09-04T13:20:55Z</time>
      </trkpt>
      <trkpt lat="43.86045" lon="7.32267">
        <ele>688.445854</ele>
        <time>2011-09-04T13:20:59Z</time>
      </trkpt>
      <trkpt lat="43.86049" lon="7.32281">
        <ele>688.445885</ele>
        <time>2011-09-04T13:21:02Z</time>
      </trkpt>
      <trkpt lat="43.86053" lon="7.32292">
        <ele>688.445915</ele>
        <time>2011-09-04T13:21:05Z</time>
      </trkpt>
      <trkpt lat="43.8606" lon="7.32304">
        <ele>688.445953</ele>
        <time>2011-09-04T13:21:09Z</time>
      </trkpt>
      <trkpt lat="43.86068" lon="7.3233">
        <ele>688.446014</ele>
        <time>2011-09-04T13:21:20Z</time>
      </trkpt>
      <trkpt lat="43.86074" lon="7.32338">
        <ele>690.446041</ele>
        <time>2011-09-04T13:21:28Z</time>
      </trkpt>
      <trkpt lat="43.86084" lon="7.32341">
        <ele>692.446056</ele>
        <time>2011-09-04T13:21:49Z</time>
      </trkpt>
      <trkpt lat="43.86088" lon="7.32354">
        <ele>691.446091</ele>
        <time>2011-09-04T13:21:56Z</time>
      </trkpt>
      <trkpt lat="43.86094" lon="7.32377">
        <ele>692.446144</ele>
        <time>2011-09-04T13:22:07Z</time>
      </trkpt>
      <trkpt lat="43.86099" lon="7.32407">
        <ele>691.446213</ele>
        <time>2011-09-04T13:22:22Z</time>
      </trkpt>
      <trkpt lat="43.86102" lon="7.32421">
        <ele>691.446243</ele>
        <time>2011-09-04T13:22:29Z</time>
      </trkpt>
      <trkpt lat="43.86106" lon="7.32431">
        <ele>691.446274</ele>
        <time>2011-09-04T13:22:34Z</time>
      </trkpt>
      <trkpt lat="43.86114" lon="7.3244">
        <ele>691.446301</ele>
        <time>2011-09-04T13:22:40Z</time>
      </trkpt>
      <trkpt lat="43.86115" lon="7.3244">
        <ele>691.446304</ele>
        <time>2011-09-04T13:22:41Z</time>
      </trkpt>
      <trkpt lat="43.86126" lon="7.32443">
        <ele>690.446323</ele>
        <time>2011-09-04T13:22:47Z</time>
      </trkpt>
      <trkpt lat="43.86129" lon="7.32443">
        <ele>689.446327</ele>
        <time>2011-09-04T13:22:49Z</time>
      </trkpt>
      <trkpt lat="43.86139" lon="7.32439">
        <ele>688.446335</ele>
        <time>2011-09-04T13:22:54Z</time>
      </trkpt>
      <trkpt lat="43.86142" lon="7.32438">
        <ele>688.446335</ele>
        <time>2011-09-04T13:22:56Z</time>
      </trkpt>
      <trkpt lat="43.86151" lon="7.32434">
        <ele>687.446335</ele>
        <time>2011-09-04T13:23:01Z</time>
      </trkpt>
      <trkpt lat="43.86156" lon="7.32433">
        <ele>687.446346</ele>
        <time>2011-09-04T13:23:04Z</time>
      </trkpt>
      <trkpt lat="43.86167" lon="7.32433">
        <ele>686.446358</ele>
        <time>2011-09-04T13:23:10Z</time>
      </trkpt>
      <trkpt lat="43.86178" lon="7.32432">
        <ele>686.446373</ele>
        <time>2011-09-04T13:23:16Z</time>
      </trkpt>
      <trkpt lat="43.86186" lon="7.32426">
        <ele>686.446373</ele>
        <time>2011-09-04T13:23:21Z</time>
      </trkpt>
      <trkpt lat="43.86195" lon="7.32418">
        <ele>686.446369</ele>
        <time>2011-09-04T13:23:26Z</time>
      </trkpt>
      <trkpt lat="43.86203" lon="7.3241">
        <ele>686.446358</ele>
        <time>2011-09-04T13:23:31Z</time>
      </trkpt>
      <trkpt lat="43.86211" lon="7.32401">
        <ele>685.446354</ele>
        <time>2011-09-04T13:23:36Z</time>
      </trkpt>
      <trkpt lat="43.86218" lon="7.32392">
        <ele>684.446342</ele>
        <time>2011-09-04T13:23:41Z</time>
      </trkpt>
      <trkpt lat="43.86226" lon="7.32385">
        <ele>683.446342</ele>
        <time>2011-09-04T13:23:46Z</time>
      </trkpt>
      <trkpt lat="43.86228" lon="7.32384">
        <ele>683.446342</ele>
        <time>2011-09-04T13:23:47Z</time>
      </trkpt>
      <trkpt lat="43.86237" lon="7.32378">
        <ele>684.446339</ele>
        <time>2011-09-04T13:23:52Z</time>
      </trkpt>
      <trkpt lat="43.86246" lon="7.32372">
        <ele>684.446342</ele>
        <time>2011-09-04T13:23:57Z</time>
      </trkpt>
      <trkpt lat="43.86249" lon="7.32371">
        <ele>684.446335</ele>
        <time>2011-09-04T13:23:58Z</time>
      </trkpt>
      <trkpt lat="43.86259" lon="7.32369">
        <ele>685.44635</ele>
        <time>2011-09-04T13:24:01Z</time>
      </trkpt>
      <trkpt lat="43.86266" lon="7.32369">
        <ele>684.446358</ele>
        <time>2011-09-04T13:24:04Z</time>
      </trkpt>
      <trkpt lat="43.86276" lon="7.32371">
        <ele>684.446381</ele>
        <time>2011-09-04T13:24:08Z</time>
      </trkpt>
      <trkpt lat="43.86286" lon="7.32373">
        <ele>685.446392</ele>
        <time>2011-09-04T13:24:12Z</time>
      </trkpt>
      <trkpt lat="43.86296" lon="7.32372">
        <ele>684.446404</ele>
        <time>2011-09-04T13:24:17Z</time>
      </trkpt>
      <trkpt lat="43.86306" lon="7.32368">
        <ele>683.446411</ele>
        <time>2011-09-04T13:24:22Z</time>
      </trkpt>
      <trkpt lat="43.86316" lon="7.32362">
        <ele>684.446411</ele>
        <time>2011-09-04T13:24:27Z</time>
      </trkpt>
      <trkpt lat="43.86325" lon="7.32355">
        <ele>683.446407</ele>
        <time>2011-09-04T13:24:32Z</time>
      </trkpt>
      <trkpt lat="43.86326" lon="7.32353">
        <ele>683.446411</ele>
        <time>2011-09-04T13:24:33Z</time>
      </trkpt>
      <trkpt lat="43.86335" lon="7.32345">
        <ele>684.446404</ele>
        <time>2011-09-04T13:24:38Z</time>
      </trkpt>
      <trkpt lat="43.86343" lon="7.32335">
        <ele>684.446396</ele>
        <time>2011-09-04T13:24:43Z</time>
      </trkpt>
      <trkpt lat="43.86352" lon="7.32328">
        <ele>687.446392</ele>
        <time>2011-09-04T13:24:50Z</time>
      </trkpt>
      <trkpt lat="43.86362" lon="7.32327">
        <ele>680.446404</ele>
        <time>2011-09-04T13:25:25Z</time>
      </trkpt>
      <trkpt lat="43.8637" lon="7.32318">
        <ele>683.446388</ele>
        <time>2011-09-04T13:25:32Z</time>
      </trkpt>
      <trkpt lat="43.86378" lon="7.32311">
        <ele>686.446388</ele>
        <time>2011-09-04T13:25:39Z</time>
      </trkpt>
      <trkpt lat="43.86388" lon="7.32305">
        <ele>688.446388</ele>
        <time>2011-09-04T13:25:45Z</time>
      </trkpt>
      <trkpt lat="43.86397" lon="7.323">
        <ele>689.446392</ele>
        <time>2011-09-04T13:25:50Z</time>
      </trkpt>
      <trkpt lat="43.86407" lon="7.32295">
        <ele>689.446396</ele>
        <time>2011-09-04T13:25:55Z</time>
      </trkpt>
      <trkpt lat="43.86416" lon="7.32291">
        <ele>690.446404</ele>
        <time>2011-09-04T13:25:59Z</time>
      </trkpt>
      <trkpt lat="43.86425" lon="7.32284">
        <ele>690.446396</ele>
        <time>2011-09-04T13:26:04Z</time>
      </trkpt>
      <trkpt lat="43.86434" lon="7.32278">
        <ele>691.4464</ele>
        <time>2011-09-04T13:26:09Z</time>
      </trkpt>
      <trkpt lat="43.86444" lon="7.32274">
        <ele>691.446404</ele>
        <time>2011-09-04T13:26:14Z</time>
      </trkpt>
      <trkpt lat="43.86446" lon="7.32273">
        <ele>691.446404</ele>
        <time>2011-09-04T13:26:15Z</time>
      </trkpt>
      <trkpt lat="43.86454" lon="7.32263">
        <ele>691.446392</ele>
        <time>2011-09-04T13:26:21Z</time>
      </trkpt>
      <trkpt lat="43.86462" lon="7.32263">
        <ele>691.446404</ele>
        <time>2011-09-04T13:26:24Z</time>
      </trkpt>
      <trkpt lat="43.86471" lon="7.32267">
        <ele>692.446423</ele>
        <time>2011-09-04T13:26:27Z</time>
      </trkpt>
      <trkpt lat="43.86479" lon="7.32274">
        <ele>693.446449</ele>
        <time>2011-09-04T13:26:30Z</time>
      </trkpt>
      <trkpt lat="43.86487" lon="7.32281">
        <ele>696.446472</ele>
        <time>2011-09-04T13:26:33Z</time>
      </trkpt>
      <trkpt lat="43.86497" lon="7.32285">
        <ele>699.446495</ele>
        <time>2011-09-04T13:26:37Z</time>
      </trkpt>
      <trkpt lat="43.86504" lon="7.32294">
        <ele>701.446526</ele>
        <time>2011-09-04T13:26:41Z</time>
      </trkpt>
      <trkpt lat="43.86508" lon="7.32306">
        <ele>701.446552</ele>
        <time>2011-09-04T13:26:45Z</time>
      </trkpt>
      <trkpt lat="43.86508" lon="7.32321">
        <ele>700.446587</ele>
        <time>2011-09-04T13:26:50Z</time>
      </trkpt>
      <trkpt lat="43.86509" lon="7.32327">
        <ele>700.446594</ele>
        <time>2011-09-04T13:26:52Z</time>
      </trkpt>
      <trkpt lat="43.86511" lon="7.3234">
        <ele>699.446625</ele>
        <time>2011-09-04T13:26:57Z</time>
      </trkpt>
      <trkpt lat="43.86514" lon="7.32352">
        <ele>699.446659</ele>
        <time>2011-09-04T13:27:02Z</time>
      </trkpt>
      <trkpt lat="43.8652" lon="7.32361">
        <ele>701.446678</ele>
        <time>2011-09-04T13:27:06Z</time>
      </trkpt>
      <trkpt lat="43.86528" lon="7.32368">
        <ele>705.446709</ele>
        <time>2011-09-04T13:27:10Z</time>
      </trkpt>
      <trkpt lat="43.86537" lon="7.3237">
        <ele>707.446724</ele>
        <time>2011-09-04T13:27:14Z</time>
      </trkpt>
      <trkpt lat="43.86548" lon="7.3237">
        <ele>708.446739</ele>
        <time>2011-09-04T13:27:19Z</time>
      </trkpt>
      <trkpt lat="43.86558" lon="7.32367">
        <ele>709.446747</ele>
        <time>2011-09-04T13:27:24Z</time>
      </trkpt>
      <trkpt lat="43.86568" lon="7.32364">
        <ele>710.446754</ele>
        <time>2011-09-04T13:27:29Z</time>
      </trkpt>
      <trkpt lat="43.86579" lon="7.32355">
        <ele>710.446747</ele>
        <time>2011-09-04T13:27:36Z</time>
      </trkpt>
      <trkpt lat="43.86587" lon="7.32346">
        <ele>712.446739</ele>
        <time>2011-09-04T13:27:41Z</time>
      </trkpt>
      <trkpt lat="43.86597" lon="7.32346">
        <ele>713.446754</ele>
        <time>2011-09-04T13:27:47Z</time>
      </trkpt>
      <trkpt lat="43.86606" lon="7.32356">
        <ele>715.446785</ele>
        <time>2011-09-04T13:27:51Z</time>
      </trkpt>
      <trkpt lat="43.86613" lon="7.32364">
        <ele>716.446812</ele>
        <time>2011-09-04T13:27:54Z</time>
      </trkpt>
      <trkpt lat="43.86621" lon="7.32371">
        <ele>717.446838</ele>
        <time>2011-09-04T13:27:57Z</time>
      </trkpt>
      <trkpt lat="43.8663" lon="7.32379">
        <ele>717.446869</ele>
        <time>2011-09-04T13:28:00Z</time>
      </trkpt>
      <trkpt lat="43.86639" lon="7.32387">
        <ele>718.446899</ele>
        <time>2011-09-04T13:28:03Z</time>
      </trkpt>
      <trkpt lat="43.86649" lon="7.32393">
        <ele>718.446922</ele>
        <time>2011-09-04T13:28:06Z</time>
      </trkpt>
      <trkpt lat="43.86658" lon="7.32396">
        <ele>719.446938</ele>
        <time>2011-09-04T13:28:09Z</time>
      </trkpt>
      <trkpt lat="43.86669" lon="7.32398">
        <ele>720.44696</ele>
        <time>2011-09-04T13:28:13Z</time>
      </trkpt>
      <trkpt lat="43.86681" lon="7.32397">
        <ele>720.446972</ele>
        <time>2011-09-04T13:28:17Z</time>
      </trkpt>
      <trkpt lat="43.86691" lon="7.32393">
        <ele>719.446976</ele>
        <time>2011-09-04T13:28:20Z</time>
      </trkpt>
      <trkpt lat="43.86701" lon="7.32388">
        <ele>720.446983</ele>
        <time>2011-09-04T13:28:23Z</time>
      </trkpt>
      <trkpt lat="43.86714" lon="7.32382">
        <ele>719.446987</ele>
        <time>2011-09-04T13:28:26Z</time>
      </trkpt>
      <trkpt lat="43.86723" lon="7.32375">
        <ele>719.446983</ele>
        <time>2011-09-04T13:28:28Z</time>
      </trkpt>
      <trkpt lat="43.8673" lon="7.32368">
        <ele>719.446976</ele>
        <time>2011-09-04T13:28:30Z</time>
      </trkpt>
      <trkpt lat="43.86737" lon="7.3236">
        <ele>719.446976</ele>
        <time>2011-09-04T13:28:32Z</time>
      </trkpt>
      <trkpt lat="43.86744" lon="7.32351">
        <ele>719.446964</ele>
        <time>2011-09-04T13:28:34Z</time>
      </trkpt>
      <trkpt lat="43.86751" lon="7.32341">
        <ele>719.446953</ele>
        <time>2011-09-04T13:28:36Z</time>
      </trkpt>
      <trkpt lat="43.8676" lon="7.32333">
        <ele>720.446945</ele>
        <time>2011-09-04T13:28:39Z</time>
      </trkpt>
      <trkpt lat="43.8677" lon="7.3233">
        <ele>720.446953</ele>
        <time>2011-09-04T13:28:42Z</time>
      </trkpt>
      <trkpt lat="43.86781" lon="7.32324">
        <ele>720.44696</ele>
        <time>2011-09-04T13:28:46Z</time>
      </trkpt>
      <trkpt lat="43.8679" lon="7.32318">
        <ele>718.44696</ele>
        <time>2011-09-04T13:28:50Z</time>
      </trkpt>
      <trkpt lat="43.868" lon="7.32317">
        <ele>718.446968</ele>
        <time>2011-09-04T13:28:53Z</time>
      </trkpt>
      <trkpt lat="43.86811" lon="7.32314">
        <ele>718.446976</ele>
        <time>2011-09-04T13:28:56Z</time>
      </trkpt>
      <trkpt lat="43.86815" lon="7.32313">
        <ele>718.446976</ele>
        <time>2011-09-04T13:28:57Z</time>
      </trkpt>
      <trkpt lat="43.86825" lon="7.32308">
        <ele>718.44698</ele>
        <time>2011-09-04T13:29:00Z</time>
      </trkpt>
      <trkpt lat="43.86834" lon="7.32302">
        <ele>719.44698</ele>
        <time>2011-09-04T13:29:03Z</time>
      </trkpt>
      <trkpt lat="43.86842" lon="7.32296">
        <ele>719.44698</ele>
        <time>2011-09-04T13:29:06Z</time>
      </trkpt>
      <trkpt lat="43.86852" lon="7.32289">
        <ele>720.446976</ele>
        <time>2011-09-04T13:29:10Z</time>
      </trkpt>
      <trkpt lat="43.86861" lon="7.32284">
        <ele>720.446983</ele>
        <time>2011-09-04T13:29:13Z</time>
      </trkpt>
      <trkpt lat="43.86866" lon="7.3228">
        <ele>721.44698</ele>
        <time>2011-09-04T13:29:15Z</time>
      </trkpt>
      <trkpt lat="43.86876" lon="7.32273">
        <ele>720.446976</ele>
        <time>2011-09-04T13:29:19Z</time>
      </trkpt>
      <trkpt lat="43.86885" lon="7.32269">
        <ele>719.446983</ele>
        <time>2011-09-04T13:29:22Z</time>
      </trkpt>
      <trkpt lat="43.86893" lon="7.32264">
        <ele>719.44698</ele>
        <time>2011-09-04T13:29:25Z</time>
      </trkpt>
      <trkpt lat="43.86902" lon="7.32259">
        <ele>719.446983</ele>
        <time>2011-09-04T13:29:28Z</time>
      </trkpt>
      <trkpt lat="43.86906" lon="7.32258">
        <ele>719.446987</ele>
        <time>2011-09-04T13:29:29Z</time>
      </trkpt>
      <trkpt lat="43.86917" lon="7.32253">
        <ele>719.446995</ele>
        <time>2011-09-04T13:29:32Z</time>
      </trkpt>
      <trkpt lat="43.86928" lon="7.32248">
        <ele>720.446995</ele>
        <time>2011-09-04T13:29:35Z</time>
      </trkpt>
      <trkpt lat="43.86938" lon="7.32241">
        <ele>719.446995</ele>
        <time>2011-09-04T13:29:38Z</time>
      </trkpt>
      <trkpt lat="43.86949" lon="7.32235">
        <ele>718.446999</ele>
        <time>2011-09-04T13:29:41Z</time>
      </trkpt>
      <trkpt lat="43.86953" lon="7.32233">
        <ele>717.446999</ele>
        <time>2011-09-04T13:29:42Z</time>
      </trkpt>
      <trkpt lat="43.86963" lon="7.32224">
        <ele>717.446991</ele>
        <time>2011-09-04T13:29:45Z</time>
      </trkpt>
      <trkpt lat="43.8697" lon="7.32219">
        <ele>717.446995</ele>
        <time>2011-09-04T13:29:47Z</time>
      </trkpt>
      <trkpt lat="43.8698" lon="7.32211">
        <ele>718.446991</ele>
        <time>2011-09-04T13:29:50Z</time>
      </trkpt>
      <trkpt lat="43.86983" lon="7.32208">
        <ele>718.446987</ele>
        <time>2011-09-04T13:29:51Z</time>
      </trkpt>
      <trkpt lat="43.86992" lon="7.322">
        <ele>719.446983</ele>
        <time>2011-09-04T13:29:54Z</time>
      </trkpt>
      <trkpt lat="43.86998" lon="7.32194">
        <ele>719.446976</ele>
        <time>2011-09-04T13:29:56Z</time>
      </trkpt>
      <trkpt lat="43.87004" lon="7.32184">
        <ele>720.446964</ele>
        <time>2011-09-04T13:29:59Z</time>
      </trkpt>
      <trkpt lat="43.87009" lon="7.32174">
        <ele>722.446953</ele>
        <time>2011-09-04T13:30:02Z</time>
      </trkpt>
      <trkpt lat="43.87019" lon="7.32165">
        <ele>724.446945</ele>
        <time>2011-09-04T13:30:06Z</time>
      </trkpt>
      <trkpt lat="43.87029" lon="7.32161">
        <ele>727.446953</ele>
        <time>2011-09-04T13:30:10Z</time>
      </trkpt>
      <trkpt lat="43.87032" lon="7.3216">
        <ele>727.446953</ele>
        <time>2011-09-04T13:30:12Z</time>
      </trkpt>
      <trkpt lat="43.87041" lon="7.32154">
        <ele>728.446953</ele>
        <time>2011-09-04T13:30:15Z</time>
      </trkpt>
      <trkpt lat="43.87044" lon="7.32152">
        <ele>728.446953</ele>
        <time>2011-09-04T13:30:17Z</time>
      </trkpt>
      <trkpt lat="43.87053" lon="7.32153">
        <ele>729.446968</ele>
        <time>2011-09-04T13:30:22Z</time>
      </trkpt>
      <trkpt lat="43.87063" lon="7.32154">
        <ele>730.446983</ele>
        <time>2011-09-04T13:30:26Z</time>
      </trkpt>
      <trkpt lat="43.87073" lon="7.32155">
        <ele>731.446999</ele>
        <time>2011-09-04T13:30:30Z</time>
      </trkpt>
      <trkpt lat="43.87079" lon="7.32157">
        <ele>731.447006</ele>
        <time>2011-09-04T13:30:32Z</time>
      </trkpt>
      <trkpt lat="43.87088" lon="7.32162">
        <ele>731.447029</ele>
        <time>2011-09-04T13:30:36Z</time>
      </trkpt>
      <trkpt lat="43.87097" lon="7.32167">
        <ele>732.447052</ele>
        <time>2011-09-04T13:30:44Z</time>
      </trkpt>
      <trkpt lat="43.87099" lon="7.32185">
        <ele>739.447098</ele>
        <time>2011-09-04T13:32:32Z</time>
      </trkpt>
      <trkpt lat="43.87099" lon="7.32188">
        <ele>739.447098</ele>
        <time>2011-09-04T13:32:34Z</time>
      </trkpt>
      <trkpt lat="43.87099" lon="7.32203">
        <ele>737.447128</ele>
        <time>2011-09-04T13:32:43Z</time>
      </trkpt>
      <trkpt lat="43.87101" lon="7.32216">
        <ele>737.447163</ele>
        <time>2011-09-04T13:32:51Z</time>
      </trkpt>
      <trkpt lat="43.87104" lon="7.32229">
        <ele>739.447189</ele>
        <time>2011-09-04T13:32:57Z</time>
      </trkpt>
      <trkpt lat="43.87104" lon="7.32231">
        <ele>739.447197</ele>
        <time>2011-09-04T13:32:59Z</time>
      </trkpt>
      <trkpt lat="43.87106" lon="7.32246">
        <ele>741.447227</ele>
        <time>2011-09-04T13:33:06Z</time>
      </trkpt>
      <trkpt lat="43.87112" lon="7.32252">
        <ele>743.44725</ele>
        <time>2011-09-04T13:33:11Z</time>
      </trkpt>
      <trkpt lat="43.8712" lon="7.32258">
        <ele>743.447273</ele>
        <time>2011-09-04T13:33:17Z</time>
      </trkpt>
      <trkpt lat="43.87131" lon="7.32264">
        <ele>743.4473</ele>
        <time>2011-09-04T13:33:25Z</time>
      </trkpt>
      <trkpt lat="43.87136" lon="7.32275">
        <ele>744.44733</ele>
        <time>2011-09-04T13:33:31Z</time>
      </trkpt>
      <trkpt lat="43.87143" lon="7.32284">
        <ele>744.447357</ele>
        <time>2011-09-04T13:33:39Z</time>
      </trkpt>
      <trkpt lat="43.8715" lon="7.32288">
        <ele>743.447376</ele>
        <time>2011-09-04T13:33:45Z</time>
      </trkpt>
      <trkpt lat="43.8716" lon="7.32292">
        <ele>743.447395</ele>
        <time>2011-09-04T13:33:52Z</time>
      </trkpt>
      <trkpt lat="43.8717" lon="7.32293">
        <ele>741.447414</ele>
        <time>2011-09-04T13:33:59Z</time>
      </trkpt>
      <trkpt lat="43.87178" lon="7.32289">
        <ele>741.447414</ele>
        <time>2011-09-04T13:34:05Z</time>
      </trkpt>
      <trkpt lat="43.87187" lon="7.32286">
        <ele>741.447422</ele>
        <time>2011-09-04T13:34:14Z</time>
      </trkpt>
      <trkpt lat="43.87189" lon="7.32286">
        <ele>739.447426</ele>
        <time>2011-09-04T13:34:16Z</time>
      </trkpt>
      <trkpt lat="43.87198" lon="7.32287">
        <ele>738.447437</ele>
        <time>2011-09-04T13:35:03Z</time>
      </trkpt>
      <trkpt lat="43.87191" lon="7.32285">
        <ele>739.447426</ele>
        <time>2011-09-04T13:35:32Z</time>
      </trkpt>
      <trkpt lat="43.87201" lon="7.32286">
        <ele>744.447441</ele>
        <time>2011-09-04T13:36:01Z</time>
      </trkpt>
      <trkpt lat="43.8721" lon="7.32285">
        <ele>743.447449</ele>
        <time>2011-09-04T13:36:08Z</time>
      </trkpt>
      <trkpt lat="43.87219" lon="7.32283">
        <ele>742.44746</ele>
        <time>2011-09-04T13:36:14Z</time>
      </trkpt>
      <trkpt lat="43.87228" lon="7.3228">
        <ele>743.447456</ele>
        <time>2011-09-04T13:36:19Z</time>
      </trkpt>
      <trkpt lat="43.8723" lon="7.32279">
        <ele>743.447464</ele>
        <time>2011-09-04T13:36:21Z</time>
      </trkpt>
      <trkpt lat="43.8724" lon="7.32278">
        <ele>744.447472</ele>
        <time>2011-09-04T13:36:25Z</time>
      </trkpt>
      <trkpt lat="43.8725" lon="7.32276">
        <ele>745.447487</ele>
        <time>2011-09-04T13:36:31Z</time>
      </trkpt>
      <trkpt lat="43.87251" lon="7.32276">
        <ele>746.447487</ele>
        <time>2011-09-04T13:36:32Z</time>
      </trkpt>
      <trkpt lat="43.87262" lon="7.32275">
        <ele>746.447498</ele>
        <time>2011-09-04T13:36:38Z</time>
      </trkpt>
      <trkpt lat="43.87273" lon="7.32274">
        <ele>746.447514</ele>
        <time>2011-09-04T13:36:43Z</time>
      </trkpt>
      <trkpt lat="43.87282" lon="7.32276">
        <ele>744.447529</ele>
        <time>2011-09-04T13:36:50Z</time>
      </trkpt>
      <trkpt lat="43.87283" lon="7.32277">
        <ele>743.447529</ele>
        <time>2011-09-04T13:36:52Z</time>
      </trkpt>
      <trkpt lat="43.87292" lon="7.32279">
        <ele>744.447548</ele>
        <time>2011-09-04T13:37:02Z</time>
      </trkpt>
      <trkpt lat="43.87293" lon="7.32279">
        <ele>744.447548</ele>
        <time>2011-09-04T13:37:03Z</time>
      </trkpt>
      <trkpt lat="43.87302" lon="7.32282">
        <ele>747.447567</ele>
        <time>2011-09-04T13:37:13Z</time>
      </trkpt>
      <trkpt lat="43.87304" lon="7.32283">
        <ele>747.447571</ele>
        <time>2011-09-04T13:37:15Z</time>
      </trkpt>
      <trkpt lat="43.87313" lon="7.32287">
        <ele>750.44759</ele>
        <time>2011-09-04T13:37:24Z</time>
      </trkpt>
      <trkpt lat="43.87322" lon="7.32291">
        <ele>753.447609</ele>
        <time>2011-09-04T13:37:32Z</time>
      </trkpt>
      <trkpt lat="43.8733" lon="7.32297">
        <ele>755.447639</ele>
        <time>2011-09-04T13:37:40Z</time>
      </trkpt>
      <trkpt lat="43.8734" lon="7.32303">
        <ele>757.447662</ele>
        <time>2011-09-04T13:37:48Z</time>
      </trkpt>
      <trkpt lat="43.87348" lon="7.32309">
        <ele>759.447685</ele>
        <time>2011-09-04T13:37:55Z</time>
      </trkpt>
      <trkpt lat="43.87356" lon="7.3232">
        <ele>759.447716</ele>
        <time>2011-09-04T13:38:05Z</time>
      </trkpt>
      <trkpt lat="43.87358" lon="7.32322">
        <ele>760.447723</ele>
        <time>2011-09-04T13:38:07Z</time>
      </trkpt>
      <trkpt lat="43.87364" lon="7.3233">
        <ele>762.44775</ele>
        <time>2011-09-04T13:38:21Z</time>
      </trkpt>
      <trkpt lat="43.87374" lon="7.32332">
        <ele>769.447762</ele>
        <time>2011-09-04T13:39:00Z</time>
      </trkpt>
      <trkpt lat="43.87382" lon="7.3234">
        <ele>772.447792</ele>
        <time>2011-09-04T13:39:17Z</time>
      </trkpt>
      <trkpt lat="43.87382" lon="7.32341">
        <ele>773.447792</ele>
        <time>2011-09-04T13:39:19Z</time>
      </trkpt>
      <trkpt lat="43.87392" lon="7.32344">
        <ele>779.447815</ele>
        <time>2011-09-04T13:39:39Z</time>
      </trkpt>
      <trkpt lat="43.87404" lon="7.32345">
        <ele>783.447834</ele>
        <time>2011-09-04T13:39:56Z</time>
      </trkpt>
      <trkpt lat="43.87414" lon="7.32347">
        <ele>788.447853</ele>
        <time>2011-09-04T13:40:14Z</time>
      </trkpt>
      <trkpt lat="43.87424" lon="7.32348">
        <ele>793.447865</ele>
        <time>2011-09-04T13:40:32Z</time>
      </trkpt>
      <trkpt lat="43.87432" lon="7.32362">
        <ele>796.447906</ele>
        <time>2011-09-04T13:40:53Z</time>
      </trkpt>
      <trkpt lat="43.87437" lon="7.32373">
        <ele>807.447937</ele>
        <time>2011-09-04T13:41:51Z</time>
      </trkpt>
      <trkpt lat="43.87447" lon="7.32378">
        <ele>818.44796</ele>
        <time>2011-09-04T13:44:59Z</time>
      </trkpt>
      <trkpt lat="43.8744" lon="7.32389">
        <ele>813.447975</ele>
        <time>2011-09-04T13:45:37Z</time>
      </trkpt>
      <trkpt lat="43.87435" lon="7.32411">
        <ele>813.448006</ele>
        <time>2011-09-04T13:45:42Z</time>
      </trkpt>
      <trkpt lat="43.87427" lon="7.32424">
        <ele>812.448025</ele>
        <time>2011-09-04T13:45:44Z</time>
      </trkpt>
      <trkpt lat="43.8742" lon="7.32435">
        <ele>812.44804</ele>
        <time>2011-09-04T13:45:46Z</time>
      </trkpt>
      <trkpt lat="43.87412" lon="7.32445">
        <ele>811.448048</ele>
        <time>2011-09-04T13:45:48Z</time>
      </trkpt>
      <trkpt lat="43.87404" lon="7.32452">
        <ele>809.448055</ele>
        <time>2011-09-04T13:45:51Z</time>
      </trkpt>
      <trkpt lat="43.87394" lon="7.32454">
        <ele>808.448044</ele>
        <time>2011-09-04T13:46:03Z</time>
      </trkpt>
      <trkpt lat="43.8739" lon="7.32455">
        <ele>808.448044</ele>
        <time>2011-09-04T13:46:04Z</time>
      </trkpt>
      <trkpt lat="43.87382" lon="7.32465">
        <ele>808.448048</ele>
        <time>2011-09-04T13:46:07Z</time>
      </trkpt>
      <trkpt lat="43.87378" lon="7.32477">
        <ele>808.448074</ele>
        <time>2011-09-04T13:46:10Z</time>
      </trkpt>
      <trkpt lat="43.87376" lon="7.32481">
        <ele>808.448074</ele>
        <time>2011-09-04T13:46:12Z</time>
      </trkpt>
      <trkpt lat="43.87372" lon="7.32495">
        <ele>809.448097</ele>
        <time>2011-09-04T13:46:14Z</time>
      </trkpt>
      <trkpt lat="43.87367" lon="7.32509">
        <ele>809.44812</ele>
        <time>2011-09-04T13:46:17Z</time>
      </trkpt>
      <trkpt lat="43.87362" lon="7.32523">
        <ele>809.448143</ele>
        <time>2011-09-04T13:46:20Z</time>
      </trkpt>
      <trkpt lat="43.8736" lon="7.32527">
        <ele>807.448151</ele>
        <time>2011-09-04T13:46:22Z</time>
      </trkpt>
      <trkpt lat="43.87356" lon="7.32542">
        <ele>806.448177</ele>
        <time>2011-09-04T13:46:24Z</time>
      </trkpt>
      <trkpt lat="43.87351" lon="7.32556">
        <ele>805.448196</ele>
        <time>2011-09-04T13:46:27Z</time>
      </trkpt>
      <trkpt lat="43.87347" lon="7.3257">
        <ele>804.448219</ele>
        <time>2011-09-04T13:46:30Z</time>
      </trkpt>
      <trkpt lat="43.87343" lon="7.32584">
        <ele>804.448242</ele>
        <time>2011-09-04T13:46:34Z</time>
      </trkpt>
      <trkpt lat="43.87336" lon="7.32594">
        <ele>804.448254</ele>
        <time>2011-09-04T13:46:38Z</time>
      </trkpt>
      <trkpt lat="43.87331" lon="7.32602">
        <ele>801.448265</ele>
        <time>2011-09-04T13:46:41Z</time>
      </trkpt>
      <trkpt lat="43.87323" lon="7.32609">
        <ele>800.448273</ele>
        <time>2011-09-04T13:46:46Z</time>
      </trkpt>
      <trkpt lat="43.87316" lon="7.32619">
        <ele>802.44828</ele>
        <time>2011-09-04T13:46:50Z</time>
      </trkpt>
      <trkpt lat="43.8731" lon="7.32632">
        <ele>802.448296</ele>
        <time>2011-09-04T13:46:54Z</time>
      </trkpt>
      <trkpt lat="43.87309" lon="7.32635">
        <ele>802.448303</ele>
        <time>2011-09-04T13:46:56Z</time>
      </trkpt>
      <trkpt lat="43.87304" lon="7.32646">
        <ele>802.448318</ele>
        <time>2011-09-04T13:46:59Z</time>
      </trkpt>
      <trkpt lat="43.87299" lon="7.32661">
        <ele>802.448341</ele>
        <time>2011-09-04T13:47:03Z</time>
      </trkpt>
      <trkpt lat="43.87296" lon="7.32672">
        <ele>802.448364</ele>
        <time>2011-09-04T13:47:06Z</time>
      </trkpt>
      <trkpt lat="43.87295" lon="7.32687">
        <ele>802.448395</ele>
        <time>2011-09-04T13:47:10Z</time>
      </trkpt>
      <trkpt lat="43.87302" lon="7.32696">
        <ele>802.448425</ele>
        <time>2011-09-04T13:47:14Z</time>
      </trkpt>
      <trkpt lat="43.87308" lon="7.32699">
        <ele>802.448433</ele>
        <time>2011-09-04T13:47:16Z</time>
      </trkpt>
      <trkpt lat="43.87317" lon="7.32702">
        <ele>801.448452</ele>
        <time>2011-09-04T13:47:19Z</time>
      </trkpt>
      <trkpt lat="43.87328" lon="7.32706">
        <ele>801.448479</ele>
        <time>2011-09-04T13:47:23Z</time>
      </trkpt>
      <trkpt lat="43.87338" lon="7.32708">
        <ele>800.448494</ele>
        <time>2011-09-04T13:47:27Z</time>
      </trkpt>
      <trkpt lat="43.87348" lon="7.32709">
        <ele>799.448509</ele>
        <time>2011-09-04T13:47:31Z</time>
      </trkpt>
      <trkpt lat="43.87359" lon="7.32708">
        <ele>799.448524</ele>
        <time>2011-09-04T13:47:35Z</time>
      </trkpt>
      <trkpt lat="43.87369" lon="7.32707">
        <ele>798.448532</ele>
        <time>2011-09-04T13:47:39Z</time>
      </trkpt>
      <trkpt lat="43.87379" lon="7.32707">
        <ele>797.448547</ele>
        <time>2011-09-04T13:47:43Z</time>
      </trkpt>
      <trkpt lat="43.87388" lon="7.32713">
        <ele>797.44857</ele>
        <time>2011-09-04T13:47:47Z</time>
      </trkpt>
      <trkpt lat="43.87396" lon="7.32722">
        <ele>797.448601</ele>
        <time>2011-09-04T13:47:51Z</time>
      </trkpt>
      <trkpt lat="43.87403" lon="7.32732">
        <ele>798.448627</ele>
        <time>2011-09-04T13:47:58Z</time>
      </trkpt>
      <trkpt lat="43.87414" lon="7.32729">
        <ele>799.448639</ele>
        <time>2011-09-04T13:48:12Z</time>
      </trkpt>
      <trkpt lat="43.87423" lon="7.32721">
        <ele>798.448635</ele>
        <time>2011-09-04T13:48:16Z</time>
      </trkpt>
      <trkpt lat="43.87432" lon="7.32718">
        <ele>797.448639</ele>
        <time>2011-09-04T13:48:20Z</time>
      </trkpt>
      <trkpt lat="43.87442" lon="7.32727">
        <ele>796.448669</ele>
        <time>2011-09-04T13:48:24Z</time>
      </trkpt>
      <trkpt lat="43.8745" lon="7.32737">
        <ele>796.4487</ele>
        <time>2011-09-04T13:48:28Z</time>
      </trkpt>
      <trkpt lat="43.87461" lon="7.32742">
        <ele>795.44873</ele>
        <time>2011-09-04T13:49:12Z</time>
      </trkpt>
      <trkpt lat="43.87462" lon="7.32742">
        <ele>796.44873</ele>
        <time>2011-09-04T13:49:15Z</time>
      </trkpt>
      <trkpt lat="43.87468" lon="7.32732">
        <ele>786.448719</ele>
        <time>2011-09-04T13:53:43Z</time>
      </trkpt>
      <trkpt lat="43.87468" lon="7.32733">
        <ele>772.448719</ele>
        <time>2011-09-04T13:53:52Z</time>
      </trkpt>
      <trkpt lat="43.87485" lon="7.32735">
        <ele>763.448746</ele>
        <time>2011-09-04T13:54:08Z</time>
      </trkpt>
      <trkpt lat="43.87493" lon="7.32744">
        <ele>764.448776</ele>
        <time>2011-09-04T13:54:13Z</time>
      </trkpt>
      <trkpt lat="43.87498" lon="7.32756">
        <ele>764.448807</ele>
        <time>2011-09-04T13:54:17Z</time>
      </trkpt>
      <trkpt lat="43.87503" lon="7.32768">
        <ele>763.448837</ele>
        <time>2011-09-04T13:54:22Z</time>
      </trkpt>
      <trkpt lat="43.87513" lon="7.32771">
        <ele>763.448856</ele>
        <time>2011-09-04T13:54:27Z</time>
      </trkpt>
      <trkpt lat="43.87511" lon="7.32794">
        <ele>770.448902</ele>
        <time>2011-09-04T13:55:29Z</time>
      </trkpt>
      <trkpt lat="43.87511" lon="7.32807">
        <ele>771.448929</ele>
        <time>2011-09-04T13:55:42Z</time>
      </trkpt>
      <trkpt lat="43.8751" lon="7.32823">
        <ele>772.448959</ele>
        <time>2011-09-04T13:55:46Z</time>
      </trkpt>
      <trkpt lat="43.87509" lon="7.32838">
        <ele>774.44899</ele>
        <time>2011-09-04T13:55:50Z</time>
      </trkpt>
      <trkpt lat="43.87508" lon="7.32852">
        <ele>774.449017</ele>
        <time>2011-09-04T13:55:54Z</time>
      </trkpt>
      <trkpt lat="43.87509" lon="7.32867">
        <ele>776.449047</ele>
        <time>2011-09-04T13:55:58Z</time>
      </trkpt>
      <trkpt lat="43.8751" lon="7.3288">
        <ele>779.449078</ele>
        <time>2011-09-04T13:56:04Z</time>
      </trkpt>
      <trkpt lat="43.87516" lon="7.32896">
        <ele>780.44912</ele>
        <time>2011-09-04T13:56:13Z</time>
      </trkpt>
      <trkpt lat="43.87518" lon="7.32897">
        <ele>780.44912</ele>
        <time>2011-09-04T13:56:15Z</time>
      </trkpt>
      <trkpt lat="43.87527" lon="7.32901">
        <ele>780.449142</ele>
        <time>2011-09-04T13:56:20Z</time>
      </trkpt>
      <trkpt lat="43.87529" lon="7.32915">
        <ele>779.449181</ele>
        <time>2011-09-04T13:56:26Z</time>
      </trkpt>
      <trkpt lat="43.87529" lon="7.32929">
        <ele>780.449203</ele>
        <time>2011-09-04T13:56:31Z</time>
      </trkpt>
      <trkpt lat="43.8753" lon="7.32944">
        <ele>781.449234</ele>
        <time>2011-09-04T13:56:37Z</time>
      </trkpt>
      <trkpt lat="43.8753" lon="7.32957">
        <ele>783.449265</ele>
        <time>2011-09-04T13:56:41Z</time>
      </trkpt>
      <trkpt lat="43.8753" lon="7.3296">
        <ele>783.449272</ele>
        <time>2011-09-04T13:56:43Z</time>
      </trkpt>
      <trkpt lat="43.87533" lon="7.32973">
        <ele>781.449303</ele>
        <time>2011-09-04T13:56:47Z</time>
      </trkpt>
      <trkpt lat="43.87535" lon="7.3298">
        <ele>782.449318</ele>
        <time>2011-09-04T13:56:50Z</time>
      </trkpt>
      <trkpt lat="43.8754" lon="7.32994">
        <ele>783.449356</ele>
        <time>2011-09-04T13:56:56Z</time>
      </trkpt>
      <trkpt lat="43.87548" lon="7.33007">
        <ele>784.449394</ele>
        <time>2011-09-04T13:57:05Z</time>
      </trkpt>
      <trkpt lat="43.87563" lon="7.33029">
        <ele>785.449455</ele>
        <time>2011-09-04T13:57:19Z</time>
      </trkpt>
      <trkpt lat="43.87568" lon="7.33045">
        <ele>784.449493</ele>
        <time>2011-09-04T13:57:25Z</time>
      </trkpt>
      <trkpt lat="43.87573" lon="7.33057">
        <ele>786.449528</ele>
        <time>2011-09-04T13:57:30Z</time>
      </trkpt>
      <trkpt lat="43.87581" lon="7.33073">
        <ele>787.44957</ele>
        <time>2011-09-04T13:57:38Z</time>
      </trkpt>
      <trkpt lat="43.87585" lon="7.33078">
        <ele>788.449585</ele>
        <time>2011-09-04T13:57:41Z</time>
      </trkpt>
      <trkpt lat="43.87592" lon="7.33086">
        <ele>793.449615</ele>
        <time>2011-09-04T13:57:53Z</time>
      </trkpt>
      <trkpt lat="43.87602" lon="7.33082">
        <ele>793.449615</ele>
        <time>2011-09-04T13:58:07Z</time>
      </trkpt>
      <trkpt lat="43.87612" lon="7.33079">
        <ele>793.449623</ele>
        <time>2011-09-04T13:58:12Z</time>
      </trkpt>
      <trkpt lat="43.87621" lon="7.33081">
        <ele>792.449646</ele>
        <time>2011-09-04T13:58:18Z</time>
      </trkpt>
      <trkpt lat="43.87622" lon="7.33082">
        <ele>792.449646</ele>
        <time>2011-09-04T13:58:19Z</time>
      </trkpt>
      <trkpt lat="43.87631" lon="7.33083">
        <ele>793.449661</ele>
        <time>2011-09-04T13:58:25Z</time>
      </trkpt>
      <trkpt lat="43.87635" lon="7.33083">
        <ele>794.449661</ele>
        <time>2011-09-04T13:58:29Z</time>
      </trkpt>
      <trkpt lat="43.87644" lon="7.33079">
        <ele>795.449669</ele>
        <time>2011-09-04T13:58:34Z</time>
      </trkpt>
      <trkpt lat="43.87652" lon="7.33067">
        <ele>801.449654</ele>
        <time>2011-09-04T13:58:49Z</time>
      </trkpt>
      <trkpt lat="43.87659" lon="7.33059">
        <ele>802.449646</ele>
        <time>2011-09-04T13:59:03Z</time>
      </trkpt>
      <trkpt lat="43.8767" lon="7.33053">
        <ele>802.449646</ele>
        <time>2011-09-04T13:59:09Z</time>
      </trkpt>
      <trkpt lat="43.87681" lon="7.33048">
        <ele>805.449654</ele>
        <time>2011-09-04T13:59:13Z</time>
      </trkpt>
      <trkpt lat="43.87691" lon="7.33044">
        <ele>806.449657</ele>
        <time>2011-09-04T13:59:17Z</time>
      </trkpt>
      <trkpt lat="43.87698" lon="7.33041">
        <ele>806.449661</ele>
        <time>2011-09-04T13:59:20Z</time>
      </trkpt>
      <trkpt lat="43.87706" lon="7.33036">
        <ele>806.449661</ele>
        <time>2011-09-04T13:59:24Z</time>
      </trkpt>
      <trkpt lat="43.87716" lon="7.33032">
        <ele>806.449669</ele>
        <time>2011-09-04T13:59:29Z</time>
      </trkpt>
      <trkpt lat="43.87717" lon="7.33032">
        <ele>805.449669</ele>
        <time>2011-09-04T13:59:30Z</time>
      </trkpt>
      <trkpt lat="43.87727" lon="7.33031">
        <ele>807.44968</ele>
        <time>2011-09-04T13:59:35Z</time>
      </trkpt>
      <trkpt lat="43.87729" lon="7.3303">
        <ele>808.449684</ele>
        <time>2011-09-04T13:59:36Z</time>
      </trkpt>
      <trkpt lat="43.87739" lon="7.33027">
        <ele>810.449684</ele>
        <time>2011-09-04T13:59:41Z</time>
      </trkpt>
      <trkpt lat="43.87749" lon="7.33022">
        <ele>812.449692</ele>
        <time>2011-09-04T13:59:46Z</time>
      </trkpt>
      <trkpt lat="43.87755" lon="7.3302">
        <ele>811.449692</ele>
        <time>2011-09-04T13:59:49Z</time>
      </trkpt>
      <trkpt lat="43.87765" lon="7.33018">
        <ele>810.449699</ele>
        <time>2011-09-04T13:59:54Z</time>
      </trkpt>
      <trkpt lat="43.87778" lon="7.33013">
        <ele>811.449711</ele>
        <time>2011-09-04T14:00:01Z</time>
      </trkpt>
      <trkpt lat="43.87787" lon="7.33008">
        <ele>815.449715</ele>
        <time>2011-09-04T14:00:07Z</time>
      </trkpt>
      <trkpt lat="43.87795" lon="7.33003">
        <ele>817.449715</ele>
        <time>2011-09-04T14:00:12Z</time>
      </trkpt>
      <trkpt lat="43.87806" lon="7.32999">
        <ele>819.449722</ele>
        <time>2011-09-04T14:00:28Z</time>
      </trkpt>
      <trkpt lat="43.87806" lon="7.32999">
        <ele>819.449722</ele>
        <time>2011-09-04T14:00:30Z</time>
      </trkpt>
      <trkpt lat="43.87819" lon="7.33">
        <ele>816.449738</ele>
        <time>2011-09-04T14:00:39Z</time>
      </trkpt>
      <trkpt lat="43.87828" lon="7.33">
        <ele>816.449749</ele>
        <time>2011-09-04T14:00:44Z</time>
      </trkpt>
      <trkpt lat="43.8784" lon="7.32999">
        <ele>818.449768</ele>
        <time>2011-09-04T14:00:50Z</time>
      </trkpt>
      <trkpt lat="43.87842" lon="7.32999">
        <ele>818.449768</ele>
        <time>2011-09-04T14:00:51Z</time>
      </trkpt>
      <trkpt lat="43.87852" lon="7.33009">
        <ele>820.449799</ele>
        <time>2011-09-04T14:01:00Z</time>
      </trkpt>
      <trkpt lat="43.87855" lon="7.33021">
        <ele>821.449829</ele>
        <time>2011-09-04T14:01:06Z</time>
      </trkpt>
      <trkpt lat="43.87867" lon="7.33033">
        <ele>820.449867</ele>
        <time>2011-09-04T14:01:12Z</time>
      </trkpt>
      <trkpt lat="43.87874" lon="7.33038">
        <ele>820.44989</ele>
        <time>2011-09-04T14:01:15Z</time>
      </trkpt>
      <trkpt lat="43.87883" lon="7.33043">
        <ele>819.449913</ele>
        <time>2011-09-04T14:01:18Z</time>
      </trkpt>
      <trkpt lat="43.87889" lon="7.33045">
        <ele>818.449924</ele>
        <time>2011-09-04T14:01:20Z</time>
      </trkpt>
      <trkpt lat="43.87898" lon="7.33051">
        <ele>816.449951</ele>
        <time>2011-09-04T14:01:24Z</time>
      </trkpt>
      <trkpt lat="43.87902" lon="7.33054">
        <ele>816.449959</ele>
        <time>2011-09-04T14:01:26Z</time>
      </trkpt>
      <trkpt lat="43.87914" lon="7.33071">
        <ele>813.450012</ele>
        <time>2011-09-04T14:01:33Z</time>
      </trkpt>
      <trkpt lat="43.87919" lon="7.33083">
        <ele>812.450043</ele>
        <time>2011-09-04T14:01:38Z</time>
      </trkpt>
      <trkpt lat="43.87923" lon="7.33095">
        <ele>813.450073</ele>
        <time>2011-09-04T14:01:43Z</time>
      </trkpt>
      <trkpt lat="43.87928" lon="7.33106">
        <ele>814.450104</ele>
        <time>2011-09-04T14:01:48Z</time>
      </trkpt>
      <trkpt lat="43.87936" lon="7.33114">
        <ele>813.450127</ele>
        <time>2011-09-04T14:01:52Z</time>
      </trkpt>
      <trkpt lat="43.87941" lon="7.33117">
        <ele>812.450142</ele>
        <time>2011-09-04T14:01:54Z</time>
      </trkpt>
      <trkpt lat="43.87949" lon="7.33124">
        <ele>811.450169</ele>
        <time>2011-09-04T14:01:58Z</time>
      </trkpt>
      <trkpt lat="43.87957" lon="7.33132">
        <ele>811.450191</ele>
        <time>2011-09-04T14:02:01Z</time>
      </trkpt>
      <trkpt lat="43.87967" lon="7.33138">
        <ele>812.450218</ele>
        <time>2011-09-04T14:02:04Z</time>
      </trkpt>
      <trkpt lat="43.87978" lon="7.33141">
        <ele>812.450241</ele>
        <time>2011-09-04T14:02:07Z</time>
      </trkpt>
      <trkpt lat="43.87989" lon="7.33143">
        <ele>812.45026</ele>
        <time>2011-09-04T14:02:10Z</time>
      </trkpt>
      <trkpt lat="43.87992" lon="7.33144">
        <ele>812.450268</ele>
        <time>2011-09-04T14:02:11Z</time>
      </trkpt>
      <trkpt lat="43.88002" lon="7.3315">
        <ele>811.450294</ele>
        <time>2011-09-04T14:02:14Z</time>
      </trkpt>
      <trkpt lat="43.88011" lon="7.33158">
        <ele>810.450317</ele>
        <time>2011-09-04T14:02:17Z</time>
      </trkpt>
      <trkpt lat="43.8802" lon="7.33164">
        <ele>808.450344</ele>
        <time>2011-09-04T14:02:20Z</time>
      </trkpt>
      <trkpt lat="43.88028" lon="7.3317">
        <ele>806.450367</ele>
        <time>2011-09-04T14:02:23Z</time>
      </trkpt>
      <trkpt lat="43.88037" lon="7.33175">
        <ele>805.450394</ele>
        <time>2011-09-04T14:02:27Z</time>
      </trkpt>
      <trkpt lat="43.88046" lon="7.33183">
        <ele>805.450417</ele>
        <time>2011-09-04T14:02:43Z</time>
      </trkpt>
      <trkpt lat="43.8805" lon="7.33186">
        <ele>805.450432</ele>
        <time>2011-09-04T14:02:48Z</time>
      </trkpt>
      <trkpt lat="43.88059" lon="7.33193">
        <ele>807.450455</ele>
        <time>2011-09-04T14:02:55Z</time>
      </trkpt>
      <trkpt lat="43.88059" lon="7.33193">
        <ele>807.450455</ele>
        <time>2011-09-04T14:02:56Z</time>
      </trkpt>
      <trkpt lat="43.88068" lon="7.33196">
        <ele>808.450478</ele>
        <time>2011-09-04T14:03:00Z</time>
      </trkpt>
      <trkpt lat="43.88071" lon="7.33197">
        <ele>808.450478</ele>
        <time>2011-09-04T14:03:01Z</time>
      </trkpt>
      <trkpt lat="43.88081" lon="7.33202">
        <ele>809.4505</ele>
        <time>2011-09-04T14:03:05Z</time>
      </trkpt>
      <trkpt lat="43.8809" lon="7.33207">
        <ele>810.450531</ele>
        <time>2011-09-04T14:03:09Z</time>
      </trkpt>
      <trkpt lat="43.88099" lon="7.33213">
        <ele>811.45055</ele>
        <time>2011-09-04T14:03:13Z</time>
      </trkpt>
      <trkpt lat="43.88108" lon="7.33222">
        <ele>812.450577</ele>
        <time>2011-09-04T14:03:17Z</time>
      </trkpt>
      <trkpt lat="43.88116" lon="7.33231">
        <ele>814.450607</ele>
        <time>2011-09-04T14:03:20Z</time>
      </trkpt>
      <trkpt lat="43.88124" lon="7.3324">
        <ele>814.450642</ele>
        <time>2011-09-04T14:03:23Z</time>
      </trkpt>
      <trkpt lat="43.88126" lon="7.33244">
        <ele>814.450653</ele>
        <time>2011-09-04T14:03:24Z</time>
      </trkpt>
      <trkpt lat="43.88128" lon="7.33256">
        <ele>812.450676</ele>
        <time>2011-09-04T14:03:29Z</time>
      </trkpt>
      <trkpt lat="43.88127" lon="7.33261">
        <ele>812.450684</ele>
        <time>2011-09-04T14:03:31Z</time>
      </trkpt>
      <trkpt lat="43.88125" lon="7.33274">
        <ele>811.450714</ele>
        <time>2011-09-04T14:03:37Z</time>
      </trkpt>
      <trkpt lat="43.8812" lon="7.33287">
        <ele>810.450729</ele>
        <time>2011-09-04T14:03:43Z</time>
      </trkpt>
      <trkpt lat="43.88114" lon="7.33301">
        <ele>811.450752</ele>
        <time>2011-09-04T14:03:47Z</time>
      </trkpt>
      <trkpt lat="43.88108" lon="7.33315">
        <ele>811.450771</ele>
        <time>2011-09-04T14:03:50Z</time>
      </trkpt>
      <trkpt lat="43.881" lon="7.33329">
        <ele>809.450787</ele>
        <time>2011-09-04T14:03:53Z</time>
      </trkpt>
      <trkpt lat="43.88093" lon="7.33345">
        <ele>809.450813</ele>
        <time>2011-09-04T14:03:55Z</time>
      </trkpt>
      <trkpt lat="43.88088" lon="7.33357">
        <ele>809.450832</ele>
        <time>2011-09-04T14:03:57Z</time>
      </trkpt>
      <trkpt lat="43.88083" lon="7.33369">
        <ele>808.450851</ele>
        <time>2011-09-04T14:03:57Z</time>
      </trkpt>
      <trkpt lat="43.88079" lon="7.33379">
        <ele>808.450867</ele>
        <time>2011-09-04T14:03:59Z</time>
      </trkpt>
      <trkpt lat="43.88069" lon="7.334">
        <ele>808.450897</ele>
        <time>2011-09-04T14:04:00Z</time>
      </trkpt>
      <trkpt lat="43.88065" lon="7.33409">
        <ele>808.450912</ele>
        <time>2011-09-04T14:04:02Z</time>
      </trkpt>
      <trkpt lat="43.88058" lon="7.33425">
        <ele>808.450935</ele>
        <time>2011-09-04T14:04:03Z</time>
      </trkpt>
      <trkpt lat="43.88053" lon="7.33437">
        <ele>808.450951</ele>
        <time>2011-09-04T14:04:05Z</time>
      </trkpt>
      <trkpt lat="43.88048" lon="7.33448">
        <ele>809.450966</ele>
        <time>2011-09-04T14:04:07Z</time>
      </trkpt>
      <trkpt lat="43.88041" lon="7.33462">
        <ele>808.450985</ele>
        <time>2011-09-04T14:04:10Z</time>
      </trkpt>
      <trkpt lat="43.88036" lon="7.33474">
        <ele>808.451004</ele>
        <time>2011-09-04T14:04:13Z</time>
      </trkpt>
      <trkpt lat="43.88033" lon="7.33487">
        <ele>809.451027</ele>
        <time>2011-09-04T14:04:16Z</time>
      </trkpt>
      <trkpt lat="43.88031" lon="7.33503">
        <ele>810.451057</ele>
        <time>2011-09-04T14:04:20Z</time>
      </trkpt>
      <trkpt lat="43.88028" lon="7.33516">
        <ele>809.45108</ele>
        <time>2011-09-04T14:04:24Z</time>
      </trkpt>
      <trkpt lat="43.88023" lon="7.3353">
        <ele>810.451103</ele>
        <time>2011-09-04T14:04:28Z</time>
      </trkpt>
      <trkpt lat="43.88017" lon="7.33544">
        <ele>810.451118</ele>
        <time>2011-09-04T14:04:32Z</time>
      </trkpt>
      <trkpt lat="43.88011" lon="7.33554">
        <ele>810.451134</ele>
        <time>2011-09-04T14:04:35Z</time>
      </trkpt>
      <trkpt lat="43.88005" lon="7.33563">
        <ele>810.451141</ele>
        <time>2011-09-04T14:04:38Z</time>
      </trkpt>
      <trkpt lat="43.87997" lon="7.33571">
        <ele>811.451149</ele>
        <time>2011-09-04T14:04:41Z</time>
      </trkpt>
      <trkpt lat="43.87988" lon="7.3358">
        <ele>811.451157</ele>
        <time>2011-09-04T14:04:44Z</time>
      </trkpt>
      <trkpt lat="43.87977" lon="7.3359">
        <ele>811.451164</ele>
        <time>2011-09-04T14:04:47Z</time>
      </trkpt>
      <trkpt lat="43.87969" lon="7.33597">
        <ele>812.451168</ele>
        <time>2011-09-04T14:04:49Z</time>
      </trkpt>
      <trkpt lat="43.87959" lon="7.33606">
        <ele>812.451172</ele>
        <time>2011-09-04T14:04:51Z</time>
      </trkpt>
      <trkpt lat="43.87952" lon="7.33617">
        <ele>812.451187</ele>
        <time>2011-09-04T14:04:53Z</time>
      </trkpt>
      <trkpt lat="43.87947" lon="7.33635">
        <ele>813.451218</ele>
        <time>2011-09-04T14:04:55Z</time>
      </trkpt>
      <trkpt lat="43.87941" lon="7.3365">
        <ele>814.451241</ele>
        <time>2011-09-04T14:04:57Z</time>
      </trkpt>
      <trkpt lat="43.87931" lon="7.33662">
        <ele>814.451252</ele>
        <time>2011-09-04T14:04:59Z</time>
      </trkpt>
      <trkpt lat="43.87922" lon="7.33671">
        <ele>814.451256</ele>
        <time>2011-09-04T14:05:01Z</time>
      </trkpt>
      <trkpt lat="43.87913" lon="7.33682">
        <ele>814.451263</ele>
        <time>2011-09-04T14:05:04Z</time>
      </trkpt>
      <trkpt lat="43.87921" lon="7.33677">
        <ele>805.451267</ele>
        <time>2011-09-04T14:05:23Z</time>
      </trkpt>
      <trkpt lat="43.8793" lon="7.3367">
        <ele>805.451271</ele>
        <time>2011-09-04T14:05:29Z</time>
      </trkpt>
      <trkpt lat="43.87939" lon="7.33667">
        <ele>806.451271</ele>
        <time>2011-09-04T14:05:35Z</time>
      </trkpt>
      <trkpt lat="43.87939" lon="7.33667">
        <ele>806.451271</ele>
        <time>2011-09-04T14:05:37Z</time>
      </trkpt>
      <trkpt lat="43.87956" lon="7.33658">
        <ele>807.451275</ele>
        <time>2011-09-04T14:05:45Z</time>
      </trkpt>
      <trkpt lat="43.8797" lon="7.33644">
        <ele>807.451271</ele>
        <time>2011-09-04T14:05:53Z</time>
      </trkpt>
      <trkpt lat="43.87978" lon="7.33636">
        <ele>806.45126</ele>
        <time>2011-09-04T14:05:58Z</time>
      </trkpt>
      <trkpt lat="43.87986" lon="7.33627">
        <ele>806.451252</ele>
        <time>2011-09-04T14:06:03Z</time>
      </trkpt>
      <trkpt lat="43.87986" lon="7.33627">
        <ele>806.451252</ele>
        <time>2011-09-04T14:06:05Z</time>
      </trkpt>
      <trkpt lat="43.87994" lon="7.33617">
        <ele>806.451248</ele>
        <time>2011-09-04T14:06:09Z</time>
      </trkpt>
      <trkpt lat="43.88002" lon="7.33609">
        <ele>806.451237</ele>
        <time>2011-09-04T14:06:14Z</time>
      </trkpt>
      <trkpt lat="43.88013" lon="7.33596">
        <ele>807.451225</ele>
        <time>2011-09-04T14:06:21Z</time>
      </trkpt>
      <trkpt lat="43.8802" lon="7.33587">
        <ele>807.451214</ele>
        <time>2011-09-04T14:06:25Z</time>
      </trkpt>
      <trkpt lat="43.8803" lon="7.33573">
        <ele>807.451199</ele>
        <time>2011-09-04T14:06:31Z</time>
      </trkpt>
      <trkpt lat="43.88038" lon="7.33562">
        <ele>809.451191</ele>
        <time>2011-09-04T14:06:36Z</time>
      </trkpt>
      <trkpt lat="43.8805" lon="7.33547">
        <ele>808.451172</ele>
        <time>2011-09-04T14:06:44Z</time>
      </trkpt>
      <trkpt lat="43.88059" lon="7.33538">
        <ele>810.451164</ele>
        <time>2011-09-04T14:06:49Z</time>
      </trkpt>
      <trkpt lat="43.88066" lon="7.3353">
        <ele>809.451157</ele>
        <time>2011-09-04T14:06:53Z</time>
      </trkpt>
      <trkpt lat="43.88074" lon="7.33522">
        <ele>810.451157</ele>
        <time>2011-09-04T14:06:58Z</time>
      </trkpt>
      <trkpt lat="43.8808" lon="7.33512">
        <ele>810.451141</ele>
        <time>2011-09-04T14:07:03Z</time>
      </trkpt>
      <trkpt lat="43.88092" lon="7.33494">
        <ele>810.451118</ele>
        <time>2011-09-04T14:07:14Z</time>
      </trkpt>
      <trkpt lat="43.88098" lon="7.33483">
        <ele>811.451103</ele>
        <time>2011-09-04T14:07:20Z</time>
      </trkpt>
      <trkpt lat="43.88106" lon="7.33473">
        <ele>814.451096</ele>
        <time>2011-09-04T14:07:26Z</time>
      </trkpt>
      <trkpt lat="43.88117" lon="7.33463">
        <ele>816.451088</ele>
        <time>2011-09-04T14:07:37Z</time>
      </trkpt>
      <trkpt lat="43.88124" lon="7.33453">
        <ele>816.451077</ele>
        <time>2011-09-04T14:07:44Z</time>
      </trkpt>
      <trkpt lat="43.8813" lon="7.33438">
        <ele>817.451057</ele>
        <time>2011-09-04T14:07:50Z</time>
      </trkpt>
      <trkpt lat="43.88136" lon="7.33425">
        <ele>819.451038</ele>
        <time>2011-09-04T14:07:58Z</time>
      </trkpt>
      <trkpt lat="43.88142" lon="7.33415">
        <ele>821.451027</ele>
        <time>2011-09-04T14:08:05Z</time>
      </trkpt>
      <trkpt lat="43.88149" lon="7.33399">
        <ele>824.451</ele>
        <time>2011-09-04T14:08:13Z</time>
      </trkpt>
      <trkpt lat="43.88159" lon="7.33383">
        <ele>828.450981</ele>
        <time>2011-09-04T14:08:22Z</time>
      </trkpt>
      <trkpt lat="43.88169" lon="7.33371">
        <ele>832.450966</ele>
        <time>2011-09-04T14:08:32Z</time>
      </trkpt>
      <trkpt lat="43.88172" lon="7.33366">
        <ele>832.450966</ele>
        <time>2011-09-04T14:08:36Z</time>
      </trkpt>
      <trkpt lat="43.8818" lon="7.3335">
        <ele>833.450943</ele>
        <time>2011-09-04T14:08:47Z</time>
      </trkpt>
      <trkpt lat="43.88186" lon="7.3333">
        <ele>835.450905</ele>
        <time>2011-09-04T14:09:02Z</time>
      </trkpt>
      <trkpt lat="43.88191" lon="7.33319">
        <ele>835.45089</ele>
        <time>2011-09-04T14:09:13Z</time>
      </trkpt>
      <trkpt lat="43.88199" lon="7.33315">
        <ele>836.450897</ele>
        <time>2011-09-04T14:09:21Z</time>
      </trkpt>
      <trkpt lat="43.88209" lon="7.33315">
        <ele>838.450909</ele>
        <time>2011-09-04T14:09:28Z</time>
      </trkpt>
      <trkpt lat="43.88218" lon="7.33314">
        <ele>840.45092</ele>
        <time>2011-09-04T14:09:35Z</time>
      </trkpt>
      <trkpt lat="43.88227" lon="7.3331">
        <ele>842.450924</ele>
        <time>2011-09-04T14:09:43Z</time>
      </trkpt>
      <trkpt lat="43.88237" lon="7.33306">
        <ele>843.450928</ele>
        <time>2011-09-04T14:09:51Z</time>
      </trkpt>
      <trkpt lat="43.88246" lon="7.33304">
        <ele>844.450935</ele>
        <time>2011-09-04T14:09:58Z</time>
      </trkpt>
      <trkpt lat="43.88256" lon="7.33304">
        <ele>847.450947</ele>
        <time>2011-09-04T14:10:06Z</time>
      </trkpt>
      <trkpt lat="43.88266" lon="7.33305">
        <ele>849.450966</ele>
        <time>2011-09-04T14:10:14Z</time>
      </trkpt>
      <trkpt lat="43.88275" lon="7.33305">
        <ele>851.450974</ele>
        <time>2011-09-04T14:10:22Z</time>
      </trkpt>
      <trkpt lat="43.88286" lon="7.33304">
        <ele>854.450981</ele>
        <time>2011-09-04T14:10:30Z</time>
      </trkpt>
      <trkpt lat="43.88294" lon="7.333">
        <ele>857.450993</ele>
        <time>2011-09-04T14:10:37Z</time>
      </trkpt>
      <trkpt lat="43.88304" lon="7.33299">
        <ele>858.451004</ele>
        <time>2011-09-04T14:10:44Z</time>
      </trkpt>
      <trkpt lat="43.88313" lon="7.33294">
        <ele>858.451004</ele>
        <time>2011-09-04T14:10:51Z</time>
      </trkpt>
      <trkpt lat="43.88321" lon="7.33288">
        <ele>860.451</ele>
        <time>2011-09-04T14:10:57Z</time>
      </trkpt>
      <trkpt lat="43.8833" lon="7.33281">
        <ele>859.450996</ele>
        <time>2011-09-04T14:11:04Z</time>
      </trkpt>
      <trkpt lat="43.88338" lon="7.33276">
        <ele>859.451</ele>
        <time>2011-09-04T14:11:10Z</time>
      </trkpt>
      <trkpt lat="43.88348" lon="7.33272">
        <ele>859.451004</ele>
        <time>2011-09-04T14:11:17Z</time>
      </trkpt>
      <trkpt lat="43.88359" lon="7.33269">
        <ele>861.451012</ele>
        <time>2011-09-04T14:11:26Z</time>
      </trkpt>
      <trkpt lat="43.88361" lon="7.33265">
        <ele>863.451008</ele>
        <time>2011-09-04T14:11:30Z</time>
      </trkpt>
      <trkpt lat="43.88352" lon="7.3326">
        <ele>864.450985</ele>
        <time>2011-09-04T14:11:36Z</time>
      </trkpt>
      <trkpt lat="43.88341" lon="7.33259">
        <ele>864.45097</ele>
        <time>2011-09-04T14:11:40Z</time>
      </trkpt>
      <trkpt lat="43.88332" lon="7.33257">
        <ele>865.450951</ele>
        <time>2011-09-04T14:11:44Z</time>
      </trkpt>
      <trkpt lat="43.88321" lon="7.33255">
        <ele>866.450935</ele>
        <time>2011-09-04T14:11:48Z</time>
      </trkpt>
      <trkpt lat="43.8831" lon="7.33253">
        <ele>867.450916</ele>
        <time>2011-09-04T14:11:52Z</time>
      </trkpt>
      <trkpt lat="43.88302" lon="7.33249">
        <ele>868.450897</ele>
        <time>2011-09-04T14:11:56Z</time>
      </trkpt>
      <trkpt lat="43.88295" lon="7.33239">
        <ele>872.450867</ele>
        <time>2011-09-04T14:12:09Z</time>
      </trkpt>
      <trkpt lat="43.88288" lon="7.33226">
        <ele>873.450829</ele>
        <time>2011-09-04T14:12:16Z</time>
      </trkpt>
      <trkpt lat="43.88286" lon="7.33214">
        <ele>874.450802</ele>
        <time>2011-09-04T14:12:21Z</time>
      </trkpt>
      <trkpt lat="43.88286" lon="7.33201">
        <ele>874.450779</ele>
        <time>2011-09-04T14:12:26Z</time>
      </trkpt>
      <trkpt lat="43.88288" lon="7.33185">
        <ele>874.450745</ele>
        <time>2011-09-04T14:12:33Z</time>
      </trkpt>
      <trkpt lat="43.88293" lon="7.33165">
        <ele>875.45071</ele>
        <time>2011-09-04T14:12:46Z</time>
      </trkpt>
      <trkpt lat="43.88297" lon="7.33153">
        <ele>875.450687</ele>
        <time>2011-09-04T14:12:51Z</time>
      </trkpt>
      <trkpt lat="43.88303" lon="7.33139">
        <ele>874.450668</ele>
        <time>2011-09-04T14:12:58Z</time>
      </trkpt>
      <trkpt lat="43.88309" lon="7.33131">
        <ele>874.450661</ele>
        <time>2011-09-04T14:13:06Z</time>
      </trkpt>
      <trkpt lat="43.88316" lon="7.33141">
        <ele>877.450691</ele>
        <time>2011-09-04T14:13:15Z</time>
      </trkpt>
      <trkpt lat="43.88316" lon="7.33143">
        <ele>878.450699</ele>
        <time>2011-09-04T14:13:17Z</time>
      </trkpt>
      <trkpt lat="43.88314" lon="7.33157">
        <ele>878.450722</ele>
        <time>2011-09-04T14:13:22Z</time>
      </trkpt>
      <trkpt lat="43.88317" lon="7.33169">
        <ele>878.450745</ele>
        <time>2011-09-04T14:13:29Z</time>
      </trkpt>
      <trkpt lat="43.88325" lon="7.33177">
        <ele>879.450775</ele>
        <time>2011-09-04T14:13:36Z</time>
      </trkpt>
      <trkpt lat="43.88334" lon="7.33182">
        <ele>879.450802</ele>
        <time>2011-09-04T14:13:43Z</time>
      </trkpt>
      <trkpt lat="43.88344" lon="7.33182">
        <ele>882.450813</ele>
        <time>2011-09-04T14:13:50Z</time>
      </trkpt>
      <trkpt lat="43.88353" lon="7.33178">
        <ele>885.450817</ele>
        <time>2011-09-04T14:13:56Z</time>
      </trkpt>
      <trkpt lat="43.8836" lon="7.3317">
        <ele>886.450806</ele>
        <time>2011-09-04T14:14:02Z</time>
      </trkpt>
      <trkpt lat="43.88368" lon="7.33164">
        <ele>886.450806</ele>
        <time>2011-09-04T14:14:08Z</time>
      </trkpt>
      <trkpt lat="43.88377" lon="7.33159">
        <ele>887.450806</ele>
        <time>2011-09-04T14:14:14Z</time>
      </trkpt>
      <trkpt lat="43.88386" lon="7.33154">
        <ele>888.450813</ele>
        <time>2011-09-04T14:14:21Z</time>
      </trkpt>
      <trkpt lat="43.88396" lon="7.33151">
        <ele>891.450821</ele>
        <time>2011-09-04T14:14:28Z</time>
      </trkpt>
      <trkpt lat="43.88389" lon="7.33136">
        <ele>890.450775</ele>
        <time>2011-09-04T14:14:43Z</time>
      </trkpt>
      <trkpt lat="43.88378" lon="7.33128">
        <ele>891.450745</ele>
        <time>2011-09-04T14:14:52Z</time>
      </trkpt>
      <trkpt lat="43.88374" lon="7.33115">
        <ele>894.450714</ele>
        <time>2011-09-04T14:14:58Z</time>
      </trkpt>
      <trkpt lat="43.88375" lon="7.33087">
        <ele>898.450661</ele>
        <time>2011-09-04T14:15:12Z</time>
      </trkpt>
      <trkpt lat="43.88377" lon="7.33067">
        <ele>900.450619</ele>
        <time>2011-09-04T14:15:22Z</time>
      </trkpt>
      <trkpt lat="43.88384" lon="7.33076">
        <ele>895.450645</ele>
        <time>2011-09-04T14:15:34Z</time>
      </trkpt>
      <trkpt lat="43.88388" lon="7.33088">
        <ele>896.450676</ele>
        <time>2011-09-04T14:15:39Z</time>
      </trkpt>
      <trkpt lat="43.88392" lon="7.3307">
        <ele>898.450645</ele>
        <time>2011-09-04T14:16:01Z</time>
      </trkpt>
      <trkpt lat="43.88399" lon="7.3305">
        <ele>901.450615</ele>
        <time>2011-09-04T14:16:13Z</time>
      </trkpt>
      <trkpt lat="43.884" lon="7.33037">
        <ele>902.450592</ele>
        <time>2011-09-04T14:16:19Z</time>
      </trkpt>
      <trkpt lat="43.88389" lon="7.33019">
        <ele>903.450539</ele>
        <time>2011-09-04T14:16:43Z</time>
      </trkpt>
      <trkpt lat="43.88383" lon="7.33003">
        <ele>912.4505</ele>
        <time>2011-09-04T14:16:57Z</time>
      </trkpt>
      <trkpt lat="43.88397" lon="7.32994">
        <ele>918.4505</ele>
        <time>2011-09-04T14:17:11Z</time>
      </trkpt>
      <trkpt lat="43.88406" lon="7.32992">
        <ele>922.450508</ele>
        <time>2011-09-04T14:17:19Z</time>
      </trkpt>
      <trkpt lat="43.88415" lon="7.32989">
        <ele>923.450516</ele>
        <time>2011-09-04T14:17:27Z</time>
      </trkpt>
      <trkpt lat="43.88425" lon="7.32985">
        <ele>925.450516</ele>
        <time>2011-09-04T14:17:35Z</time>
      </trkpt>
      <trkpt lat="43.88434" lon="7.32979">
        <ele>926.450516</ele>
        <time>2011-09-04T14:17:44Z</time>
      </trkpt>
      <trkpt lat="43.88441" lon="7.32969">
        <ele>923.450508</ele>
        <time>2011-09-04T14:17:52Z</time>
      </trkpt>
      <trkpt lat="43.88447" lon="7.32957">
        <ele>923.450493</ele>
        <time>2011-09-04T14:17:59Z</time>
      </trkpt>
      <trkpt lat="43.88453" lon="7.32947">
        <ele>923.45047</ele>
        <time>2011-09-04T14:18:05Z</time>
      </trkpt>
      <trkpt lat="43.88461" lon="7.32937">
        <ele>926.450466</ele>
        <time>2011-09-04T14:18:11Z</time>
      </trkpt>
      <trkpt lat="43.88468" lon="7.32929">
        <ele>926.450462</ele>
        <time>2011-09-04T14:18:16Z</time>
      </trkpt>
      <trkpt lat="43.88476" lon="7.32921">
        <ele>927.450455</ele>
        <time>2011-09-04T14:18:22Z</time>
      </trkpt>
      <trkpt lat="43.88486" lon="7.3292">
        <ele>927.450462</ele>
        <time>2011-09-04T14:18:28Z</time>
      </trkpt>
      <trkpt lat="43.88494" lon="7.32927">
        <ele>925.450493</ele>
        <time>2011-09-04T14:18:35Z</time>
      </trkpt>
      <trkpt lat="43.88497" lon="7.3294">
        <ele>927.450523</ele>
        <time>2011-09-04T14:18:41Z</time>
      </trkpt>
      <trkpt lat="43.88502" lon="7.32951">
        <ele>930.450546</ele>
        <time>2011-09-04T14:18:47Z</time>
      </trkpt>
      <trkpt lat="43.88507" lon="7.32963">
        <ele>930.450581</ele>
        <time>2011-09-04T14:18:54Z</time>
      </trkpt>
      <trkpt lat="43.88512" lon="7.32975">
        <ele>933.450615</ele>
        <time>2011-09-04T14:19:01Z</time>
      </trkpt>
      <trkpt lat="43.88519" lon="7.32986">
        <ele>935.450645</ele>
        <time>2011-09-04T14:19:08Z</time>
      </trkpt>
      <trkpt lat="43.88526" lon="7.32996">
        <ele>936.450676</ele>
        <time>2011-09-04T14:19:14Z</time>
      </trkpt>
      <trkpt lat="43.88535" lon="7.33002">
        <ele>939.450699</ele>
        <time>2011-09-04T14:19:20Z</time>
      </trkpt>
      <trkpt lat="43.88544" lon="7.33004">
        <ele>941.450714</ele>
        <time>2011-09-04T14:19:26Z</time>
      </trkpt>
      <trkpt lat="43.88553" lon="7.33006">
        <ele>941.450729</ele>
        <time>2011-09-04T14:19:32Z</time>
      </trkpt>
      <trkpt lat="43.88561" lon="7.33016">
        <ele>943.450768</ele>
        <time>2011-09-04T14:19:39Z</time>
      </trkpt>
      <trkpt lat="43.88565" lon="7.33029">
        <ele>943.45079</ele>
        <time>2011-09-04T14:19:45Z</time>
      </trkpt>
      <trkpt lat="43.88572" lon="7.33039">
        <ele>946.450825</ele>
        <time>2011-09-04T14:19:51Z</time>
      </trkpt>
      <trkpt lat="43.8858" lon="7.33046">
        <ele>947.450848</ele>
        <time>2011-09-04T14:19:57Z</time>
      </trkpt>
      <trkpt lat="43.88589" lon="7.33049">
        <ele>950.450867</ele>
        <time>2011-09-04T14:20:03Z</time>
      </trkpt>
      <trkpt lat="43.88599" lon="7.33052">
        <ele>951.450886</ele>
        <time>2011-09-04T14:20:10Z</time>
      </trkpt>
      <trkpt lat="43.88609" lon="7.33053">
        <ele>951.450905</ele>
        <time>2011-09-04T14:20:17Z</time>
      </trkpt>
      <trkpt lat="43.8862" lon="7.33054">
        <ele>952.450916</ele>
        <time>2011-09-04T14:20:24Z</time>
      </trkpt>
      <trkpt lat="43.88629" lon="7.33054">
        <ele>955.450928</ele>
        <time>2011-09-04T14:20:31Z</time>
      </trkpt>
      <trkpt lat="43.88639" lon="7.33055">
        <ele>957.450943</ele>
        <time>2011-09-04T14:20:38Z</time>
      </trkpt>
      <trkpt lat="43.8865" lon="7.33049">
        <ele>961.450951</ele>
        <time>2011-09-04T14:20:52Z</time>
      </trkpt>
      <trkpt lat="43.88649" lon="7.33048">
        <ele>961.450943</ele>
        <time>2011-09-04T14:20:53Z</time>
      </trkpt>
      <trkpt lat="43.88639" lon="7.3304">
        <ele>962.450916</ele>
        <time>2011-09-04T14:21:04Z</time>
      </trkpt>
      <trkpt lat="43.88622" lon="7.33028">
        <ele>966.450867</ele>
        <time>2011-09-04T14:21:17Z</time>
      </trkpt>
      <trkpt lat="43.88609" lon="7.33019">
        <ele>970.450832</ele>
        <time>2011-09-04T14:21:25Z</time>
      </trkpt>
      <trkpt lat="43.886" lon="7.33011">
        <ele>972.450806</ele>
        <time>2011-09-04T14:21:31Z</time>
      </trkpt>
      <trkpt lat="43.88587" lon="7.32996">
        <ele>973.450756</ele>
        <time>2011-09-04T14:21:39Z</time>
      </trkpt>
      <trkpt lat="43.88581" lon="7.32985">
        <ele>973.450726</ele>
        <time>2011-09-04T14:21:44Z</time>
      </trkpt>
      <trkpt lat="43.8858" lon="7.32983">
        <ele>973.450722</ele>
        <time>2011-09-04T14:21:45Z</time>
      </trkpt>
      <trkpt lat="43.88573" lon="7.32972">
        <ele>976.450684</ele>
        <time>2011-09-04T14:21:51Z</time>
      </trkpt>
      <trkpt lat="43.88566" lon="7.32961">
        <ele>976.450653</ele>
        <time>2011-09-04T14:21:57Z</time>
      </trkpt>
      <trkpt lat="43.8856" lon="7.3295">
        <ele>977.450623</ele>
        <time>2011-09-04T14:22:04Z</time>
      </trkpt>
      <trkpt lat="43.88557" lon="7.32938">
        <ele>976.450592</ele>
        <time>2011-09-04T14:22:11Z</time>
      </trkpt>
      <trkpt lat="43.88561" lon="7.32926">
        <ele>978.450577</ele>
        <time>2011-09-04T14:22:23Z</time>
      </trkpt>
      <trkpt lat="43.88557" lon="7.32911">
        <ele>978.450542</ele>
        <time>2011-09-04T14:22:29Z</time>
      </trkpt>
      <trkpt lat="43.88554" lon="7.32896">
        <ele>977.450504</ele>
        <time>2011-09-04T14:22:32Z</time>
      </trkpt>
      <trkpt lat="43.88551" lon="7.32883">
        <ele>976.450478</ele>
        <time>2011-09-04T14:22:35Z</time>
      </trkpt>
      <trkpt lat="43.8855" lon="7.32877">
        <ele>976.450462</ele>
        <time>2011-09-04T14:22:38Z</time>
      </trkpt>
      <trkpt lat="43.88545" lon="7.32866">
        <ele>974.450432</ele>
        <time>2011-09-04T14:22:45Z</time>
      </trkpt>
      <trkpt lat="43.88544" lon="7.32866">
        <ele>974.450432</ele>
        <time>2011-09-04T14:22:49Z</time>
      </trkpt>
      <trkpt lat="43.88536" lon="7.32861">
        <ele>981.450409</ele>
        <time>2011-09-04T14:23:28Z</time>
      </trkpt>
      <trkpt lat="43.88533" lon="7.32837">
        <ele>978.450359</ele>
        <time>2011-09-04T14:25:27Z</time>
      </trkpt>
      <trkpt lat="43.8853" lon="7.32822">
        <ele>980.450321</ele>
        <time>2011-09-04T14:25:30Z</time>
      </trkpt>
      <trkpt lat="43.88528" lon="7.32806">
        <ele>980.450287</ele>
        <time>2011-09-04T14:25:33Z</time>
      </trkpt>
      <trkpt lat="43.88526" lon="7.32789">
        <ele>980.450249</ele>
        <time>2011-09-04T14:25:36Z</time>
      </trkpt>
      <trkpt lat="43.88526" lon="7.32776">
        <ele>979.450222</ele>
        <time>2011-09-04T14:25:38Z</time>
      </trkpt>
      <trkpt lat="43.88525" lon="7.32762">
        <ele>978.450188</ele>
        <time>2011-09-04T14:25:40Z</time>
      </trkpt>
      <trkpt lat="43.88524" lon="7.32747">
        <ele>978.450157</ele>
        <time>2011-09-04T14:25:42Z</time>
      </trkpt>
      <trkpt lat="43.88524" lon="7.32734">
        <ele>977.450127</ele>
        <time>2011-09-04T14:25:44Z</time>
      </trkpt>
      <trkpt lat="43.88524" lon="7.32728">
        <ele>977.450115</ele>
        <time>2011-09-04T14:25:45Z</time>
      </trkpt>
      <trkpt lat="43.88526" lon="7.32712">
        <ele>977.450089</ele>
        <time>2011-09-04T14:25:48Z</time>
      </trkpt>
      <trkpt lat="43.88531" lon="7.32701">
        <ele>976.450077</ele>
        <time>2011-09-04T14:25:51Z</time>
      </trkpt>
      <trkpt lat="43.88537" lon="7.32691">
        <ele>976.450058</ele>
        <time>2011-09-04T14:25:55Z</time>
      </trkpt>
      <trkpt lat="43.88537" lon="7.32691">
        <ele>976.450058</ele>
        <time>2011-09-04T14:25:56Z</time>
      </trkpt>
      <trkpt lat="43.88528" lon="7.32685">
        <ele>977.450035</ele>
        <time>2011-09-04T14:26:04Z</time>
      </trkpt>
      <trkpt lat="43.88514" lon="7.32681">
        <ele>976.450012</ele>
        <time>2011-09-04T14:26:10Z</time>
      </trkpt>
      <trkpt lat="43.88513" lon="7.32663">
        <ele>974.449974</ele>
        <time>2011-09-04T14:26:16Z</time>
      </trkpt>
      <trkpt lat="43.88513" lon="7.32651">
        <ele>973.449944</ele>
        <time>2011-09-04T14:26:18Z</time>
      </trkpt>
      <trkpt lat="43.88511" lon="7.32631">
        <ele>972.449905</ele>
        <time>2011-09-04T14:26:21Z</time>
      </trkpt>
      <trkpt lat="43.88509" lon="7.32621">
        <ele>972.449879</ele>
        <time>2011-09-04T14:26:23Z</time>
      </trkpt>
      <trkpt lat="43.88503" lon="7.32611">
        <ele>971.449852</ele>
        <time>2011-09-04T14:26:26Z</time>
      </trkpt>
      <trkpt lat="43.88495" lon="7.32602">
        <ele>970.449821</ele>
        <time>2011-09-04T14:26:30Z</time>
      </trkpt>
      <trkpt lat="43.88489" lon="7.32589">
        <ele>970.449787</ele>
        <time>2011-09-04T14:26:33Z</time>
      </trkpt>
      <trkpt lat="43.88484" lon="7.32574">
        <ele>970.449753</ele>
        <time>2011-09-04T14:26:35Z</time>
      </trkpt>
      <trkpt lat="43.88481" lon="7.32559">
        <ele>970.449715</ele>
        <time>2011-09-04T14:26:37Z</time>
      </trkpt>
      <trkpt lat="43.88475" lon="7.32548">
        <ele>970.449684</ele>
        <time>2011-09-04T14:26:39Z</time>
      </trkpt>
      <trkpt lat="43.88467" lon="7.32542">
        <ele>970.449661</ele>
        <time>2011-09-04T14:26:41Z</time>
      </trkpt>
      <trkpt lat="43.88464" lon="7.3254">
        <ele>970.449654</ele>
        <time>2011-09-04T14:26:42Z</time>
      </trkpt>
      <trkpt lat="43.88448" lon="7.32528">
        <ele>969.449608</ele>
        <time>2011-09-04T14:26:48Z</time>
      </trkpt>
      <trkpt lat="43.88439" lon="7.32526">
        <ele>961.449593</ele>
        <time>2011-09-04T14:27:28Z</time>
      </trkpt>
      <trkpt lat="43.88429" lon="7.3252">
        <ele>962.449562</ele>
        <time>2011-09-04T14:27:48Z</time>
      </trkpt>
      <trkpt lat="43.8842" lon="7.32515">
        <ele>963.449543</ele>
        <time>2011-09-04T14:27:57Z</time>
      </trkpt>
      <trkpt lat="43.88412" lon="7.32508">
        <ele>968.449516</ele>
        <time>2011-09-04T14:28:04Z</time>
      </trkpt>
      <trkpt lat="43.88403" lon="7.32504">
        <ele>969.449501</ele>
        <time>2011-09-04T14:28:20Z</time>
      </trkpt>
      <trkpt lat="43.88411" lon="7.32497">
        <ele>967.449493</ele>
        <time>2011-09-04T14:28:40Z</time>
      </trkpt>
      <trkpt lat="43.88411" lon="7.32483">
        <ele>966.449463</ele>
        <time>2011-09-04T14:28:47Z</time>
      </trkpt>
      <trkpt lat="43.88411" lon="7.32482">
        <ele>966.449459</ele>
        <time>2011-09-04T14:28:49Z</time>
      </trkpt>
      <trkpt lat="43.88401" lon="7.32439">
        <ele>972.44936</ele>
        <time>2011-09-04T14:29:12Z</time>
      </trkpt>
      <trkpt lat="43.8838" lon="7.32411">
        <ele>971.449276</ele>
        <time>2011-09-04T14:29:29Z</time>
      </trkpt>
      <trkpt lat="43.8838" lon="7.32411">
        <ele>971.449276</ele>
        <time>2011-09-04T14:29:31Z</time>
      </trkpt>
      <trkpt lat="43.88373" lon="7.324">
        <ele>972.449242</ele>
        <time>2011-09-04T14:29:33Z</time>
      </trkpt>
      <trkpt lat="43.88364" lon="7.32387">
        <ele>972.449203</ele>
        <time>2011-09-04T14:29:38Z</time>
      </trkpt>
      <trkpt lat="43.88356" lon="7.32368">
        <ele>972.449158</ele>
        <time>2011-09-04T14:29:44Z</time>
      </trkpt>
      <trkpt lat="43.88355" lon="7.32364">
        <ele>973.449146</ele>
        <time>2011-09-04T14:29:45Z</time>
      </trkpt>
      <trkpt lat="43.88349" lon="7.32353">
        <ele>975.449116</ele>
        <time>2011-09-04T14:29:48Z</time>
      </trkpt>
      <trkpt lat="43.88344" lon="7.32348">
        <ele>976.449097</ele>
        <time>2011-09-04T14:29:50Z</time>
      </trkpt>
      <trkpt lat="43.88332" lon="7.32345">
        <ele>977.449074</ele>
        <time>2011-09-04T14:29:54Z</time>
      </trkpt>
      <trkpt lat="43.88328" lon="7.32345">
        <ele>978.449066</ele>
        <time>2011-09-04T14:29:55Z</time>
      </trkpt>
      <trkpt lat="43.88325" lon="7.32346">
        <ele>978.449066</ele>
        <time>2011-09-04T14:29:56Z</time>
      </trkpt>
      <trkpt lat="43.88313" lon="7.3235">
        <ele>979.449059</ele>
        <time>2011-09-04T14:29:59Z</time>
      </trkpt>
      <trkpt lat="43.88303" lon="7.32351">
        <ele>980.449051</ele>
        <time>2011-09-04T14:30:02Z</time>
      </trkpt>
      <trkpt lat="43.88293" lon="7.3235">
        <ele>979.449032</ele>
        <time>2011-09-04T14:30:05Z</time>
      </trkpt>
      <trkpt lat="43.88283" lon="7.32348">
        <ele>979.449017</ele>
        <time>2011-09-04T14:30:09Z</time>
      </trkpt>
      <trkpt lat="43.88273" lon="7.32347">
        <ele>981.449001</ele>
        <time>2011-09-04T14:30:15Z</time>
      </trkpt>
      <trkpt lat="43.88262" lon="7.32344">
        <ele>983.448978</ele>
        <time>2011-09-04T14:30:20Z</time>
      </trkpt>
      <trkpt lat="43.88254" lon="7.3234">
        <ele>985.448959</ele>
        <time>2011-09-04T14:30:23Z</time>
      </trkpt>
      <trkpt lat="43.88244" lon="7.32336">
        <ele>986.448936</ele>
        <time>2011-09-04T14:30:26Z</time>
      </trkpt>
      <trkpt lat="43.88234" lon="7.32331">
        <ele>987.448914</ele>
        <time>2011-09-04T14:30:29Z</time>
      </trkpt>
      <trkpt lat="43.88224" lon="7.3233">
        <ele>987.448898</ele>
        <time>2011-09-04T14:30:32Z</time>
      </trkpt>
      <trkpt lat="43.88214" lon="7.3233">
        <ele>988.448887</ele>
        <time>2011-09-04T14:30:35Z</time>
      </trkpt>
      <trkpt lat="43.88211" lon="7.3233">
        <ele>988.448883</ele>
        <time>2011-09-04T14:30:36Z</time>
      </trkpt>
      <trkpt lat="43.88201" lon="7.32331">
        <ele>988.448875</ele>
        <time>2011-09-04T14:30:39Z</time>
      </trkpt>
      <trkpt lat="43.88189" lon="7.32332">
        <ele>988.448856</ele>
        <time>2011-09-04T14:30:43Z</time>
      </trkpt>
      <trkpt lat="43.88186" lon="7.32332">
        <ele>988.448853</ele>
        <time>2011-09-04T14:30:44Z</time>
      </trkpt>
      <trkpt lat="43.88176" lon="7.32333">
        <ele>988.448841</ele>
        <time>2011-09-04T14:30:53Z</time>
      </trkpt>
      <trkpt lat="43.88176" lon="7.32333">
        <ele>988.448837</ele>
        <time>2011-09-04T14:30:54Z</time>
      </trkpt>
      <trkpt lat="43.88167" lon="7.3233">
        <ele>990.448822</ele>
        <time>2011-09-04T14:31:03Z</time>
      </trkpt>
      <trkpt lat="43.88156" lon="7.32328">
        <ele>992.448807</ele>
        <time>2011-09-04T14:31:06Z</time>
      </trkpt>
      <trkpt lat="43.88146" lon="7.32328">
        <ele>993.448792</ele>
        <time>2011-09-04T14:31:09Z</time>
      </trkpt>
      <trkpt lat="43.88136" lon="7.32324">
        <ele>993.448772</ele>
        <time>2011-09-04T14:31:12Z</time>
      </trkpt>
      <trkpt lat="43.88128" lon="7.32318">
        <ele>994.44875</ele>
        <time>2011-09-04T14:31:15Z</time>
      </trkpt>
      <trkpt lat="43.88126" lon="7.32316">
        <ele>994.448738</ele>
        <time>2011-09-04T14:31:16Z</time>
      </trkpt>
      <trkpt lat="43.88118" lon="7.32308">
        <ele>994.448711</ele>
        <time>2011-09-04T14:31:23Z</time>
      </trkpt>
      <trkpt lat="43.88116" lon="7.32305">
        <ele>994.448708</ele>
        <time>2011-09-04T14:31:26Z</time>
      </trkpt>
      <trkpt lat="43.88113" lon="7.32292">
        <ele>988.448673</ele>
        <time>2011-09-04T14:31:52Z</time>
      </trkpt>
      <trkpt lat="43.88102" lon="7.3229">
        <ele>989.448654</ele>
        <time>2011-09-04T14:31:57Z</time>
      </trkpt>
      <trkpt lat="43.88089" lon="7.32293">
        <ele>988.448647</ele>
        <time>2011-09-04T14:32:00Z</time>
      </trkpt>
      <trkpt lat="43.88081" lon="7.32297">
        <ele>987.448639</ele>
        <time>2011-09-04T14:32:02Z</time>
      </trkpt>
      <trkpt lat="43.88072" lon="7.32301">
        <ele>987.448639</ele>
        <time>2011-09-04T14:32:04Z</time>
      </trkpt>
      <trkpt lat="43.8806" lon="7.32309">
        <ele>986.448639</ele>
        <time>2011-09-04T14:32:07Z</time>
      </trkpt>
      <trkpt lat="43.88052" lon="7.32314">
        <ele>986.448639</ele>
        <time>2011-09-04T14:32:10Z</time>
      </trkpt>
      <trkpt lat="43.88043" lon="7.32321">
        <ele>985.448639</ele>
        <time>2011-09-04T14:32:14Z</time>
      </trkpt>
      <trkpt lat="43.88033" lon="7.32326">
        <ele>983.448639</ele>
        <time>2011-09-04T14:32:18Z</time>
      </trkpt>
      <trkpt lat="43.88023" lon="7.32329">
        <ele>981.448624</ele>
        <time>2011-09-04T14:32:22Z</time>
      </trkpt>
      <trkpt lat="43.88013" lon="7.32328">
        <ele>979.448616</ele>
        <time>2011-09-04T14:32:27Z</time>
      </trkpt>
      <trkpt lat="43.88002" lon="7.32327">
        <ele>979.448593</ele>
        <time>2011-09-04T14:32:31Z</time>
      </trkpt>
      <trkpt lat="43.87991" lon="7.3233">
        <ele>975.448586</ele>
        <time>2011-09-04T14:32:35Z</time>
      </trkpt>
      <trkpt lat="43.87984" lon="7.32342">
        <ele>971.448605</ele>
        <time>2011-09-04T14:32:38Z</time>
      </trkpt>
      <trkpt lat="43.87979" lon="7.32356">
        <ele>967.448624</ele>
        <time>2011-09-04T14:32:41Z</time>
      </trkpt>
      <trkpt lat="43.87973" lon="7.32377">
        <ele>950.448658</ele>
        <time>2011-09-04T14:32:57Z</time>
      </trkpt>
      <trkpt lat="43.87963" lon="7.32382">
        <ele>942.448658</ele>
        <time>2011-09-04T14:33:04Z</time>
      </trkpt>
      <trkpt lat="43.8796" lon="7.32383">
        <ele>940.448658</ele>
        <time>2011-09-04T14:33:06Z</time>
      </trkpt>
      <trkpt lat="43.8795" lon="7.32385">
        <ele>935.448647</ele>
        <time>2011-09-04T14:33:12Z</time>
      </trkpt>
      <trkpt lat="43.87935" lon="7.32388">
        <ele>931.448631</ele>
        <time>2011-09-04T14:33:20Z</time>
      </trkpt>
      <trkpt lat="43.87926" lon="7.32392">
        <ele>926.448627</ele>
        <time>2011-09-04T14:33:25Z</time>
      </trkpt>
      <trkpt lat="43.87921" lon="7.32394">
        <ele>923.448627</ele>
        <time>2011-09-04T14:33:28Z</time>
      </trkpt>
      <trkpt lat="43.87912" lon="7.32401">
        <ele>918.448627</ele>
        <time>2011-09-04T14:33:33Z</time>
      </trkpt>
      <trkpt lat="43.87904" lon="7.32405">
        <ele>915.448624</ele>
        <time>2011-09-04T14:33:37Z</time>
      </trkpt>
      <trkpt lat="43.87895" lon="7.3241">
        <ele>912.448624</ele>
        <time>2011-09-04T14:33:41Z</time>
      </trkpt>
      <trkpt lat="43.87886" lon="7.32414">
        <ele>910.44862</ele>
        <time>2011-09-04T14:33:45Z</time>
      </trkpt>
      <trkpt lat="43.87876" lon="7.32419">
        <ele>909.448616</ele>
        <time>2011-09-04T14:33:50Z</time>
      </trkpt>
      <trkpt lat="43.87867" lon="7.32423">
        <ele>909.448616</ele>
        <time>2011-09-04T14:33:57Z</time>
      </trkpt>
      <trkpt lat="43.87858" lon="7.3243">
        <ele>909.448616</ele>
        <time>2011-09-04T14:34:01Z</time>
      </trkpt>
      <trkpt lat="43.87848" lon="7.32439">
        <ele>908.44862</ele>
        <time>2011-09-04T14:34:05Z</time>
      </trkpt>
      <trkpt lat="43.87846" lon="7.32441">
        <ele>908.448624</ele>
        <time>2011-09-04T14:34:06Z</time>
      </trkpt>
      <trkpt lat="43.87838" lon="7.32449">
        <ele>907.448631</ele>
        <time>2011-09-04T14:34:11Z</time>
      </trkpt>
      <trkpt lat="43.87831" lon="7.32459">
        <ele>905.448635</ele>
        <time>2011-09-04T14:34:30Z</time>
      </trkpt>
      <trkpt lat="43.87821" lon="7.32443">
        <ele>907.448593</ele>
        <time>2011-09-04T14:35:22Z</time>
      </trkpt>
      <trkpt lat="43.87812" lon="7.32434">
        <ele>908.448563</ele>
        <time>2011-09-04T14:35:27Z</time>
      </trkpt>
      <trkpt lat="43.87805" lon="7.32427">
        <ele>908.44854</ele>
        <time>2011-09-04T14:35:31Z</time>
      </trkpt>
      <trkpt lat="43.87798" lon="7.32417">
        <ele>908.448509</ele>
        <time>2011-09-04T14:35:35Z</time>
      </trkpt>
      <trkpt lat="43.8779" lon="7.3241">
        <ele>909.448483</ele>
        <time>2011-09-04T14:35:38Z</time>
      </trkpt>
      <trkpt lat="43.87781" lon="7.32406">
        <ele>910.448463</ele>
        <time>2011-09-04T14:35:41Z</time>
      </trkpt>
      <trkpt lat="43.87772" lon="7.32403">
        <ele>910.448444</ele>
        <time>2011-09-04T14:35:44Z</time>
      </trkpt>
      <trkpt lat="43.87763" lon="7.32401">
        <ele>910.448433</ele>
        <time>2011-09-04T14:35:47Z</time>
      </trkpt>
      <trkpt lat="43.87759" lon="7.32401">
        <ele>910.448425</ele>
        <time>2011-09-04T14:35:48Z</time>
      </trkpt>
      <trkpt lat="43.8775" lon="7.32401">
        <ele>909.44841</ele>
        <time>2011-09-04T14:35:51Z</time>
      </trkpt>
      <trkpt lat="43.87746" lon="7.32401">
        <ele>909.448406</ele>
        <time>2011-09-04T14:35:52Z</time>
      </trkpt>
      <trkpt lat="43.87735" lon="7.324">
        <ele>909.448395</ele>
        <time>2011-09-04T14:35:55Z</time>
      </trkpt>
      <trkpt lat="43.87724" lon="7.32398">
        <ele>908.448372</ele>
        <time>2011-09-04T14:35:58Z</time>
      </trkpt>
      <trkpt lat="43.87714" lon="7.32394">
        <ele>908.448349</ele>
        <time>2011-09-04T14:36:01Z</time>
      </trkpt>
      <trkpt lat="43.87705" lon="7.32388">
        <ele>908.448322</ele>
        <time>2011-09-04T14:36:04Z</time>
      </trkpt>
      <trkpt lat="43.87696" lon="7.32383">
        <ele>907.448303</ele>
        <time>2011-09-04T14:36:07Z</time>
      </trkpt>
      <trkpt lat="43.8769" lon="7.32381">
        <ele>907.448288</ele>
        <time>2011-09-04T14:36:09Z</time>
      </trkpt>
      <trkpt lat="43.87678" lon="7.32378">
        <ele>906.448269</ele>
        <time>2011-09-04T14:36:13Z</time>
      </trkpt>
      <trkpt lat="43.87669" lon="7.32377">
        <ele>906.448254</ele>
        <time>2011-09-04T14:36:16Z</time>
      </trkpt>
      <trkpt lat="43.87659" lon="7.32378">
        <ele>905.448242</ele>
        <time>2011-09-04T14:36:19Z</time>
      </trkpt>
      <trkpt lat="43.87656" lon="7.32378">
        <ele>904.448238</ele>
        <time>2011-09-04T14:36:20Z</time>
      </trkpt>
      <trkpt lat="43.87647" lon="7.32379">
        <ele>904.448231</ele>
        <time>2011-09-04T14:36:23Z</time>
      </trkpt>
      <trkpt lat="43.87635" lon="7.32379">
        <ele>903.448212</ele>
        <time>2011-09-04T14:36:27Z</time>
      </trkpt>
      <trkpt lat="43.87624" lon="7.32379">
        <ele>902.448196</ele>
        <time>2011-09-04T14:36:31Z</time>
      </trkpt>
      <trkpt lat="43.87612" lon="7.32381">
        <ele>901.448181</ele>
        <time>2011-09-04T14:36:34Z</time>
      </trkpt>
      <trkpt lat="43.87599" lon="7.32382">
        <ele>899.44817</ele>
        <time>2011-09-04T14:36:37Z</time>
      </trkpt>
      <trkpt lat="43.87589" lon="7.32386">
        <ele>898.448166</ele>
        <time>2011-09-04T14:36:39Z</time>
      </trkpt>
      <trkpt lat="43.8758" lon="7.32388">
        <ele>897.448158</ele>
        <time>2011-09-04T14:36:41Z</time>
      </trkpt>
      <trkpt lat="43.8757" lon="7.32389">
        <ele>896.448147</ele>
        <time>2011-09-04T14:36:44Z</time>
      </trkpt>
      <trkpt lat="43.87561" lon="7.32388">
        <ele>895.448132</ele>
        <time>2011-09-04T14:36:47Z</time>
      </trkpt>
      <trkpt lat="43.87558" lon="7.32387">
        <ele>895.448128</ele>
        <time>2011-09-04T14:36:48Z</time>
      </trkpt>
      <trkpt lat="43.87548" lon="7.32388">
        <ele>893.448116</ele>
        <time>2011-09-04T14:36:52Z</time>
      </trkpt>
      <trkpt lat="43.87541" lon="7.3239">
        <ele>891.448109</ele>
        <time>2011-09-04T14:36:55Z</time>
      </trkpt>
      <trkpt lat="43.87532" lon="7.32387">
        <ele>890.44809</ele>
        <time>2011-09-04T14:36:59Z</time>
      </trkpt>
      <trkpt lat="43.87527" lon="7.32384">
        <ele>889.448074</ele>
        <time>2011-09-04T14:37:01Z</time>
      </trkpt>
      <trkpt lat="43.87518" lon="7.32377">
        <ele>887.448051</ele>
        <time>2011-09-04T14:37:05Z</time>
      </trkpt>
      <trkpt lat="43.87515" lon="7.32375">
        <ele>887.448044</ele>
        <time>2011-09-04T14:37:06Z</time>
      </trkpt>
      <trkpt lat="43.87506" lon="7.32368">
        <ele>885.448013</ele>
        <time>2011-09-04T14:37:10Z</time>
      </trkpt>
      <trkpt lat="43.87498" lon="7.32361">
        <ele>884.44799</ele>
        <time>2011-09-04T14:37:14Z</time>
      </trkpt>
      <trkpt lat="43.8749" lon="7.32355">
        <ele>883.447968</ele>
        <time>2011-09-04T14:37:18Z</time>
      </trkpt>
      <trkpt lat="43.87488" lon="7.32353">
        <ele>883.44796</ele>
        <time>2011-09-04T14:37:19Z</time>
      </trkpt>
      <trkpt lat="43.87478" lon="7.32346">
        <ele>883.447933</ele>
        <time>2011-09-04T14:37:23Z</time>
      </trkpt>
      <trkpt lat="43.8747" lon="7.32342">
        <ele>882.447914</ele>
        <time>2011-09-04T14:37:26Z</time>
      </trkpt>
      <trkpt lat="43.87461" lon="7.32342">
        <ele>881.447903</ele>
        <time>2011-09-04T14:37:29Z</time>
      </trkpt>
      <trkpt lat="43.87451" lon="7.32343">
        <ele>879.447891</ele>
        <time>2011-09-04T14:37:32Z</time>
      </trkpt>
      <trkpt lat="43.87445" lon="7.32341">
        <ele>877.44788</ele>
        <time>2011-09-04T14:37:34Z</time>
      </trkpt>
      <trkpt lat="43.87436" lon="7.32338">
        <ele>874.447861</ele>
        <time>2011-09-04T14:37:37Z</time>
      </trkpt>
      <trkpt lat="43.87431" lon="7.32336">
        <ele>872.447853</ele>
        <time>2011-09-04T14:37:39Z</time>
      </trkpt>
      <trkpt lat="43.87417" lon="7.32334">
        <ele>859.44783</ele>
        <time>2011-09-04T14:37:55Z</time>
      </trkpt>
      <trkpt lat="43.87408" lon="7.32331">
        <ele>856.447807</ele>
        <time>2011-09-04T14:38:00Z</time>
      </trkpt>
      <trkpt lat="43.87403" lon="7.3233">
        <ele>854.4478</ele>
        <time>2011-09-04T14:38:02Z</time>
      </trkpt>
      <trkpt lat="43.87391" lon="7.32333">
        <ele>840.447792</ele>
        <time>2011-09-04T14:38:12Z</time>
      </trkpt>
      <trkpt lat="43.87377" lon="7.32344">
        <ele>822.447792</ele>
        <time>2011-09-04T14:38:30Z</time>
      </trkpt>
      <trkpt lat="43.87362" lon="7.32334">
        <ele>782.447754</ele>
        <time>2011-09-04T14:39:44Z</time>
      </trkpt>
      <trkpt lat="43.87355" lon="7.32319">
        <ele>783.447712</ele>
        <time>2011-09-04T14:39:47Z</time>
      </trkpt>
      <trkpt lat="43.87345" lon="7.32306">
        <ele>784.447678</ele>
        <time>2011-09-04T14:39:50Z</time>
      </trkpt>
      <trkpt lat="43.87339" lon="7.32296">
        <ele>785.447647</ele>
        <time>2011-09-04T14:39:52Z</time>
      </trkpt>
      <trkpt lat="43.87329" lon="7.32288">
        <ele>785.447617</ele>
        <time>2011-09-04T14:39:54Z</time>
      </trkpt>
      <trkpt lat="43.8732" lon="7.32283">
        <ele>786.44759</ele>
        <time>2011-09-04T14:39:56Z</time>
      </trkpt>
      <trkpt lat="43.8731" lon="7.3228">
        <ele>786.447571</ele>
        <time>2011-09-04T14:39:59Z</time>
      </trkpt>
      <trkpt lat="43.87306" lon="7.32279">
        <ele>786.447563</ele>
        <time>2011-09-04T14:40:00Z</time>
      </trkpt>
      <trkpt lat="43.87297" lon="7.32277">
        <ele>786.447548</ele>
        <time>2011-09-04T14:40:02Z</time>
      </trkpt>
      <trkpt lat="43.87284" lon="7.32278">
        <ele>787.447533</ele>
        <time>2011-09-04T14:40:05Z</time>
      </trkpt>
      <trkpt lat="43.87274" lon="7.32278">
        <ele>787.447517</ele>
        <time>2011-09-04T14:40:07Z</time>
      </trkpt>
      <trkpt lat="43.87264" lon="7.32278">
        <ele>786.44751</ele>
        <time>2011-09-04T14:40:09Z</time>
      </trkpt>
      <trkpt lat="43.87253" lon="7.32279">
        <ele>786.447495</ele>
        <time>2011-09-04T14:40:11Z</time>
      </trkpt>
      <trkpt lat="43.87244" lon="7.32281">
        <ele>786.447487</ele>
        <time>2011-09-04T14:40:13Z</time>
      </trkpt>
      <trkpt lat="43.87233" lon="7.32282">
        <ele>786.447479</ele>
        <time>2011-09-04T14:40:16Z</time>
      </trkpt>
      <trkpt lat="43.87223" lon="7.32283">
        <ele>785.44746</ele>
        <time>2011-09-04T14:40:20Z</time>
      </trkpt>
      <trkpt lat="43.8721" lon="7.32284">
        <ele>783.447449</ele>
        <time>2011-09-04T14:40:24Z</time>
      </trkpt>
      <trkpt lat="43.87201" lon="7.32284">
        <ele>782.447437</ele>
        <time>2011-09-04T14:40:26Z</time>
      </trkpt>
      <trkpt lat="43.87191" lon="7.32283">
        <ele>782.447418</ele>
        <time>2011-09-04T14:40:28Z</time>
      </trkpt>
      <trkpt lat="43.8718" lon="7.32278">
        <ele>782.447395</ele>
        <time>2011-09-04T14:40:31Z</time>
      </trkpt>
      <trkpt lat="43.87168" lon="7.32281">
        <ele>781.447384</ele>
        <time>2011-09-04T14:40:34Z</time>
      </trkpt>
      <trkpt lat="43.87156" lon="7.32281">
        <ele>781.447369</ele>
        <time>2011-09-04T14:40:37Z</time>
      </trkpt>
      <trkpt lat="43.87148" lon="7.32276">
        <ele>781.447346</ele>
        <time>2011-09-04T14:40:39Z</time>
      </trkpt>
      <trkpt lat="43.87136" lon="7.32267">
        <ele>781.447311</ele>
        <time>2011-09-04T14:40:42Z</time>
      </trkpt>
      <trkpt lat="43.87132" lon="7.32265">
        <ele>781.447304</ele>
        <time>2011-09-04T14:40:43Z</time>
      </trkpt>
      <trkpt lat="43.8712" lon="7.32257">
        <ele>780.447269</ele>
        <time>2011-09-04T14:40:46Z</time>
      </trkpt>
      <trkpt lat="43.8711" lon="7.32248">
        <ele>779.447239</ele>
        <time>2011-09-04T14:40:49Z</time>
      </trkpt>
      <trkpt lat="43.87103" lon="7.32234">
        <ele>778.447205</ele>
        <time>2011-09-04T14:40:52Z</time>
      </trkpt>
      <trkpt lat="43.87101" lon="7.32223">
        <ele>777.447174</ele>
        <time>2011-09-04T14:40:54Z</time>
      </trkpt>
      <trkpt lat="43.87099" lon="7.32208">
        <ele>775.447144</ele>
        <time>2011-09-04T14:40:57Z</time>
      </trkpt>
      <trkpt lat="43.87098" lon="7.32198">
        <ele>774.447121</ele>
        <time>2011-09-04T14:40:59Z</time>
      </trkpt>
      <trkpt lat="43.87097" lon="7.32182">
        <ele>773.447083</ele>
        <time>2011-09-04T14:41:02Z</time>
      </trkpt>
      <trkpt lat="43.87093" lon="7.32166">
        <ele>771.447048</ele>
        <time>2011-09-04T14:41:05Z</time>
      </trkpt>
      <trkpt lat="43.87087" lon="7.32155">
        <ele>769.447018</ele>
        <time>2011-09-04T14:41:07Z</time>
      </trkpt>
      <trkpt lat="43.87081" lon="7.32145">
        <ele>768.446991</ele>
        <time>2011-09-04T14:41:09Z</time>
      </trkpt>
      <trkpt lat="43.87077" lon="7.3214">
        <ele>767.446968</ele>
        <time>2011-09-04T14:41:10Z</time>
      </trkpt>
      <trkpt lat="43.87067" lon="7.32138">
        <ele>766.446953</ele>
        <time>2011-09-04T14:41:12Z</time>
      </trkpt>
      <trkpt lat="43.87058" lon="7.32141">
        <ele>764.446945</ele>
        <time>2011-09-04T14:41:14Z</time>
      </trkpt>
      <trkpt lat="43.87054" lon="7.32142">
        <ele>764.446945</ele>
        <time>2011-09-04T14:41:15Z</time>
      </trkpt>
      <trkpt lat="43.87041" lon="7.32146">
        <ele>762.446938</ele>
        <time>2011-09-04T14:41:18Z</time>
      </trkpt>
      <trkpt lat="43.87037" lon="7.32148">
        <ele>761.446934</ele>
        <time>2011-09-04T14:41:19Z</time>
      </trkpt>
      <trkpt lat="43.87026" lon="7.32156">
        <ele>756.446938</ele>
        <time>2011-09-04T14:41:22Z</time>
      </trkpt>
      <trkpt lat="43.87014" lon="7.32162">
        <ele>754.44693</ele>
        <time>2011-09-04T14:41:25Z</time>
      </trkpt>
      <trkpt lat="43.87007" lon="7.32166">
        <ele>752.44693</ele>
        <time>2011-09-04T14:41:27Z</time>
      </trkpt>
      <trkpt lat="43.86998" lon="7.32177">
        <ele>751.446945</ele>
        <time>2011-09-04T14:41:30Z</time>
      </trkpt>
      <trkpt lat="43.8699" lon="7.3219">
        <ele>750.44696</ele>
        <time>2011-09-04T14:41:33Z</time>
      </trkpt>
      <trkpt lat="43.86982" lon="7.32201">
        <ele>748.446968</ele>
        <time>2011-09-04T14:41:36Z</time>
      </trkpt>
      <trkpt lat="43.86979" lon="7.32204">
        <ele>748.446972</ele>
        <time>2011-09-04T14:41:37Z</time>
      </trkpt>
      <trkpt lat="43.86969" lon="7.32212">
        <ele>746.446976</ele>
        <time>2011-09-04T14:41:40Z</time>
      </trkpt>
      <trkpt lat="43.86957" lon="7.32215">
        <ele>745.446968</ele>
        <time>2011-09-04T14:41:43Z</time>
      </trkpt>
      <trkpt lat="43.8695" lon="7.32222">
        <ele>744.446968</ele>
        <time>2011-09-04T14:41:50Z</time>
      </trkpt>
      <trkpt lat="43.86943" lon="7.32233">
        <ele>746.446983</ele>
        <time>2011-09-04T14:42:19Z</time>
      </trkpt>
      <trkpt lat="43.86933" lon="7.32236">
        <ele>746.446976</ele>
        <time>2011-09-04T14:42:23Z</time>
      </trkpt>
      <trkpt lat="43.86919" lon="7.32239">
        <ele>747.446964</ele>
        <time>2011-09-04T14:42:27Z</time>
      </trkpt>
      <trkpt lat="43.8691" lon="7.32241">
        <ele>748.446957</ele>
        <time>2011-09-04T14:42:30Z</time>
      </trkpt>
      <trkpt lat="43.86907" lon="7.32243">
        <ele>748.446957</ele>
        <time>2011-09-04T14:42:31Z</time>
      </trkpt>
      <trkpt lat="43.86898" lon="7.32247">
        <ele>749.446953</ele>
        <time>2011-09-04T14:42:34Z</time>
      </trkpt>
      <trkpt lat="43.86896" lon="7.32248">
        <ele>749.446953</ele>
        <time>2011-09-04T14:42:35Z</time>
      </trkpt>
      <trkpt lat="43.86887" lon="7.32253">
        <ele>750.446953</ele>
        <time>2011-09-04T14:42:38Z</time>
      </trkpt>
      <trkpt lat="43.86876" lon="7.32258">
        <ele>750.446945</ele>
        <time>2011-09-04T14:42:41Z</time>
      </trkpt>
      <trkpt lat="43.86872" lon="7.32261">
        <ele>750.446945</ele>
        <time>2011-09-04T14:42:42Z</time>
      </trkpt>
      <trkpt lat="43.86859" lon="7.32267">
        <ele>750.446945</ele>
        <time>2011-09-04T14:42:45Z</time>
      </trkpt>
      <trkpt lat="43.86855" lon="7.3227">
        <ele>750.446938</ele>
        <time>2011-09-04T14:42:46Z</time>
      </trkpt>
      <trkpt lat="43.86846" lon="7.32274">
        <ele>750.446938</ele>
        <time>2011-09-04T14:42:48Z</time>
      </trkpt>
      <trkpt lat="43.86833" lon="7.32278">
        <ele>751.44693</ele>
        <time>2011-09-04T14:42:51Z</time>
      </trkpt>
      <trkpt lat="43.86821" lon="7.32283">
        <ele>752.446926</ele>
        <time>2011-09-04T14:42:54Z</time>
      </trkpt>
      <trkpt lat="43.86809" lon="7.32288">
        <ele>753.446922</ele>
        <time>2011-09-04T14:42:57Z</time>
      </trkpt>
      <trkpt lat="43.86804" lon="7.3229">
        <ele>753.446918</ele>
        <time>2011-09-04T14:42:58Z</time>
      </trkpt>
      <trkpt lat="43.86792" lon="7.32296">
        <ele>754.446915</ele>
        <time>2011-09-04T14:43:01Z</time>
      </trkpt>
      <trkpt lat="43.86782" lon="7.323">
        <ele>755.446907</ele>
        <time>2011-09-04T14:43:04Z</time>
      </trkpt>
      <trkpt lat="43.86772" lon="7.32306">
        <ele>755.446907</ele>
        <time>2011-09-04T14:43:07Z</time>
      </trkpt>
      <trkpt lat="43.86762" lon="7.32312">
        <ele>753.446903</ele>
        <time>2011-09-04T14:43:10Z</time>
      </trkpt>
      <trkpt lat="43.86753" lon="7.32316">
        <ele>752.446903</ele>
        <time>2011-09-04T14:43:13Z</time>
      </trkpt>
      <trkpt lat="43.86743" lon="7.32323">
        <ele>751.446903</ele>
        <time>2011-09-04T14:43:17Z</time>
      </trkpt>
      <trkpt lat="43.86734" lon="7.3233">
        <ele>750.446907</ele>
        <time>2011-09-04T14:43:20Z</time>
      </trkpt>
      <trkpt lat="43.86725" lon="7.32338">
        <ele>749.446907</ele>
        <time>2011-09-04T14:43:23Z</time>
      </trkpt>
      <trkpt lat="43.86717" lon="7.32346">
        <ele>748.446915</ele>
        <time>2011-09-04T14:43:26Z</time>
      </trkpt>
      <trkpt lat="43.86709" lon="7.32354">
        <ele>747.446922</ele>
        <time>2011-09-04T14:43:29Z</time>
      </trkpt>
      <trkpt lat="43.867" lon="7.3236">
        <ele>747.446922</ele>
        <time>2011-09-04T14:43:32Z</time>
      </trkpt>
      <trkpt lat="43.86689" lon="7.32365">
        <ele>747.446918</ele>
        <time>2011-09-04T14:43:35Z</time>
      </trkpt>
      <trkpt lat="43.86681" lon="7.3237">
        <ele>747.446918</ele>
        <time>2011-09-04T14:43:48Z</time>
      </trkpt>
      <trkpt lat="43.86684" lon="7.32382">
        <ele>739.446945</ele>
        <time>2011-09-04T14:44:40Z</time>
      </trkpt>
      <trkpt lat="43.86684" lon="7.32382">
        <ele>739.446945</ele>
        <time>2011-09-04T14:44:43Z</time>
      </trkpt>
      <trkpt lat="43.86672" lon="7.32384">
        <ele>739.446934</ele>
        <time>2011-09-04T14:45:00Z</time>
      </trkpt>
      <trkpt lat="43.8666" lon="7.32384">
        <ele>739.446918</ele>
        <time>2011-09-04T14:45:03Z</time>
      </trkpt>
      <trkpt lat="43.86656" lon="7.32383">
        <ele>739.446907</ele>
        <time>2011-09-04T14:45:04Z</time>
      </trkpt>
      <trkpt lat="43.86644" lon="7.3238">
        <ele>740.446888</ele>
        <time>2011-09-04T14:45:07Z</time>
      </trkpt>
      <trkpt lat="43.8664" lon="7.32378">
        <ele>740.446877</ele>
        <time>2011-09-04T14:45:08Z</time>
      </trkpt>
      <trkpt lat="43.86628" lon="7.32372">
        <ele>740.446854</ele>
        <time>2011-09-04T14:45:11Z</time>
      </trkpt>
      <trkpt lat="43.86619" lon="7.32365">
        <ele>741.446823</ele>
        <time>2011-09-04T14:45:14Z</time>
      </trkpt>
      <trkpt lat="43.8661" lon="7.32358">
        <ele>742.446796</ele>
        <time>2011-09-04T14:45:18Z</time>
      </trkpt>
      <trkpt lat="43.86609" lon="7.32358">
        <ele>741.446793</ele>
        <time>2011-09-04T14:45:21Z</time>
      </trkpt>
      <trkpt lat="43.866" lon="7.32355">
        <ele>740.446777</ele>
        <time>2011-09-04T14:45:35Z</time>
      </trkpt>
      <trkpt lat="43.86589" lon="7.32348">
        <ele>740.446747</ele>
        <time>2011-09-04T14:45:41Z</time>
      </trkpt>
      <trkpt lat="43.86579" lon="7.3235">
        <ele>740.446739</ele>
        <time>2011-09-04T14:45:44Z</time>
      </trkpt>
      <trkpt lat="43.86567" lon="7.32354">
        <ele>739.446728</ele>
        <time>2011-09-04T14:45:47Z</time>
      </trkpt>
      <trkpt lat="43.86562" lon="7.32354">
        <ele>739.446724</ele>
        <time>2011-09-04T14:45:48Z</time>
      </trkpt>
      <trkpt lat="43.86551" lon="7.32354">
        <ele>738.446709</ele>
        <time>2011-09-04T14:45:50Z</time>
      </trkpt>
      <trkpt lat="43.86545" lon="7.32354">
        <ele>738.446701</ele>
        <time>2011-09-04T14:45:51Z</time>
      </trkpt>
      <trkpt lat="43.86536" lon="7.32354">
        <ele>738.446686</ele>
        <time>2011-09-04T14:45:53Z</time>
      </trkpt>
      <trkpt lat="43.86531" lon="7.32353">
        <ele>737.446682</ele>
        <time>2011-09-04T14:45:54Z</time>
      </trkpt>
      <trkpt lat="43.86521" lon="7.32345">
        <ele>737.446655</ele>
        <time>2011-09-04T14:45:57Z</time>
      </trkpt>
      <trkpt lat="43.86512" lon="7.32331">
        <ele>736.446613</ele>
        <time>2011-09-04T14:46:00Z</time>
      </trkpt>
      <trkpt lat="43.86509" lon="7.32319">
        <ele>735.446583</ele>
        <time>2011-09-04T14:46:02Z</time>
      </trkpt>
      <trkpt lat="43.86506" lon="7.32304">
        <ele>733.446545</ele>
        <time>2011-09-04T14:46:04Z</time>
      </trkpt>
      <trkpt lat="43.86503" lon="7.32291">
        <ele>732.446518</ele>
        <time>2011-09-04T14:46:06Z</time>
      </trkpt>
      <trkpt lat="43.86502" lon="7.32286">
        <ele>732.446503</ele>
        <time>2011-09-04T14:46:07Z</time>
      </trkpt>
      <trkpt lat="43.86496" lon="7.32276">
        <ele>731.446476</ele>
        <time>2011-09-04T14:46:10Z</time>
      </trkpt>
      <trkpt lat="43.8649" lon="7.32279">
        <ele>730.446472</ele>
        <time>2011-09-04T14:46:12Z</time>
      </trkpt>
      <trkpt lat="43.86479" lon="7.3228">
        <ele>730.446461</ele>
        <time>2011-09-04T14:46:15Z</time>
      </trkpt>
      <trkpt lat="43.86467" lon="7.3228">
        <ele>729.446442</ele>
        <time>2011-09-04T14:46:18Z</time>
      </trkpt>
      <trkpt lat="43.86456" lon="7.32284">
        <ele>728.446442</ele>
        <time>2011-09-04T14:46:21Z</time>
      </trkpt>
      <trkpt lat="43.86445" lon="7.32287">
        <ele>728.446426</ele>
        <time>2011-09-04T14:46:24Z</time>
      </trkpt>
      <trkpt lat="43.86433" lon="7.32293">
        <ele>727.446426</ele>
        <time>2011-09-04T14:46:27Z</time>
      </trkpt>
      <trkpt lat="43.86422" lon="7.32299">
        <ele>727.446426</ele>
        <time>2011-09-04T14:46:30Z</time>
      </trkpt>
      <trkpt lat="43.8641" lon="7.32303">
        <ele>727.446419</ele>
        <time>2011-09-04T14:46:33Z</time>
      </trkpt>
      <trkpt lat="43.864" lon="7.32305">
        <ele>727.446411</ele>
        <time>2011-09-04T14:46:36Z</time>
      </trkpt>
      <trkpt lat="43.8639" lon="7.3231">
        <ele>727.446404</ele>
        <time>2011-09-04T14:46:39Z</time>
      </trkpt>
      <trkpt lat="43.86379" lon="7.32314">
        <ele>727.4464</ele>
        <time>2011-09-04T14:46:42Z</time>
      </trkpt>
      <trkpt lat="43.86368" lon="7.32321">
        <ele>728.446396</ele>
        <time>2011-09-04T14:46:45Z</time>
      </trkpt>
      <trkpt lat="43.86358" lon="7.32327">
        <ele>727.446396</ele>
        <time>2011-09-04T14:46:48Z</time>
      </trkpt>
      <trkpt lat="43.86345" lon="7.32336">
        <ele>726.4464</ele>
        <time>2011-09-04T14:46:51Z</time>
      </trkpt>
      <trkpt lat="43.86336" lon="7.32342">
        <ele>725.446396</ele>
        <time>2011-09-04T14:46:53Z</time>
      </trkpt>
      <trkpt lat="43.86322" lon="7.3235">
        <ele>724.446396</ele>
        <time>2011-09-04T14:46:56Z</time>
      </trkpt>
      <trkpt lat="43.86313" lon="7.32354">
        <ele>723.446396</ele>
        <time>2011-09-04T14:46:58Z</time>
      </trkpt>
      <trkpt lat="43.86304" lon="7.32359">
        <ele>722.446392</ele>
        <time>2011-09-04T14:47:00Z</time>
      </trkpt>
      <trkpt lat="43.86291" lon="7.32364">
        <ele>719.446384</ele>
        <time>2011-09-04T14:47:03Z</time>
      </trkpt>
      <trkpt lat="43.86278" lon="7.32369">
        <ele>716.446377</ele>
        <time>2011-09-04T14:47:06Z</time>
      </trkpt>
      <trkpt lat="43.86268" lon="7.32373">
        <ele>714.446365</ele>
        <time>2011-09-04T14:47:09Z</time>
      </trkpt>
      <trkpt lat="43.86257" lon="7.32375">
        <ele>712.446365</ele>
        <time>2011-09-04T14:47:12Z</time>
      </trkpt>
      <trkpt lat="43.86247" lon="7.32377">
        <ele>711.44635</ele>
        <time>2011-09-04T14:47:15Z</time>
      </trkpt>
      <trkpt lat="43.86235" lon="7.3238">
        <ele>710.446342</ele>
        <time>2011-09-04T14:47:18Z</time>
      </trkpt>
      <trkpt lat="43.86223" lon="7.32387">
        <ele>709.446342</ele>
        <time>2011-09-04T14:47:23Z</time>
      </trkpt>
      <trkpt lat="43.86215" lon="7.32397">
        <ele>708.44635</ele>
        <time>2011-09-04T14:47:26Z</time>
      </trkpt>
      <trkpt lat="43.86202" lon="7.324">
        <ele>708.446335</ele>
        <time>2011-09-04T14:47:29Z</time>
      </trkpt>
      <trkpt lat="43.8619" lon="7.32407">
        <ele>707.446335</ele>
        <time>2011-09-04T14:47:32Z</time>
      </trkpt>
      <trkpt lat="43.86179" lon="7.32413">
        <ele>706.446331</ele>
        <time>2011-09-04T14:47:35Z</time>
      </trkpt>
      <trkpt lat="43.86161" lon="7.32417">
        <ele>705.44632</ele>
        <time>2011-09-04T14:47:39Z</time>
      </trkpt>
      <trkpt lat="43.86149" lon="7.32419">
        <ele>705.446312</ele>
        <time>2011-09-04T14:47:41Z</time>
      </trkpt>
      <trkpt lat="43.86138" lon="7.3242">
        <ele>705.446293</ele>
        <time>2011-09-04T14:47:43Z</time>
      </trkpt>
      <trkpt lat="43.86127" lon="7.32416">
        <ele>705.44627</ele>
        <time>2011-09-04T14:47:45Z</time>
      </trkpt>
      <trkpt lat="43.86118" lon="7.32406">
        <ele>705.446239</ele>
        <time>2011-09-04T14:47:49Z</time>
      </trkpt>
      <trkpt lat="43.86103" lon="7.32383">
        <ele>703.446171</ele>
        <time>2011-09-04T14:48:05Z</time>
      </trkpt>
      <trkpt lat="43.861" lon="7.32371">
        <ele>702.44614</ele>
        <time>2011-09-04T14:48:08Z</time>
      </trkpt>
      <trkpt lat="43.86091" lon="7.32334">
        <ele>699.446053</ele>
        <time>2011-09-04T14:48:18Z</time>
      </trkpt>
      <trkpt lat="43.86088" lon="7.32322">
        <ele>697.446022</ele>
        <time>2011-09-04T14:48:20Z</time>
      </trkpt>
      <trkpt lat="43.86086" lon="7.32308">
        <ele>696.445992</ele>
        <time>2011-09-04T14:48:22Z</time>
      </trkpt>
      <trkpt lat="43.86083" lon="7.32294">
        <ele>696.445961</ele>
        <time>2011-09-04T14:48:24Z</time>
      </trkpt>
      <trkpt lat="43.86078" lon="7.3228">
        <ele>695.445927</ele>
        <time>2011-09-04T14:48:26Z</time>
      </trkpt>
      <trkpt lat="43.86074" lon="7.32268">
        <ele>695.445892</ele>
        <time>2011-09-04T14:48:28Z</time>
      </trkpt>
      <trkpt lat="43.86068" lon="7.32252">
        <ele>694.445854</ele>
        <time>2011-09-04T14:48:31Z</time>
      </trkpt>
      <trkpt lat="43.86064" lon="7.32239">
        <ele>693.44582</ele>
        <time>2011-09-04T14:48:33Z</time>
      </trkpt>
      <trkpt lat="43.86051" lon="7.32199">
        <ele>690.445721</ele>
        <time>2011-09-04T14:48:44Z</time>
      </trkpt>
      <trkpt lat="43.86049" lon="7.32186">
        <ele>688.44569</ele>
        <time>2011-09-04T14:48:46Z</time>
      </trkpt>
      <trkpt lat="43.86048" lon="7.32173">
        <ele>686.44566</ele>
        <time>2011-09-04T14:48:48Z</time>
      </trkpt>
      <trkpt lat="43.86045" lon="7.32155">
        <ele>685.445618</ele>
        <time>2011-09-04T14:48:50Z</time>
      </trkpt>
      <trkpt lat="43.86043" lon="7.3214">
        <ele>683.445587</ele>
        <time>2011-09-04T14:48:52Z</time>
      </trkpt>
      <trkpt lat="43.86042" lon="7.32125">
        <ele>683.445553</ele>
        <time>2011-09-04T14:48:54Z</time>
      </trkpt>
      <trkpt lat="43.86041" lon="7.32112">
        <ele>682.445526</ele>
        <time>2011-09-04T14:48:56Z</time>
      </trkpt>
      <trkpt lat="43.86041" lon="7.32103">
        <ele>682.445507</ele>
        <time>2011-09-04T14:48:58Z</time>
      </trkpt>
      <trkpt lat="43.8604" lon="7.3209">
        <ele>680.44548</ele>
        <time>2011-09-04T14:49:01Z</time>
      </trkpt>
      <trkpt lat="43.8604" lon="7.32086">
        <ele>679.445473</ele>
        <time>2011-09-04T14:49:02Z</time>
      </trkpt>
      <trkpt lat="43.86027" lon="7.32051">
        <ele>674.445381</ele>
        <time>2011-09-04T14:49:22Z</time>
      </trkpt>
      <trkpt lat="43.86017" lon="7.32047">
        <ele>673.445358</ele>
        <time>2011-09-04T14:49:27Z</time>
      </trkpt>
      <trkpt lat="43.85993" lon="7.32066">
        <ele>668.445366</ele>
        <time>2011-09-04T14:49:42Z</time>
      </trkpt>
      <trkpt lat="43.85993" lon="7.32066">
        <ele>668.445366</ele>
        <time>2011-09-04T14:49:45Z</time>
      </trkpt>
      <trkpt lat="43.85986" lon="7.32077">
        <ele>668.445381</ele>
        <time>2011-09-04T14:49:53Z</time>
      </trkpt>
      <trkpt lat="43.85977" lon="7.32086">
        <ele>667.445389</ele>
        <time>2011-09-04T14:49:58Z</time>
      </trkpt>
      <trkpt lat="43.85968" lon="7.32092">
        <ele>668.445389</ele>
        <time>2011-09-04T14:50:02Z</time>
      </trkpt>
      <trkpt lat="43.85968" lon="7.32092">
        <ele>668.445389</ele>
        <time>2011-09-04T14:50:03Z</time>
      </trkpt>
      <trkpt lat="43.85941" lon="7.32111">
        <ele>661.445389</ele>
        <time>2011-09-04T14:50:36Z</time>
      </trkpt>
      <trkpt lat="43.85913" lon="7.32124">
        <ele>655.445381</ele>
        <time>2011-09-04T14:51:14Z</time>
      </trkpt>
      <trkpt lat="43.859" lon="7.32133">
        <ele>648.445381</ele>
        <time>2011-09-04T14:51:22Z</time>
      </trkpt>
      <trkpt lat="43.85892" lon="7.3214">
        <ele>642.445381</ele>
        <time>2011-09-04T14:51:33Z</time>
      </trkpt>
      <trkpt lat="43.85866" lon="7.32154">
        <ele>638.445377</ele>
        <time>2011-09-04T14:51:53Z</time>
      </trkpt>
      <trkpt lat="43.85852" lon="7.32156">
        <ele>635.445366</ele>
        <time>2011-09-04T14:52:06Z</time>
      </trkpt>
      <trkpt lat="43.85849" lon="7.32157">
        <ele>635.445362</ele>
        <time>2011-09-04T14:52:08Z</time>
      </trkpt>
      <trkpt lat="43.85842" lon="7.3217">
        <ele>630.445381</ele>
        <time>2011-09-04T14:52:29Z</time>
      </trkpt>
      <trkpt lat="43.85827" lon="7.32172">
        <ele>620.445362</ele>
        <time>2011-09-04T14:53:01Z</time>
      </trkpt>
      <trkpt lat="43.85816" lon="7.32173">
        <ele>619.445354</ele>
        <time>2011-09-04T14:53:11Z</time>
      </trkpt>
      <trkpt lat="43.858" lon="7.32164">
        <ele>616.445312</ele>
        <time>2011-09-04T14:55:34Z</time>
      </trkpt>
      <trkpt lat="43.85798" lon="7.32165">
        <ele>617.445312</ele>
        <time>2011-09-04T14:55:41Z</time>
      </trkpt>
      <trkpt lat="43.85788" lon="7.32172">
        <ele>620.445312</ele>
        <time>2011-09-04T14:55:46Z</time>
      </trkpt>
      <trkpt lat="43.85779" lon="7.32178">
        <ele>621.445312</ele>
        <time>2011-09-04T14:55:49Z</time>
      </trkpt>
      <trkpt lat="43.8577" lon="7.32184">
        <ele>621.445312</ele>
        <time>2011-09-04T14:55:52Z</time>
      </trkpt>
      <trkpt lat="43.85759" lon="7.3219">
        <ele>621.445312</ele>
        <time>2011-09-04T14:55:56Z</time>
      </trkpt>
      <trkpt lat="43.85753" lon="7.32191">
        <ele>621.445305</ele>
        <time>2011-09-04T14:55:58Z</time>
      </trkpt>
      <trkpt lat="43.8574" lon="7.32189">
        <ele>621.445282</ele>
        <time>2011-09-04T14:56:07Z</time>
      </trkpt>
      <trkpt lat="43.85731" lon="7.3219">
        <ele>621.445271</ele>
        <time>2011-09-04T14:56:16Z</time>
      </trkpt>
      <trkpt lat="43.85729" lon="7.32189">
        <ele>620.445267</ele>
        <time>2011-09-04T14:56:21Z</time>
      </trkpt>
      <trkpt lat="43.85711" lon="7.322">
        <ele>616.445267</ele>
        <time>2011-09-04T14:56:54Z</time>
      </trkpt>
      <trkpt lat="43.85702" lon="7.32203">
        <ele>616.445259</ele>
        <time>2011-09-04T14:56:58Z</time>
      </trkpt>
      <trkpt lat="43.85689" lon="7.32207">
        <ele>615.445251</ele>
        <time>2011-09-04T14:57:07Z</time>
      </trkpt>
      <trkpt lat="43.8568" lon="7.32212">
        <ele>615.445251</ele>
        <time>2011-09-04T14:57:19Z</time>
      </trkpt>
      <trkpt lat="43.85667" lon="7.32228">
        <ele>612.445271</ele>
        <time>2011-09-04T14:57:30Z</time>
      </trkpt>
      <trkpt lat="43.85662" lon="7.3224">
        <ele>612.445286</ele>
        <time>2011-09-04T14:57:34Z</time>
      </trkpt>
      <trkpt lat="43.85657" lon="7.32254">
        <ele>611.445305</ele>
        <time>2011-09-04T14:57:36Z</time>
      </trkpt>
      <trkpt lat="43.85648" lon="7.32262">
        <ele>610.445312</ele>
        <time>2011-09-04T14:57:40Z</time>
      </trkpt>
      <trkpt lat="43.85632" lon="7.32231">
        <ele>609.445225</ele>
        <time>2011-09-04T14:57:56Z</time>
      </trkpt>
      <trkpt lat="43.8561" lon="7.32209">
        <ele>611.445152</ele>
        <time>2011-09-04T14:58:04Z</time>
      </trkpt>
      <trkpt lat="43.856" lon="7.32215">
        <ele>610.445145</ele>
        <time>2011-09-04T14:58:09Z</time>
      </trkpt>
      <trkpt lat="43.8559" lon="7.32224">
        <ele>611.445152</ele>
        <time>2011-09-04T14:58:12Z</time>
      </trkpt>
      <trkpt lat="43.85582" lon="7.32233">
        <ele>610.44516</ele>
        <time>2011-09-04T14:58:15Z</time>
      </trkpt>
      <trkpt lat="43.85575" lon="7.32243">
        <ele>609.445175</ele>
        <time>2011-09-04T14:58:18Z</time>
      </trkpt>
      <trkpt lat="43.85567" lon="7.32254">
        <ele>609.445187</ele>
        <time>2011-09-04T14:58:21Z</time>
      </trkpt>
      <trkpt lat="43.85556" lon="7.32257">
        <ele>609.445175</ele>
        <time>2011-09-04T14:58:24Z</time>
      </trkpt>
      <trkpt lat="43.85546" lon="7.32258">
        <ele>611.445164</ele>
        <time>2011-09-04T14:58:27Z</time>
      </trkpt>
      <trkpt lat="43.85518" lon="7.32271">
        <ele>601.445156</ele>
        <time>2011-09-04T14:59:06Z</time>
      </trkpt>
      <trkpt lat="43.85503" lon="7.32281">
        <ele>597.445156</ele>
        <time>2011-09-04T14:59:13Z</time>
      </trkpt>
      <trkpt lat="43.85491" lon="7.32293">
        <ele>596.445164</ele>
        <time>2011-09-04T14:59:18Z</time>
      </trkpt>
      <trkpt lat="43.85483" lon="7.32301">
        <ele>596.445175</ele>
        <time>2011-09-04T14:59:20Z</time>
      </trkpt>
      <trkpt lat="43.85479" lon="7.32307">
        <ele>596.445175</ele>
        <time>2011-09-04T14:59:21Z</time>
      </trkpt>
      <trkpt lat="43.85472" lon="7.32322">
        <ele>596.445198</ele>
        <time>2011-09-04T14:59:23Z</time>
      </trkpt>
      <trkpt lat="43.85467" lon="7.32339">
        <ele>596.445229</ele>
        <time>2011-09-04T14:59:25Z</time>
      </trkpt>
      <trkpt lat="43.85465" lon="7.32354">
        <ele>597.445255</ele>
        <time>2011-09-04T14:59:27Z</time>
      </trkpt>
      <trkpt lat="43.85463" lon="7.32366">
        <ele>598.445282</ele>
        <time>2011-09-04T14:59:29Z</time>
      </trkpt>
      <trkpt lat="43.85459" lon="7.32384">
        <ele>598.445312</ele>
        <time>2011-09-04T14:59:32Z</time>
      </trkpt>
      <trkpt lat="43.85455" lon="7.324">
        <ele>599.445335</ele>
        <time>2011-09-04T14:59:35Z</time>
      </trkpt>
      <trkpt lat="43.85453" lon="7.32405">
        <ele>599.445347</ele>
        <time>2011-09-04T14:59:36Z</time>
      </trkpt>
      <trkpt lat="43.85446" lon="7.32419">
        <ele>598.44537</ele>
        <time>2011-09-04T14:59:39Z</time>
      </trkpt>
      <trkpt lat="43.8544" lon="7.32432">
        <ele>598.445381</ele>
        <time>2011-09-04T14:59:42Z</time>
      </trkpt>
      <trkpt lat="43.85432" lon="7.32445">
        <ele>599.445404</ele>
        <time>2011-09-04T14:59:45Z</time>
      </trkpt>
      <trkpt lat="43.85425" lon="7.32458">
        <ele>598.445419</ele>
        <time>2011-09-04T14:59:48Z</time>
      </trkpt>
      <trkpt lat="43.85416" lon="7.3247">
        <ele>598.445435</ele>
        <time>2011-09-04T14:59:51Z</time>
      </trkpt>
      <trkpt lat="43.85405" lon="7.32478">
        <ele>598.445435</ele>
        <time>2011-09-04T14:59:54Z</time>
      </trkpt>
      <trkpt lat="43.85394" lon="7.32482">
        <ele>599.445431</ele>
        <time>2011-09-04T14:59:57Z</time>
      </trkpt>
      <trkpt lat="43.8539" lon="7.32483">
        <ele>599.445423</ele>
        <time>2011-09-04T15:00:00Z</time>
      </trkpt>
      <trkpt lat="43.85381" lon="7.32497">
        <ele>597.445435</ele>
        <time>2011-09-04T15:00:15Z</time>
      </trkpt>
      <trkpt lat="43.85377" lon="7.32499">
        <ele>597.445442</ele>
        <time>2011-09-04T15:00:17Z</time>
      </trkpt>
      <trkpt lat="43.8537" lon="7.32508">
        <ele>595.44545</ele>
        <time>2011-09-04T15:00:22Z</time>
      </trkpt>
      <trkpt lat="43.85369" lon="7.3251">
        <ele>594.44545</ele>
        <time>2011-09-04T15:00:23Z</time>
      </trkpt>
      <trkpt lat="43.85362" lon="7.32523">
        <ele>594.445473</ele>
        <time>2011-09-04T15:00:27Z</time>
      </trkpt>
      <trkpt lat="43.85355" lon="7.32538">
        <ele>594.445488</ele>
        <time>2011-09-04T15:00:30Z</time>
      </trkpt>
      <trkpt lat="43.85349" lon="7.32547">
        <ele>594.445503</ele>
        <time>2011-09-04T15:00:32Z</time>
      </trkpt>
      <trkpt lat="43.85342" lon="7.3256">
        <ele>594.445522</ele>
        <time>2011-09-04T15:00:35Z</time>
      </trkpt>
      <trkpt lat="43.85338" lon="7.32575">
        <ele>594.445545</ele>
        <time>2011-09-04T15:00:38Z</time>
      </trkpt>
      <trkpt lat="43.85336" lon="7.32581">
        <ele>594.445557</ele>
        <time>2011-09-04T15:00:39Z</time>
      </trkpt>
      <trkpt lat="43.85335" lon="7.32612">
        <ele>594.445621</ele>
        <time>2011-09-04T15:00:42Z</time>
      </trkpt>
      <trkpt lat="43.85338" lon="7.32633">
        <ele>594.445667</ele>
        <time>2011-09-04T15:00:44Z</time>
      </trkpt>
      <trkpt lat="43.85342" lon="7.32654">
        <ele>594.445717</ele>
        <time>2011-09-04T15:00:46Z</time>
      </trkpt>
      <trkpt lat="43.85346" lon="7.3267">
        <ele>594.445755</ele>
        <time>2011-09-04T15:00:48Z</time>
      </trkpt>
      <trkpt lat="43.85348" lon="7.32677">
        <ele>593.44577</ele>
        <time>2011-09-04T15:00:49Z</time>
      </trkpt>
      <trkpt lat="43.85351" lon="7.32695">
        <ele>593.445808</ele>
        <time>2011-09-04T15:00:52Z</time>
      </trkpt>
      <trkpt lat="43.8535" lon="7.32705">
        <ele>594.445827</ele>
        <time>2011-09-04T15:00:59Z</time>
      </trkpt>
      <trkpt lat="43.85357" lon="7.32713">
        <ele>597.445858</ele>
        <time>2011-09-04T15:01:22Z</time>
      </trkpt>
      <trkpt lat="43.85361" lon="7.32727">
        <ele>577.445892</ele>
        <time>2011-09-04T15:04:06Z</time>
      </trkpt>
      <trkpt lat="43.85363" lon="7.32744">
        <ele>577.445927</ele>
        <time>2011-09-04T15:04:10Z</time>
      </trkpt>
      <trkpt lat="43.85364" lon="7.32755">
        <ele>578.445953</ele>
        <time>2011-09-04T15:04:12Z</time>
      </trkpt>
      <trkpt lat="43.85365" lon="7.32771">
        <ele>577.445992</ele>
        <time>2011-09-04T15:04:15Z</time>
      </trkpt>
      <trkpt lat="43.85365" lon="7.32784">
        <ele>577.446014</ele>
        <time>2011-09-04T15:04:18Z</time>
      </trkpt>
      <trkpt lat="43.85363" lon="7.32788">
        <ele>577.446022</ele>
        <time>2011-09-04T15:04:19Z</time>
      </trkpt>
      <trkpt lat="43.85359" lon="7.32801">
        <ele>579.446045</ele>
        <time>2011-09-04T15:04:22Z</time>
      </trkpt>
      <trkpt lat="43.85355" lon="7.32817">
        <ele>579.446068</ele>
        <time>2011-09-04T15:04:25Z</time>
      </trkpt>
      <trkpt lat="43.85351" lon="7.3283">
        <ele>579.446091</ele>
        <time>2011-09-04T15:04:28Z</time>
      </trkpt>
      <trkpt lat="43.85362" lon="7.32802">
        <ele>551.446045</ele>
        <time>2011-09-04T15:06:40Z</time>
      </trkpt>
      <trkpt lat="43.85374" lon="7.3277">
        <ele>550.445995</ele>
        <time>2011-09-04T15:06:46Z</time>
      </trkpt>
      <trkpt lat="43.85378" lon="7.32758">
        <ele>551.445976</ele>
        <time>2011-09-04T15:06:48Z</time>
      </trkpt>
      <trkpt lat="43.85383" lon="7.32742">
        <ele>550.445953</ele>
        <time>2011-09-04T15:06:51Z</time>
      </trkpt>
      <trkpt lat="43.85387" lon="7.32731">
        <ele>551.445934</ele>
        <time>2011-09-04T15:06:54Z</time>
      </trkpt>
      <trkpt lat="43.85376" lon="7.32704">
        <ele>553.445862</ele>
        <time>2011-09-04T15:07:06Z</time>
      </trkpt>
      <trkpt lat="43.8537" lon="7.32692">
        <ele>553.445831</ele>
        <time>2011-09-04T15:07:10Z</time>
      </trkpt>
      <trkpt lat="43.85367" lon="7.32685">
        <ele>553.445812</ele>
        <time>2011-09-04T15:07:12Z</time>
      </trkpt>
      <trkpt lat="43.85359" lon="7.32671">
        <ele>554.445774</ele>
        <time>2011-09-04T15:07:15Z</time>
      </trkpt>
      <trkpt lat="43.8535" lon="7.32659">
        <ele>554.445732</ele>
        <time>2011-09-04T15:07:18Z</time>
      </trkpt>
      <trkpt lat="43.85347" lon="7.32655">
        <ele>553.445721</ele>
        <time>2011-09-04T15:07:19Z</time>
      </trkpt>
      <trkpt lat="43.85339" lon="7.32641">
        <ele>553.445686</ele>
        <time>2011-09-04T15:07:22Z</time>
      </trkpt>
      <trkpt lat="43.8533" lon="7.32631">
        <ele>554.445648</ele>
        <time>2011-09-04T15:07:24Z</time>
      </trkpt>
      <trkpt lat="43.85321" lon="7.32621">
        <ele>554.445618</ele>
        <time>2011-09-04T15:07:26Z</time>
      </trkpt>
      <trkpt lat="43.85308" lon="7.32608">
        <ele>554.445576</ele>
        <time>2011-09-04T15:07:28Z</time>
      </trkpt>
      <trkpt lat="43.85294" lon="7.32596">
        <ele>554.44553</ele>
        <time>2011-09-04T15:07:30Z</time>
      </trkpt>
      <trkpt lat="43.85286" lon="7.32591">
        <ele>553.445511</ele>
        <time>2011-09-04T15:07:31Z</time>
      </trkpt>
      <trkpt lat="43.85271" lon="7.32582">
        <ele>553.445469</ele>
        <time>2011-09-04T15:07:33Z</time>
      </trkpt>
      <trkpt lat="43.85259" lon="7.32573">
        <ele>552.445435</ele>
        <time>2011-09-04T15:07:35Z</time>
      </trkpt>
      <trkpt lat="43.85248" lon="7.32563">
        <ele>552.4454</ele>
        <time>2011-09-04T15:07:37Z</time>
      </trkpt>
      <trkpt lat="43.85238" lon="7.32554">
        <ele>551.445366</ele>
        <time>2011-09-04T15:07:39Z</time>
      </trkpt>
      <trkpt lat="43.85237" lon="7.32539">
        <ele>551.445335</ele>
        <time>2011-09-04T15:07:40Z</time>
      </trkpt>
      <trkpt lat="43.85231" lon="7.32519">
        <ele>550.445286</ele>
        <time>2011-09-04T15:07:42Z</time>
      </trkpt>
      <trkpt lat="43.85226" lon="7.32499">
        <ele>550.44524</ele>
        <time>2011-09-04T15:07:44Z</time>
      </trkpt>
      <trkpt lat="43.85222" lon="7.32481">
        <ele>549.445194</ele>
        <time>2011-09-04T15:07:46Z</time>
      </trkpt>
      <trkpt lat="43.85219" lon="7.32465">
        <ele>550.44516</ele>
        <time>2011-09-04T15:07:48Z</time>
      </trkpt>
      <trkpt lat="43.85214" lon="7.32454">
        <ele>551.445129</ele>
        <time>2011-09-04T15:07:50Z</time>
      </trkpt>
      <trkpt lat="43.85208" lon="7.32438">
        <ele>552.445087</ele>
        <time>2011-09-04T15:07:53Z</time>
      </trkpt>
      <trkpt lat="43.85198" lon="7.32425">
        <ele>552.445045</ele>
        <time>2011-09-04T15:07:56Z</time>
      </trkpt>
      <trkpt lat="43.85187" lon="7.32422">
        <ele>552.445026</ele>
        <time>2011-09-04T15:08:00Z</time>
      </trkpt>
      <trkpt lat="43.85175" lon="7.32423">
        <ele>552.445015</ele>
        <time>2011-09-04T15:08:03Z</time>
      </trkpt>
      <trkpt lat="43.85164" lon="7.32427">
        <ele>552.445007</ele>
        <time>2011-09-04T15:08:06Z</time>
      </trkpt>
      <trkpt lat="43.85154" lon="7.32437">
        <ele>553.445011</ele>
        <time>2011-09-04T15:08:09Z</time>
      </trkpt>
      <trkpt lat="43.85149" lon="7.32447">
        <ele>553.44503</ele>
        <time>2011-09-04T15:08:10Z</time>
      </trkpt>
      <trkpt lat="43.85145" lon="7.32455">
        <ele>553.445034</ele>
        <time>2011-09-04T15:08:11Z</time>
      </trkpt>
      <trkpt lat="43.85138" lon="7.3247">
        <ele>554.445057</ele>
        <time>2011-09-04T15:08:13Z</time>
      </trkpt>
      <trkpt lat="43.85132" lon="7.32484">
        <ele>554.445084</ele>
        <time>2011-09-04T15:08:15Z</time>
      </trkpt>
      <trkpt lat="43.85127" lon="7.32499">
        <ele>555.445103</ele>
        <time>2011-09-04T15:08:17Z</time>
      </trkpt>
      <trkpt lat="43.85122" lon="7.32512">
        <ele>554.445122</ele>
        <time>2011-09-04T15:08:19Z</time>
      </trkpt>
      <trkpt lat="43.85115" lon="7.32524">
        <ele>554.445137</ele>
        <time>2011-09-04T15:08:21Z</time>
      </trkpt>
      <trkpt lat="43.85109" lon="7.32535">
        <ele>554.445156</ele>
        <time>2011-09-04T15:08:23Z</time>
      </trkpt>
      <trkpt lat="43.85105" lon="7.32546">
        <ele>554.445171</ele>
        <time>2011-09-04T15:08:25Z</time>
      </trkpt>
      <trkpt lat="43.85103" lon="7.32561">
        <ele>555.445198</ele>
        <time>2011-09-04T15:08:28Z</time>
      </trkpt>
      <trkpt lat="43.85102" lon="7.32574">
        <ele>555.445229</ele>
        <time>2011-09-04T15:08:32Z</time>
      </trkpt>
      <trkpt lat="43.85101" lon="7.3259">
        <ele>554.445259</ele>
        <time>2011-09-04T15:08:37Z</time>
      </trkpt>
      <trkpt lat="43.85103" lon="7.32594">
        <ele>554.445267</ele>
        <time>2011-09-04T15:08:39Z</time>
      </trkpt>
      <trkpt lat="43.85111" lon="7.32631">
        <ele>552.445358</ele>
        <time>2011-09-04T15:08:46Z</time>
      </trkpt>
      <trkpt lat="43.85114" lon="7.32645">
        <ele>551.445393</ele>
        <time>2011-09-04T15:08:48Z</time>
      </trkpt>
      <trkpt lat="43.85121" lon="7.32661">
        <ele>550.445435</ele>
        <time>2011-09-04T15:08:50Z</time>
      </trkpt>
      <trkpt lat="43.85126" lon="7.32676">
        <ele>548.445469</ele>
        <time>2011-09-04T15:08:52Z</time>
      </trkpt>
      <trkpt lat="43.85132" lon="7.32692">
        <ele>546.445511</ele>
        <time>2011-09-04T15:08:54Z</time>
      </trkpt>
      <trkpt lat="43.85137" lon="7.32708">
        <ele>544.445553</ele>
        <time>2011-09-04T15:08:56Z</time>
      </trkpt>
      <trkpt lat="43.85143" lon="7.32726">
        <ele>543.445599</ele>
        <time>2011-09-04T15:08:58Z</time>
      </trkpt>
      <trkpt lat="43.85148" lon="7.32746">
        <ele>542.445648</ele>
        <time>2011-09-04T15:09:00Z</time>
      </trkpt>
      <trkpt lat="43.85151" lon="7.32764">
        <ele>540.445686</ele>
        <time>2011-09-04T15:09:02Z</time>
      </trkpt>
      <trkpt lat="43.85154" lon="7.32781">
        <ele>539.445732</ele>
        <time>2011-09-04T15:09:04Z</time>
      </trkpt>
      <trkpt lat="43.85156" lon="7.32798">
        <ele>538.445763</ele>
        <time>2011-09-04T15:09:06Z</time>
      </trkpt>
      <trkpt lat="43.85157" lon="7.32813">
        <ele>537.445793</ele>
        <time>2011-09-04T15:09:08Z</time>
      </trkpt>
      <trkpt lat="43.8516" lon="7.32829">
        <ele>536.445839</ele>
        <time>2011-09-04T15:09:10Z</time>
      </trkpt>
      <trkpt lat="43.85164" lon="7.32844">
        <ele>535.445869</ele>
        <time>2011-09-04T15:09:12Z</time>
      </trkpt>
      <trkpt lat="43.85158" lon="7.32856">
        <ele>535.445885</ele>
        <time>2011-09-04T15:09:14Z</time>
      </trkpt>
      <trkpt lat="43.85149" lon="7.32863">
        <ele>533.445892</ele>
        <time>2011-09-04T15:09:16Z</time>
      </trkpt>
      <trkpt lat="43.85144" lon="7.32866">
        <ele>532.445892</ele>
        <time>2011-09-04T15:09:17Z</time>
      </trkpt>
      <trkpt lat="43.85133" lon="7.32871">
        <ele>531.445885</ele>
        <time>2011-09-04T15:09:19Z</time>
      </trkpt>
      <trkpt lat="43.85123" lon="7.32877">
        <ele>531.445885</ele>
        <time>2011-09-04T15:09:21Z</time>
      </trkpt>
      <trkpt lat="43.85113" lon="7.32884">
        <ele>531.445885</ele>
        <time>2011-09-04T15:09:23Z</time>
      </trkpt>
      <trkpt lat="43.85101" lon="7.3289">
        <ele>533.445885</ele>
        <time>2011-09-04T15:09:25Z</time>
      </trkpt>
      <trkpt lat="43.85091" lon="7.32893">
        <ele>536.445877</ele>
        <time>2011-09-04T15:09:27Z</time>
      </trkpt>
      <trkpt lat="43.85081" lon="7.32892">
        <ele>538.445862</ele>
        <time>2011-09-04T15:09:30Z</time>
      </trkpt>
      <trkpt lat="43.85073" lon="7.32872">
        <ele>538.445808</ele>
        <time>2011-09-04T15:09:34Z</time>
      </trkpt>
      <trkpt lat="43.85067" lon="7.32859">
        <ele>538.44577</ele>
        <time>2011-09-04T15:09:36Z</time>
      </trkpt>
      <trkpt lat="43.85061" lon="7.32848">
        <ele>539.44574</ele>
        <time>2011-09-04T15:09:39Z</time>
      </trkpt>
      <trkpt lat="43.85044" lon="7.32859">
        <ele>539.44574</ele>
        <time>2011-09-04T15:09:45Z</time>
      </trkpt>
      <trkpt lat="43.85035" lon="7.32871">
        <ele>540.445755</ele>
        <time>2011-09-04T15:09:48Z</time>
      </trkpt>
      <trkpt lat="43.85028" lon="7.32881">
        <ele>541.445763</ele>
        <time>2011-09-04T15:09:50Z</time>
      </trkpt>
      <trkpt lat="43.8502" lon="7.3289">
        <ele>541.44577</ele>
        <time>2011-09-04T15:09:52Z</time>
      </trkpt>
      <trkpt lat="43.85012" lon="7.32899">
        <ele>541.445778</ele>
        <time>2011-09-04T15:09:54Z</time>
      </trkpt>
      <trkpt lat="43.85" lon="7.32909">
        <ele>541.445786</ele>
        <time>2011-09-04T15:09:56Z</time>
      </trkpt>
      <trkpt lat="43.84986" lon="7.32922">
        <ele>541.445793</ele>
        <time>2011-09-04T15:09:58Z</time>
      </trkpt>
      <trkpt lat="43.8497" lon="7.32933">
        <ele>540.445801</ele>
        <time>2011-09-04T15:10:00Z</time>
      </trkpt>
      <trkpt lat="43.84962" lon="7.32942">
        <ele>540.445801</ele>
        <time>2011-09-04T15:10:01Z</time>
      </trkpt>
      <trkpt lat="43.84953" lon="7.3295">
        <ele>539.445808</ele>
        <time>2011-09-04T15:10:02Z</time>
      </trkpt>
      <trkpt lat="43.84944" lon="7.32957">
        <ele>539.445808</ele>
        <time>2011-09-04T15:10:03Z</time>
      </trkpt>
      <trkpt lat="43.84936" lon="7.32964">
        <ele>539.445816</ele>
        <time>2011-09-04T15:10:04Z</time>
      </trkpt>
      <trkpt lat="43.84927" lon="7.3297">
        <ele>539.445812</ele>
        <time>2011-09-04T15:10:05Z</time>
      </trkpt>
      <trkpt lat="43.84919" lon="7.32978">
        <ele>539.445824</ele>
        <time>2011-09-04T15:10:06Z</time>
      </trkpt>
      <trkpt lat="43.8491" lon="7.32987">
        <ele>539.445827</ele>
        <time>2011-09-04T15:10:07Z</time>
      </trkpt>
      <trkpt lat="43.84902" lon="7.32996">
        <ele>539.445839</ele>
        <time>2011-09-04T15:10:08Z</time>
      </trkpt>
      <trkpt lat="43.84894" lon="7.33006">
        <ele>538.445847</ele>
        <time>2011-09-04T15:10:09Z</time>
      </trkpt>
      <trkpt lat="43.84877" lon="7.33024">
        <ele>538.445862</ele>
        <time>2011-09-04T15:10:11Z</time>
      </trkpt>
      <trkpt lat="43.84859" lon="7.33041">
        <ele>537.445873</ele>
        <time>2011-09-04T15:10:13Z</time>
      </trkpt>
      <trkpt lat="43.8483" lon="7.33068">
        <ele>535.445892</ele>
        <time>2011-09-04T15:10:17Z</time>
      </trkpt>
      <trkpt lat="43.84815" lon="7.33071">
        <ele>534.445873</ele>
        <time>2011-09-04T15:10:19Z</time>
      </trkpt>
      <trkpt lat="43.84805" lon="7.33071">
        <ele>533.445862</ele>
        <time>2011-09-04T15:10:21Z</time>
      </trkpt>
      <trkpt lat="43.84796" lon="7.33068">
        <ele>533.445847</ele>
        <time>2011-09-04T15:10:23Z</time>
      </trkpt>
      <trkpt lat="43.84788" lon="7.33058">
        <ele>531.445812</ele>
        <time>2011-09-04T15:10:26Z</time>
      </trkpt>
      <trkpt lat="43.84782" lon="7.33048">
        <ele>530.445786</ele>
        <time>2011-09-04T15:10:28Z</time>
      </trkpt>
      <trkpt lat="43.84775" lon="7.33038">
        <ele>529.445755</ele>
        <time>2011-09-04T15:10:30Z</time>
      </trkpt>
      <trkpt lat="43.84767" lon="7.33022">
        <ele>528.445709</ele>
        <time>2011-09-04T15:10:32Z</time>
      </trkpt>
      <trkpt lat="43.84758" lon="7.33006">
        <ele>527.445663</ele>
        <time>2011-09-04T15:10:34Z</time>
      </trkpt>
      <trkpt lat="43.84751" lon="7.32991">
        <ele>527.445621</ele>
        <time>2011-09-04T15:10:36Z</time>
      </trkpt>
      <trkpt lat="43.84744" lon="7.32975">
        <ele>526.445583</ele>
        <time>2011-09-04T15:10:38Z</time>
      </trkpt>
      <trkpt lat="43.84738" lon="7.32959">
        <ele>525.445541</ele>
        <time>2011-09-04T15:10:40Z</time>
      </trkpt>
      <trkpt lat="43.84732" lon="7.32945">
        <ele>525.445503</ele>
        <time>2011-09-04T15:10:42Z</time>
      </trkpt>
      <trkpt lat="43.84725" lon="7.32937">
        <ele>525.445477</ele>
        <time>2011-09-04T15:10:45Z</time>
      </trkpt>
      <trkpt lat="43.84714" lon="7.32943">
        <ele>526.445473</ele>
        <time>2011-09-04T15:10:48Z</time>
      </trkpt>
      <trkpt lat="43.84704" lon="7.32949">
        <ele>526.445477</ele>
        <time>2011-09-04T15:10:52Z</time>
      </trkpt>
      <trkpt lat="43.84694" lon="7.32954">
        <ele>525.445469</ele>
        <time>2011-09-04T15:10:57Z</time>
      </trkpt>
      <trkpt lat="43.84707" lon="7.32959">
        <ele>504.445496</ele>
        <time>2011-09-04T15:11:59Z</time>
      </trkpt>
      <trkpt lat="43.84713" lon="7.32969">
        <ele>486.445526</ele>
        <time>2011-09-04T15:12:27Z</time>
      </trkpt>
      <trkpt lat="43.84718" lon="7.32987">
        <ele>475.445572</ele>
        <time>2011-09-04T15:13:00Z</time>
      </trkpt>
      <trkpt lat="43.84722" lon="7.32999">
        <ele>475.445602</ele>
        <time>2011-09-04T15:13:03Z</time>
      </trkpt>
      <trkpt lat="43.84723" lon="7.33003">
        <ele>475.445614</ele>
        <time>2011-09-04T15:13:04Z</time>
      </trkpt>
      <trkpt lat="43.84724" lon="7.33018">
        <ele>474.445641</ele>
        <time>2011-09-04T15:13:08Z</time>
      </trkpt>
      <trkpt lat="43.84723" lon="7.33034">
        <ele>474.445679</ele>
        <time>2011-09-04T15:13:12Z</time>
      </trkpt>
      <trkpt lat="43.84725" lon="7.33049">
        <ele>474.445709</ele>
        <time>2011-09-04T15:13:15Z</time>
      </trkpt>
      <trkpt lat="43.84725" lon="7.33062">
        <ele>473.44574</ele>
        <time>2011-09-04T15:13:18Z</time>
      </trkpt>
      <trkpt lat="43.84726" lon="7.33072">
        <ele>473.445763</ele>
        <time>2011-09-04T15:13:20Z</time>
      </trkpt>
      <trkpt lat="43.84728" lon="7.33087">
        <ele>472.445786</ele>
        <time>2011-09-04T15:13:23Z</time>
      </trkpt>
      <trkpt lat="43.84729" lon="7.331">
        <ele>472.445816</ele>
        <time>2011-09-04T15:13:26Z</time>
      </trkpt>
      <trkpt lat="43.84729" lon="7.33115">
        <ele>472.44585</ele>
        <time>2011-09-04T15:13:31Z</time>
      </trkpt>
      <trkpt lat="43.84731" lon="7.33128">
        <ele>472.445881</ele>
        <time>2011-09-04T15:13:34Z</time>
      </trkpt>
      <trkpt lat="43.84736" lon="7.3315">
        <ele>471.44593</ele>
        <time>2011-09-04T15:13:42Z</time>
      </trkpt>
      <trkpt lat="43.84741" lon="7.33166">
        <ele>470.445969</ele>
        <time>2011-09-04T15:13:46Z</time>
      </trkpt>
      <trkpt lat="43.84744" lon="7.33181">
        <ele>470.446011</ele>
        <time>2011-09-04T15:13:49Z</time>
      </trkpt>
      <trkpt lat="43.84747" lon="7.33196">
        <ele>469.446045</ele>
        <time>2011-09-04T15:13:52Z</time>
      </trkpt>
      <trkpt lat="43.84747" lon="7.33212">
        <ele>467.446075</ele>
        <time>2011-09-04T15:13:55Z</time>
      </trkpt>
      <trkpt lat="43.84751" lon="7.33226">
        <ele>466.446114</ele>
        <time>2011-09-04T15:13:58Z</time>
      </trkpt>
      <trkpt lat="43.84755" lon="7.33242">
        <ele>466.446152</ele>
        <time>2011-09-04T15:14:01Z</time>
      </trkpt>
      <trkpt lat="43.84759" lon="7.33258">
        <ele>465.44619</ele>
        <time>2011-09-04T15:14:04Z</time>
      </trkpt>
      <trkpt lat="43.8476" lon="7.33273">
        <ele>464.44622</ele>
        <time>2011-09-04T15:14:07Z</time>
      </trkpt>
      <trkpt lat="43.84764" lon="7.33295">
        <ele>462.446274</ele>
        <time>2011-09-04T15:14:13Z</time>
      </trkpt>
      <trkpt lat="43.84765" lon="7.33312">
        <ele>461.446312</ele>
        <time>2011-09-04T15:14:17Z</time>
      </trkpt>
      <trkpt lat="43.84766" lon="7.33326">
        <ele>460.446339</ele>
        <time>2011-09-04T15:14:21Z</time>
      </trkpt>
      <trkpt lat="43.84767" lon="7.33333">
        <ele>459.446358</ele>
        <time>2011-09-04T15:14:23Z</time>
      </trkpt>
      <trkpt lat="43.84768" lon="7.33348">
        <ele>457.446388</ele>
        <time>2011-09-04T15:14:27Z</time>
      </trkpt>
      <trkpt lat="43.84766" lon="7.33387">
        <ele>452.446465</ele>
        <time>2011-09-04T15:14:46Z</time>
      </trkpt>
      <trkpt lat="43.84747" lon="7.33416">
        <ele>449.446503</ele>
        <time>2011-09-04T15:15:17Z</time>
      </trkpt>
      <trkpt lat="43.84743" lon="7.33432">
        <ele>449.446533</ele>
        <time>2011-09-04T15:15:20Z</time>
      </trkpt>
      <trkpt lat="43.84726" lon="7.3348">
        <ele>449.446609</ele>
        <time>2011-09-04T15:15:37Z</time>
      </trkpt>
      <trkpt lat="43.84725" lon="7.33493">
        <ele>449.446632</ele>
        <time>2011-09-04T15:15:40Z</time>
      </trkpt>
      <trkpt lat="43.84717" lon="7.33536">
        <ele>448.446709</ele>
        <time>2011-09-04T15:15:57Z</time>
      </trkpt>
      <trkpt lat="43.84721" lon="7.33561">
        <ele>447.446766</ele>
        <time>2011-09-04T15:16:02Z</time>
      </trkpt>
      <trkpt lat="43.84723" lon="7.33583">
        <ele>447.446815</ele>
        <time>2011-09-04T15:16:05Z</time>
      </trkpt>
      <trkpt lat="43.84725" lon="7.33599">
        <ele>446.446854</ele>
        <time>2011-09-04T15:16:07Z</time>
      </trkpt>
      <trkpt lat="43.84726" lon="7.33612">
        <ele>446.446877</ele>
        <time>2011-09-04T15:16:09Z</time>
      </trkpt>
      <trkpt lat="43.84723" lon="7.33629">
        <ele>445.446915</ele>
        <time>2011-09-04T15:16:12Z</time>
      </trkpt>
      <trkpt lat="43.84722" lon="7.33646">
        <ele>444.446945</ele>
        <time>2011-09-04T15:16:15Z</time>
      </trkpt>
      <trkpt lat="43.84721" lon="7.33659">
        <ele>444.446968</ele>
        <time>2011-09-04T15:16:18Z</time>
      </trkpt>
      <trkpt lat="43.84714" lon="7.33705">
        <ele>442.44706</ele>
        <time>2011-09-04T15:16:45Z</time>
      </trkpt>
      <trkpt lat="43.84712" lon="7.33739">
        <ele>443.447121</ele>
        <time>2011-09-04T15:16:56Z</time>
      </trkpt>
      <trkpt lat="43.84706" lon="7.33777">
        <ele>444.447197</ele>
        <time>2011-09-04T15:17:04Z</time>
      </trkpt>
      <trkpt lat="43.84704" lon="7.33792">
        <ele>443.44722</ele>
        <time>2011-09-04T15:17:09Z</time>
      </trkpt>
      <trkpt lat="43.847" lon="7.33804">
        <ele>443.447247</ele>
        <time>2011-09-04T15:17:13Z</time>
      </trkpt>
      <trkpt lat="43.84696" lon="7.33816">
        <ele>443.447266</ele>
        <time>2011-09-04T15:17:17Z</time>
      </trkpt>
      <trkpt lat="43.84692" lon="7.33828">
        <ele>443.447281</ele>
        <time>2011-09-04T15:17:22Z</time>
      </trkpt>
      <trkpt lat="43.84687" lon="7.33841">
        <ele>442.447304</ele>
        <time>2011-09-04T15:17:28Z</time>
      </trkpt>
      <trkpt lat="43.84676" lon="7.33869">
        <ele>439.44735</ele>
        <time>2011-09-04T15:17:57Z</time>
      </trkpt>
      <trkpt lat="43.84672" lon="7.33883">
        <ele>438.447369</ele>
        <time>2011-09-04T15:18:00Z</time>
      </trkpt>
      <trkpt lat="43.84668" lon="7.33895">
        <ele>438.447388</ele>
        <time>2011-09-04T15:18:02Z</time>
      </trkpt>
      <trkpt lat="43.84663" lon="7.33907">
        <ele>437.447411</ele>
        <time>2011-09-04T15:18:04Z</time>
      </trkpt>
      <trkpt lat="43.84652" lon="7.33914">
        <ele>437.447411</ele>
        <time>2011-09-04T15:18:08Z</time>
      </trkpt>
      <trkpt lat="43.84641" lon="7.33918">
        <ele>437.447399</ele>
        <time>2011-09-04T15:18:11Z</time>
      </trkpt>
      <trkpt lat="43.84622" lon="7.33935">
        <ele>437.447411</ele>
        <time>2011-09-04T15:18:27Z</time>
      </trkpt>
      <trkpt lat="43.84613" lon="7.33972">
        <ele>436.447479</ele>
        <time>2011-09-04T15:18:51Z</time>
      </trkpt>
      <trkpt lat="43.84592" lon="7.34">
        <ele>435.44751</ele>
        <time>2011-09-04T15:19:02Z</time>
      </trkpt>
      <trkpt lat="43.84566" lon="7.34014">
        <ele>438.447502</ele>
        <time>2011-09-04T15:19:16Z</time>
      </trkpt>
      <trkpt lat="43.84557" lon="7.34018">
        <ele>438.447498</ele>
        <time>2011-09-04T15:19:19Z</time>
      </trkpt>
      <trkpt lat="43.84548" lon="7.3402">
        <ele>439.447487</ele>
        <time>2011-09-04T15:19:23Z</time>
      </trkpt>
      <trkpt lat="43.84537" lon="7.34023">
        <ele>439.447479</ele>
        <time>2011-09-04T15:19:27Z</time>
      </trkpt>
      <trkpt lat="43.84528" lon="7.34024">
        <ele>439.447472</ele>
        <time>2011-09-04T15:19:30Z</time>
      </trkpt>
      <trkpt lat="43.84516" lon="7.34026">
        <ele>439.447464</ele>
        <time>2011-09-04T15:19:34Z</time>
      </trkpt>
      <trkpt lat="43.84499" lon="7.3403">
        <ele>440.447441</ele>
        <time>2011-09-04T15:19:40Z</time>
      </trkpt>
      <trkpt lat="43.8449" lon="7.34033">
        <ele>442.447441</ele>
        <time>2011-09-04T15:19:43Z</time>
      </trkpt>
      <trkpt lat="43.84479" lon="7.34037">
        <ele>445.447433</ele>
        <time>2011-09-04T15:19:46Z</time>
      </trkpt>
      <trkpt lat="43.84466" lon="7.34052">
        <ele>446.447449</ele>
        <time>2011-09-04T15:19:50Z</time>
      </trkpt>
      <trkpt lat="43.84456" lon="7.34063">
        <ele>446.447464</ele>
        <time>2011-09-04T15:19:52Z</time>
      </trkpt>
      <trkpt lat="43.84446" lon="7.34074">
        <ele>447.447464</ele>
        <time>2011-09-04T15:19:54Z</time>
      </trkpt>
      <trkpt lat="43.84437" lon="7.34082">
        <ele>447.447472</ele>
        <time>2011-09-04T15:19:56Z</time>
      </trkpt>
      <trkpt lat="43.84431" lon="7.34091">
        <ele>447.447483</ele>
        <time>2011-09-04T15:19:58Z</time>
      </trkpt>
      <trkpt lat="43.84422" lon="7.34106">
        <ele>447.447502</ele>
        <time>2011-09-04T15:20:01Z</time>
      </trkpt>
      <trkpt lat="43.84416" lon="7.34116">
        <ele>447.447514</ele>
        <time>2011-09-04T15:20:03Z</time>
      </trkpt>
      <trkpt lat="43.84407" lon="7.3413">
        <ele>447.447533</ele>
        <time>2011-09-04T15:20:06Z</time>
      </trkpt>
      <trkpt lat="43.84397" lon="7.34141">
        <ele>447.44754</ele>
        <time>2011-09-04T15:20:09Z</time>
      </trkpt>
      <trkpt lat="43.84394" lon="7.34153">
        <ele>447.447563</ele>
        <time>2011-09-04T15:20:11Z</time>
      </trkpt>
      <trkpt lat="43.84388" lon="7.34169">
        <ele>447.447586</ele>
        <time>2011-09-04T15:20:14Z</time>
      </trkpt>
      <trkpt lat="43.84382" lon="7.34182">
        <ele>446.447605</ele>
        <time>2011-09-04T15:20:17Z</time>
      </trkpt>
      <trkpt lat="43.84373" lon="7.3419">
        <ele>445.447613</ele>
        <time>2011-09-04T15:20:20Z</time>
      </trkpt>
      <trkpt lat="43.84363" lon="7.34196">
        <ele>443.447609</ele>
        <time>2011-09-04T15:20:24Z</time>
      </trkpt>
      <trkpt lat="43.84339" lon="7.34173">
        <ele>440.447529</ele>
        <time>2011-09-04T15:20:44Z</time>
      </trkpt>
      <trkpt lat="43.84315" lon="7.34154">
        <ele>429.447456</ele>
        <time>2011-09-04T15:20:55Z</time>
      </trkpt>
      <trkpt lat="43.84288" lon="7.34156">
        <ele>423.447426</ele>
        <time>2011-09-04T15:21:13Z</time>
      </trkpt>
      <trkpt lat="43.84275" lon="7.34189">
        <ele>409.447479</ele>
        <time>2011-09-04T15:22:47Z</time>
      </trkpt>
      <trkpt lat="43.84272" lon="7.34213">
        <ele>411.447525</ele>
        <time>2011-09-04T15:23:02Z</time>
      </trkpt>
      <trkpt lat="43.84275" lon="7.34227">
        <ele>411.447556</ele>
        <time>2011-09-04T15:23:08Z</time>
      </trkpt>
      <trkpt lat="43.84279" lon="7.34239">
        <ele>412.44759</ele>
        <time>2011-09-04T15:23:15Z</time>
      </trkpt>
      <trkpt lat="43.84281" lon="7.34251">
        <ele>412.447617</ele>
        <time>2011-09-04T15:23:24Z</time>
      </trkpt>
      <trkpt lat="43.8428" lon="7.34266">
        <ele>412.447647</ele>
        <time>2011-09-04T15:23:33Z</time>
      </trkpt>
      <trkpt lat="43.84276" lon="7.34305">
        <ele>414.44772</ele>
        <time>2011-09-04T15:24:04Z</time>
      </trkpt>
      <trkpt lat="43.84269" lon="7.34352">
        <ele>412.447807</ele>
        <time>2011-09-04T15:24:15Z</time>
      </trkpt>
      <trkpt lat="43.84266" lon="7.34366">
        <ele>411.44783</ele>
        <time>2011-09-04T15:24:17Z</time>
      </trkpt>
      <trkpt lat="43.84262" lon="7.34384">
        <ele>411.447868</ele>
        <time>2011-09-04T15:24:19Z</time>
      </trkpt>
      <trkpt lat="43.84256" lon="7.34405">
        <ele>411.447906</ele>
        <time>2011-09-04T15:24:22Z</time>
      </trkpt>
      <trkpt lat="43.8425" lon="7.34418">
        <ele>411.447922</ele>
        <time>2011-09-04T15:24:24Z</time>
      </trkpt>
      <trkpt lat="43.84241" lon="7.34434">
        <ele>410.447945</ele>
        <time>2011-09-04T15:24:26Z</time>
      </trkpt>
      <trkpt lat="43.84232" lon="7.34449">
        <ele>410.44796</ele>
        <time>2011-09-04T15:24:28Z</time>
      </trkpt>
      <trkpt lat="43.84222" lon="7.34465">
        <ele>410.447983</ele>
        <time>2011-09-04T15:24:30Z</time>
      </trkpt>
      <trkpt lat="43.84214" lon="7.34479">
        <ele>411.448002</ele>
        <time>2011-09-04T15:24:32Z</time>
      </trkpt>
      <trkpt lat="43.84201" lon="7.34488">
        <ele>411.448002</ele>
        <time>2011-09-04T15:24:34Z</time>
      </trkpt>
      <trkpt lat="43.84188" lon="7.34496">
        <ele>411.447998</ele>
        <time>2011-09-04T15:24:36Z</time>
      </trkpt>
      <trkpt lat="43.84165" lon="7.34511">
        <ele>411.447998</ele>
        <time>2011-09-04T15:24:40Z</time>
      </trkpt>
      <trkpt lat="43.84145" lon="7.34524">
        <ele>411.448002</ele>
        <time>2011-09-04T15:24:44Z</time>
      </trkpt>
      <trkpt lat="43.84132" lon="7.34528">
        <ele>411.44799</ele>
        <time>2011-09-04T15:24:47Z</time>
      </trkpt>
      <trkpt lat="43.84121" lon="7.34532">
        <ele>412.447987</ele>
        <time>2011-09-04T15:24:49Z</time>
      </trkpt>
      <trkpt lat="43.84105" lon="7.34548">
        <ele>413.448002</ele>
        <time>2011-09-04T15:24:53Z</time>
      </trkpt>
      <trkpt lat="43.841" lon="7.34558">
        <ele>413.448013</ele>
        <time>2011-09-04T15:24:55Z</time>
      </trkpt>
      <trkpt lat="43.84091" lon="7.34569">
        <ele>412.448025</ele>
        <time>2011-09-04T15:24:58Z</time>
      </trkpt>
      <trkpt lat="43.84092" lon="7.34611">
        <ele>407.448112</ele>
        <time>2011-09-04T15:25:58Z</time>
      </trkpt>
      <trkpt lat="43.84093" lon="7.34626">
        <ele>407.448143</ele>
        <time>2011-09-04T15:26:01Z</time>
      </trkpt>
      <trkpt lat="43.84088" lon="7.34641">
        <ele>406.448174</ele>
        <time>2011-09-04T15:26:06Z</time>
      </trkpt>
      <trkpt lat="43.84078" lon="7.34648">
        <ele>406.44817</ele>
        <time>2011-09-04T15:26:08Z</time>
      </trkpt>
      <trkpt lat="43.84062" lon="7.34657">
        <ele>406.448166</ele>
        <time>2011-09-04T15:26:10Z</time>
      </trkpt>
      <trkpt lat="43.84047" lon="7.34669">
        <ele>406.448174</ele>
        <time>2011-09-04T15:26:12Z</time>
      </trkpt>
      <trkpt lat="43.84036" lon="7.34681">
        <ele>405.448181</ele>
        <time>2011-09-04T15:26:14Z</time>
      </trkpt>
      <trkpt lat="43.84027" lon="7.34689">
        <ele>405.448193</ele>
        <time>2011-09-04T15:26:15Z</time>
      </trkpt>
      <trkpt lat="43.84015" lon="7.34703">
        <ele>404.448204</ele>
        <time>2011-09-04T15:26:17Z</time>
      </trkpt>
      <trkpt lat="43.84011" lon="7.34722">
        <ele>404.448235</ele>
        <time>2011-09-04T15:26:19Z</time>
      </trkpt>
      <trkpt lat="43.84006" lon="7.34755">
        <ele>404.448299</ele>
        <time>2011-09-04T15:26:23Z</time>
      </trkpt>
      <trkpt lat="43.84007" lon="7.34768">
        <ele>403.448326</ele>
        <time>2011-09-04T15:26:25Z</time>
      </trkpt>
      <trkpt lat="43.83985" lon="7.34775">
        <ele>403.448315</ele>
        <time>2011-09-04T15:26:31Z</time>
      </trkpt>
      <trkpt lat="43.83975" lon="7.34768">
        <ele>403.44828</ele>
        <time>2011-09-04T15:26:34Z</time>
      </trkpt>
      <trkpt lat="43.83965" lon="7.34765">
        <ele>402.448265</ele>
        <time>2011-09-04T15:26:36Z</time>
      </trkpt>
      <trkpt lat="43.83955" lon="7.34762">
        <ele>401.448246</ele>
        <time>2011-09-04T15:26:39Z</time>
      </trkpt>
      <trkpt lat="43.83942" lon="7.34758">
        <ele>401.448219</ele>
        <time>2011-09-04T15:26:41Z</time>
      </trkpt>
      <trkpt lat="43.83917" lon="7.3476">
        <ele>401.448189</ele>
        <time>2011-09-04T15:26:45Z</time>
      </trkpt>
      <trkpt lat="43.83904" lon="7.34763">
        <ele>401.448181</ele>
        <time>2011-09-04T15:26:47Z</time>
      </trkpt>
      <trkpt lat="43.83878" lon="7.34776">
        <ele>399.448174</ele>
        <time>2011-09-04T15:26:51Z</time>
      </trkpt>
      <trkpt lat="43.83851" lon="7.34797">
        <ele>398.448181</ele>
        <time>2011-09-04T15:26:55Z</time>
      </trkpt>
      <trkpt lat="43.83837" lon="7.34808">
        <ele>399.448185</ele>
        <time>2011-09-04T15:26:57Z</time>
      </trkpt>
      <trkpt lat="43.8381" lon="7.34822">
        <ele>399.448177</ele>
        <time>2011-09-04T15:27:01Z</time>
      </trkpt>
      <trkpt lat="43.83795" lon="7.34834">
        <ele>399.448181</ele>
        <time>2011-09-04T15:27:03Z</time>
      </trkpt>
      <trkpt lat="43.83767" lon="7.34848">
        <ele>400.448174</ele>
        <time>2011-09-04T15:27:07Z</time>
      </trkpt>
      <trkpt lat="43.83747" lon="7.34864">
        <ele>400.448185</ele>
        <time>2011-09-04T15:27:11Z</time>
      </trkpt>
      <trkpt lat="43.83735" lon="7.34874">
        <ele>400.448189</ele>
        <time>2011-09-04T15:27:13Z</time>
      </trkpt>
      <trkpt lat="43.83714" lon="7.34898">
        <ele>400.448208</ele>
        <time>2011-09-04T15:27:17Z</time>
      </trkpt>
      <trkpt lat="43.83695" lon="7.34922">
        <ele>400.448235</ele>
        <time>2011-09-04T15:27:21Z</time>
      </trkpt>
      <trkpt lat="43.83688" lon="7.34937">
        <ele>400.448254</ele>
        <time>2011-09-04T15:27:23Z</time>
      </trkpt>
      <trkpt lat="43.83674" lon="7.34965">
        <ele>400.448296</ele>
        <time>2011-09-04T15:27:27Z</time>
      </trkpt>
      <trkpt lat="43.83671" lon="7.34983">
        <ele>400.44833</ele>
        <time>2011-09-04T15:27:29Z</time>
      </trkpt>
      <trkpt lat="43.83661" lon="7.35016">
        <ele>400.448383</ele>
        <time>2011-09-04T15:27:33Z</time>
      </trkpt>
      <trkpt lat="43.83652" lon="7.35049">
        <ele>400.448441</ele>
        <time>2011-09-04T15:27:37Z</time>
      </trkpt>
      <trkpt lat="43.8365" lon="7.35068">
        <ele>400.448479</ele>
        <time>2011-09-04T15:27:39Z</time>
      </trkpt>
      <trkpt lat="43.83641" lon="7.351">
        <ele>399.448532</ele>
        <time>2011-09-04T15:27:43Z</time>
      </trkpt>
      <trkpt lat="43.8364" lon="7.35119">
        <ele>399.44857</ele>
        <time>2011-09-04T15:27:45Z</time>
      </trkpt>
      <trkpt lat="43.83631" lon="7.35148">
        <ele>399.448616</ele>
        <time>2011-09-04T15:27:49Z</time>
      </trkpt>
      <trkpt lat="43.83621" lon="7.35175">
        <ele>399.448662</ele>
        <time>2011-09-04T15:27:53Z</time>
      </trkpt>
      <trkpt lat="43.83616" lon="7.3519">
        <ele>400.448685</ele>
        <time>2011-09-04T15:27:55Z</time>
      </trkpt>
      <trkpt lat="43.83601" lon="7.35209">
        <ele>402.448704</ele>
        <time>2011-09-04T15:27:59Z</time>
      </trkpt>
      <trkpt lat="43.83591" lon="7.35217">
        <ele>403.448708</ele>
        <time>2011-09-04T15:28:01Z</time>
      </trkpt>
      <trkpt lat="43.83571" lon="7.35235">
        <ele>403.448723</ele>
        <time>2011-09-04T15:28:05Z</time>
      </trkpt>
      <trkpt lat="43.83555" lon="7.35258">
        <ele>404.448746</ele>
        <time>2011-09-04T15:28:09Z</time>
      </trkpt>
      <trkpt lat="43.83547" lon="7.35268">
        <ele>404.448757</ele>
        <time>2011-09-04T15:28:11Z</time>
      </trkpt>
      <trkpt lat="43.83533" lon="7.35289">
        <ele>404.44878</ele>
        <time>2011-09-04T15:28:15Z</time>
      </trkpt>
      <trkpt lat="43.83525" lon="7.35299">
        <ele>404.448792</ele>
        <time>2011-09-04T15:28:17Z</time>
      </trkpt>
      <trkpt lat="43.83507" lon="7.35312">
        <ele>404.448792</ele>
        <time>2011-09-04T15:28:21Z</time>
      </trkpt>
      <trkpt lat="43.83496" lon="7.35313">
        <ele>403.448784</ele>
        <time>2011-09-04T15:28:24Z</time>
      </trkpt>
      <trkpt lat="43.83485" lon="7.35315">
        <ele>402.448776</ele>
        <time>2011-09-04T15:28:27Z</time>
      </trkpt>
      <trkpt lat="43.83475" lon="7.35323">
        <ele>401.448776</ele>
        <time>2011-09-04T15:28:31Z</time>
      </trkpt>
      <trkpt lat="43.83466" lon="7.35337">
        <ele>401.448792</ele>
        <time>2011-09-04T15:28:34Z</time>
      </trkpt>
      <trkpt lat="43.83453" lon="7.35362">
        <ele>400.44883</ele>
        <time>2011-09-04T15:28:38Z</time>
      </trkpt>
      <trkpt lat="43.83446" lon="7.35376">
        <ele>400.448853</ele>
        <time>2011-09-04T15:28:40Z</time>
      </trkpt>
      <trkpt lat="43.83433" lon="7.35405">
        <ele>400.448895</ele>
        <time>2011-09-04T15:28:44Z</time>
      </trkpt>
      <trkpt lat="43.83417" lon="7.35431">
        <ele>399.448929</ele>
        <time>2011-09-04T15:28:48Z</time>
      </trkpt>
      <trkpt lat="43.83407" lon="7.35442">
        <ele>399.448936</ele>
        <time>2011-09-04T15:28:51Z</time>
      </trkpt>
      <trkpt lat="43.83411" lon="7.35459">
        <ele>398.448975</ele>
        <time>2011-09-04T15:28:54Z</time>
      </trkpt>
    </trkseg>
  </trk>
</gpx>